GFSCGP_sfc_30mbdewp_000.txt.gz
Dewpoint
27 19 20 21 22 21 20 18 14 13 17 20 16 16 15 15 16 17 21 22 23 25 27 27 28 27 26 26 24 24 25 27 26 26 25 25 25 28 29 28 29 32 28 29
24 22 23 23 22 21 19 18 16 16 19 20 19 16 15 15 15 20 22 22 24 25 27 27 28 29 28 26 25 23 23 25 25 23 24 24 24 24 24 27 31 31 31 30
22 23 23 23 21 20 19 18 17 18 20 18 18 10 12 15 19 21 22 24 25 25 25 26 27 28 29 29 27 26 23 23 24 24 24 24 25 26 25 25 26 30 33 33
21 26 23 21 20 21 18 21 20 20 19 12 19 9 13 15 16 18 22 23 23 24 25 25 26 27 29 30 30 28 24 23 23 26 22 24 21 19 20 24 25 28 31 33
22 22 21 20 22 22 20 22 21 21 19 18 17 15 14 18 15 16 19 22 23 24 25 25 26 26 28 30 31 30 25 24 23 26 28 26 25 23 24 26 28 29 30 32
21 25 24 22 23 22 22 23 23 22 20 18 17 16 14 15 17 19 19 23 25 24 25 26 26 26 27 29 31 31 28 25 25 27 28 28 26 26 25 25 25 24 25 25
19 21 24 25 23 24 24 23 22 19 18 16 19 18 17 19 20 21 22 24 25 26 27 27 26 25 26 27 29 28 27 25 25 27 28 29 29 29 26 25 22 24 22 22
21 17 19 26 24 25 22 22 22 22 17 18 19 17 15 20 21 23 24 24 26 27 28 27 26 26 26 27 27 27 24 25 25 27 28 29 27 23 22 22 21 20 21 21
25 22 27 25 28 27 25 24 24 21 22 20 19 19 20 20 22 24 24 26 26 28 29 28 27 26 27 27 27 28 26 24 24 27 28 25 25 23 20 22 22 20 21 19
28 27 28 27 28 26 26 25 25 24 24 21 17 18 17 20 22 23 25 26 28 29 30 30 30 29 29 29 27 28 28 24 25 25 25 24 23 21 20 21 21 21 21 20
29 29 28 30 27 28 28 27 23 23 23 23 22 20 22 23 24 25 26 27 29 30 31 31 30 30 30 29 27 27 26 23 23 23 24 23 20 20 21 21 21 20 21 21
31 32 29 28 30 28 29 28 26 25 24 26 27 25 26 26 26 27 27 28 30 31 31 30 32 31 29 26 24 24 24 22 23 23 24 22 21 22 21 20 21 21 21 22
33 32 28 25 25 27 27 27 27 29 31 27 27 25 26 26 26 28 28 29 30 30 30 31 33 30 25 24 23 22 23 21 22 22 21 21 22 21 21 21 21 21 21 21
35 33 31 26 25 28 28 29 29 30 29 28 28 27 28 28 28 28 28 29 31 30 30 33 35 29 23 22 22 20 21 22 22 21 19 20 22 22 22 21 21 21 21 18
36 32 31 31 30 30 30 29 29 29 30 29 29 27 28 28 28 29 30 30 30 29 34 35 32 27 22 21 20 19 20 23 23 21 20 19 23 23 21 20 20 20 17 15
35 32 33 31 31 31 30 30 30 30 29 29 29 30 31 30 29 28 29 30 28 32 35 33 30 23 19 18 18 23 23 27 24 21 19 21 23 21 19 19 18 15 12 12
35 34 33 29 30 31 29 31 30 28 29 30 28 29 29 27 28 28 29 30 34 35 34 38 27 20 17 18 26 27 29 26 23 20 20 21 20 19 18 17 13 11 11 12
37 34 34 30 31 24 24 25 25 25 27 27 27 29 28 27 29 35 36 35 36 32 37 36 26 19 21 28 28 30 24 21 20 19 20 19 19 17 16 13 10 10 11 12
37 35 32 29 28 26 25 25 26 26 26 26 26 28 29 33 36 37 35 35 32 35 36 30 28 28 31 33 35 28 21 18 18 19 19 18 18 17 13 10 9 11 13 15
33 36 33 32 27 22 25 27 26 25 24 28 28 33 36 36 34 35 36 38 39 39 38 33 36 38 38 36 30 20 18 16 18 18 18 18 17 13 10 9 10 12 14 17
31 31 29 29 27 29 29 27 28 26 28 33 35 35 36 35 36 38 39 39 38 37 37 36 35 34 33 29 20 19 16 17 18 19 18 17 14 11 9 9 11 12 17 21
30 31 29 31 28 25 29 26 26 30 36 35 36 37 37 38 40 38 38 38 37 38 35 36 34 31 29 30 23 18 15 17 18 18 17 15 13 11 8 10 12 16 19 21
31 34 31 30 28 30 32 32 35 37 36 36 37 38 38 41 39 39 38 38 37 35 36 33 31 30 29 21 18 16 18 18 18 17 16 15 13 9 9 11 15 17 17 18
34 36 34 35 34 33 34 36 37 37 37 37 39 41 43 40 39 37 38 36 36 35 36 31 29 24 19 18 19 17 19 19 17 17 17 15 10 10 11 14 15 17 17 19
36 37 36 36 38 35 36 35 36 38 38 39 39 41 41 40 38 38 35 36 34 36 33 28 24 20 17 19 18 19 19 19 18 18 17 12 10 13 14 15 17 18 18 20
39 37 35 33 35 36 37 36 35 36 37 39 41 40 41 39 37 35 35 34 34 35 30 27 21 18 18 18 19 20 19 19 19 18 16 13 15 15 15 16 17 18 18 19

GFSCGP_sfc_30mbdewp_003.txt.gz
Dewpoint
21 19 16 18 20 19 18 17 17 16 17 19 18 17 15 13 12 13 15 18 18 19 21 25 28 30 30 29 29 27 28 28 28 26 26 27 29 30 30 30 31 32 29 31
23 20 21 21 21 19 17 17 17 18 19 20 19 16 14 13 15 16 17 19 21 23 24 26 28 30 31 30 29 27 27 27 28 26 26 26 27 26 28 29 31 33 32 31
16 22 22 20 18 18 17 19 18 19 21 20 18 13 12 16 17 17 21 23 22 23 23 25 28 29 32 32 31 30 27 26 28 26 24 26 27 28 26 26 29 33 34 33
20 23 20 19 17 21 18 22 22 22 21 15 18 8 13 14 14 16 20 22 23 24 24 25 26 28 30 33 33 32 30 28 27 28 25 25 23 23 23 24 24 24 28 32
23 18 17 18 20 22 21 24 24 23 22 20 17 14 12 15 13 15 18 22 24 25 25 26 27 27 28 31 34 34 32 30 27 26 29 28 28 28 25 25 26 28 29 30
16 20 22 20 23 24 24 25 23 24 22 20 20 15 11 13 15 17 19 22 24 25 27 27 28 28 28 30 34 35 34 32 29 27 27 31 31 30 27 27 28 29 28 28
18 20 22 24 24 26 26 23 23 21 18 17 19 18 15 16 18 18 20 22 24 26 28 29 29 28 28 28 31 34 34 33 30 28 29 31 31 31 30 29 27 25 26 24
20 20 20 26 25 26 26 24 24 22 18 18 19 16 15 18 18 20 22 24 26 27 30 30 30 30 29 29 29 31 31 31 29 29 28 29 30 30 30 26 25 24 22 23
25 22 27 25 28 27 27 27 27 24 25 24 21 18 19 20 19 22 24 25 27 29 30 31 32 32 32 31 31 32 32 32 30 28 28 30 31 29 25 23 25 23 22 20
30 26 28 28 30 28 28 28 27 28 26 22 20 20 19 20 21 22 24 26 28 30 31 31 32 32 33 33 33 34 33 32 31 27 28 30 28 26 24 24 23 22 22 22
31 31 29 30 28 27 28 28 27 25 25 24 22 21 23 24 26 26 26 27 29 29 31 31 31 32 34 35 33 32 31 31 30 26 28 27 25 23 22 22 21 22 22 21
33 31 30 29 29 27 27 28 28 26 25 27 28 27 27 27 27 26 28 28 29 30 31 32 32 34 34 34 30 29 29 28 26 26 26 25 24 22 21 22 22 22 22 21
33 32 28 24 27 28 28 27 27 28 29 29 28 27 26 26 28 28 27 28 30 30 32 32 32 35 34 32 28 27 27 26 24 24 24 23 21 23 23 22 22 22 21 20
35 32 31 27 27 29 28 28 28 29 30 30 30 29 28 28 27 28 28 30 30 30 31 31 34 35 36 32 28 26 25 25 23 22 21 23 25 23 22 23 23 22 21 20
36 32 31 31 30 29 28 28 28 26 28 28 29 27 27 28 27 28 29 30 30 31 32 33 35 37 39 31 25 25 23 23 23 24 26 28 25 24 24 23 22 21 20 19
35 34 34 32 31 30 29 28 27 27 27 27 27 27 28 28 29 28 30 31 33 33 32 34 37 39 38 28 24 23 21 24 27 29 29 25 24 23 22 21 21 19 17 14
36 36 34 29 30 32 29 31 30 29 27 26 25 27 26 26 28 30 33 34 34 35 36 36 39 39 35 28 23 22 26 30 36 28 26 24 22 21 21 20 18 15 14 14
37 36 33 30 32 24 24 26 25 25 25 26 26 25 28 31 33 35 36 35 40 39 36 39 39 38 32 29 27 30 36 32 29 28 24 20 20 20 20 18 15 13 14 14
34 37 32 30 28 27 28 25 26 26 26 26 27 30 32 35 36 38 38 40 40 38 40 38 38 37 34 35 37 39 37 30 25 20 19 19 19 20 17 14 14 14 14 15
33 39 34 33 28 24 24 27 28 28 24 32 33 33 36 38 35 37 40 40 40 39 38 36 37 36 38 38 38 34 28 22 20 19 19 19 19 17 14 14 14 14 14 14
34 33 31 30 29 28 29 29 29 25 27 35 36 35 36 35 37 39 41 39 38 37 36 37 36 36 35 35 31 24 23 23 18 19 20 19 17 15 15 14 13 13 15 20
29 32 31 32 29 27 29 29 32 36 37 36 37 37 38 39 40 41 39 37 36 35 36 36 37 34 32 32 29 23 19 17 18 19 19 17 16 17 14 12 12 14 17 20
28 31 31 31 30 31 34 33 35 35 35 38 39 37 40 40 39 40 38 36 34 36 37 37 35 34 32 25 21 17 19 17 19 19 18 17 18 17 13 11 14 15 15 20
36 36 34 35 34 33 33 36 38 38 39 36 37 37 37 38 40 40 38 35 35 37 36 37 34 30 24 21 18 17 19 20 18 18 18 19 18 14 13 14 14 14 18 20
35 37 36 36 36 35 37 38 35 37 36 35 37 37 38 39 38 40 37 34 36 35 37 34 30 26 21 19 19 19 19 20 19 19 20 19 17 15 15 16 15 16 20 22
37 36 35 34 38 38 36 33 33 34 37 37 35 30 29 32 36 37 35 35 35 36 36 32 25 21 19 18 18 19 20 19 21 21 22 21 16 16 17 15 15 18 20 21

GFSCGP_sfc_30mbdewp_006.txt.gz
Dewpoint
18 23 17 17 19 18 16 16 16 18 17 18 19 19 17 14 12 13 15 18 19 19 20 23 29 31 32 33 33 32 31 33 33 32 32 33 34 35 37 37 36 37 36 36
16 22 19 19 18 17 13 15 18 19 20 20 20 19 17 14 17 16 17 20 22 23 24 26 30 32 33 33 34 33 32 32 33 32 33 32 34 34 35 35 36 35 37 34
13 23 18 18 17 18 14 21 20 21 22 20 18 13 15 15 17 18 21 23 23 24 24 25 27 29 35 35 36 35 33 32 33 32 32 33 33 32 31 31 34 37 36 38
19 20 18 17 17 19 17 22 23 24 23 19 21 13 12 14 16 18 21 24 25 26 26 27 27 28 31 35 38 37 36 34 32 35 31 31 30 29 29 30 31 32 39 38
24 20 14 16 19 21 21 24 25 24 23 22 19 14 13 14 13 16 20 22 25 27 28 28 29 30 30 32 38 38 38 37 35 34 34 32 32 32 32 32 32 32 33 33
14 19 20 19 21 23 25 25 24 24 23 22 21 19 16 14 16 15 18 22 25 27 29 30 31 31 31 34 34 38 38 37 37 36 35 35 32 33 34 33 32 32 32 32
20 19 21 24 23 24 26 25 25 24 21 22 20 19 19 19 18 19 20 23 26 27 29 31 32 32 33 33 35 38 38 37 37 38 38 35 36 35 34 35 34 31 30 28
23 21 21 26 25 26 26 26 26 23 20 23 23 18 16 18 19 19 22 24 26 28 31 31 33 34 34 35 36 35 34 34 35 37 38 37 36 35 35 35 33 28 27 26
27 24 26 27 27 27 26 26 28 25 26 27 25 23 23 21 20 23 25 25 28 29 31 32 33 34 35 36 36 37 37 37 36 36 38 36 36 35 34 32 30 28 28 25
30 28 29 28 30 29 28 29 27 28 27 22 20 22 22 23 26 28 29 28 31 32 33 33 34 34 36 37 38 38 39 36 35 35 36 33 33 33 30 28 28 26 26 25
32 32 31 31 29 27 26 26 29 27 27 25 26 24 27 28 29 29 29 30 32 32 33 33 34 34 36 37 37 37 34 32 33 32 33 32 31 30 27 26 25 25 27 26
35 32 31 30 30 28 26 27 28 27 29 29 29 28 30 29 28 30 30 30 31 32 32 33 33 34 36 37 39 39 34 31 31 31 31 30 29 27 26 25 26 27 27 27
34 32 28 25 27 29 29 28 28 28 31 29 30 29 30 31 31 30 30 31 32 32 32 34 34 35 36 38 40 40 32 30 29 27 28 27 27 26 25 28 28 28 27 25
35 32 30 29 29 30 29 29 29 28 27 28 28 28 28 28 28 29 31 32 32 32 33 33 34 36 37 39 40 36 29 29 27 25 25 26 24 25 28 28 27 27 26 26
35 33 32 32 31 31 31 30 29 28 27 26 27 26 26 27 27 30 32 33 34 33 35 38 38 36 38 39 39 32 29 26 26 24 23 26 32 31 31 27 27 26 26 25
36 34 35 33 33 31 29 31 30 28 27 27 27 26 27 27 30 32 33 34 35 37 39 39 37 37 38 38 38 29 26 25 25 27 35 38 35 29 26 26 25 24 24 22
36 36 34 30 31 31 29 29 29 29 27 26 25 26 27 27 33 35 36 36 39 39 39 39 39 39 38 37 33 30 31 37 38 38 36 34 33 26 24 24 23 23 21 20
34 36 34 31 31 24 25 28 27 27 28 28 26 26 28 32 37 37 38 39 39 40 39 39 39 38 38 35 35 39 40 37 35 35 35 33 24 22 22 23 22 19 19 19
33 37 34 30 29 28 29 28 27 27 28 28 31 34 36 38 39 38 39 42 42 40 39 38 37 37 36 37 39 39 40 39 37 31 24 21 21 21 22 20 18 19 19 18
36 39 36 33 28 24 26 28 29 30 27 37 37 37 39 38 36 38 40 41 40 39 38 35 37 37 37 38 38 36 35 33 24 23 21 20 21 20 18 18 18 18 18 17
34 35 31 31 29 29 31 30 33 29 33 39 40 40 39 38 40 41 40 40 40 38 34 36 36 36 37 35 35 30 24 24 23 20 19 20 20 17 18 18 18 16 17 20
27 29 30 32 29 26 31 33 34 35 39 39 41 40 40 39 39 39 39 39 38 35 35 36 36 36 35 34 35 27 20 18 19 20 20 20 19 19 19 18 16 17 18 20
28 30 29 30 29 31 33 34 37 38 39 40 40 38 38 37 37 38 39 37 38 36 36 36 36 35 35 32 22 20 20 18 19 19 20 20 21 21 18 16 17 18 18 20
35 34 33 33 32 33 35 37 38 39 39 40 40 39 38 34 31 31 35 38 35 35 35 36 36 33 29 25 19 20 20 21 20 20 21 21 21 20 18 18 18 18 19 21
35 35 34 34 35 35 37 38 38 39 39 40 39 38 28 27 26 28 36 35 35 35 35 36 32 31 25 20 19 19 20 21 20 22 22 23 23 20 18 19 18 18 21 22
36 35 34 33 35 38 37 38 38 37 40 38 30 26 26 27 33 35 35 34 34 34 35 33 31 23 21 19 19 19 22 24 25 24 24 24 22 20 20 19 19 20 21 22

GFSCGP_sfc_30mbdewp_009.txt.gz
Dewpoint
19 21 18 17 19 18 16 15 17 20 22 22 21 21 21 20 17 17 19 22 23 24 29 31 32 32 33 34 32 31 32 33 34 32 32 33 35 36 37 36 40 40 39 36
19 21 19 18 19 19 17 20 22 22 24 24 23 21 21 17 17 20 22 22 23 24 26 30 32 32 31 32 33 32 32 32 33 32 33 32 32 34 35 36 37 38 38 36
18 20 18 18 20 19 18 22 22 23 25 26 23 18 16 17 18 22 22 23 23 23 24 26 27 31 33 33 33 34 33 33 34 32 32 33 35 35 33 34 36 37 36 37
20 19 16 17 20 20 17 24 24 25 25 22 25 18 17 16 17 20 22 24 25 26 27 28 27 28 32 34 36 36 35 35 34 35 31 30 30 30 30 30 31 35 37 38
23 16 13 19 19 20 21 24 25 26 26 25 22 19 14 17 16 19 24 26 27 28 28 28 30 31 32 33 36 38 38 37 37 36 36 32 31 33 32 32 32 35 38 40
17 20 21 19 23 25 26 28 27 29 25 22 23 21 19 18 16 20 25 26 28 28 29 31 32 32 32 35 35 37 37 36 37 37 37 37 34 33 33 33 33 35 36 33
26 21 22 26 24 27 27 27 24 16 21 21 23 20 17 23 21 22 23 24 26 27 31 30 31 32 33 34 35 36 37 37 37 38 38 38 37 36 33 33 35 31 32 30
26 24 26 27 27 26 27 26 27 22 22 23 25 21 21 23 23 25 23 24 29 29 31 32 34 35 35 35 36 37 37 37 37 38 39 39 39 39 36 36 36 33 29 29
30 26 31 27 27 27 26 28 29 26 27 25 26 26 23 26 28 29 30 30 30 31 33 33 34 35 36 37 38 38 38 38 37 37 36 36 39 39 37 34 29 29 29 29
31 29 32 33 32 30 28 30 27 28 25 24 24 24 23 27 27 29 31 31 31 33 34 34 34 35 36 38 39 39 39 38 36 34 34 34 35 31 32 31 28 27 29 31
34 33 31 32 31 30 28 27 29 30 29 29 27 27 29 29 30 31 30 31 32 33 33 34 34 36 38 39 39 40 40 40 35 33 34 33 31 28 28 28 27 28 29 32
34 32 30 29 31 32 27 30 29 28 30 30 30 29 31 31 32 31 31 32 33 32 34 35 36 37 37 38 40 40 40 40 32 32 32 31 29 27 26 25 27 29 30 31
34 30 27 24 28 32 31 31 32 31 30 27 27 27 31 30 30 32 32 33 34 35 36 39 39 38 38 38 39 40 39 34 30 29 29 28 27 26 26 28 28 29 29 29
35 33 30 26 28 32 30 31 31 31 28 28 28 28 28 28 29 32 34 35 35 37 39 39 39 39 37 38 38 39 35 29 29 27 27 26 26 26 29 29 30 29 28 28
35 32 33 33 33 32 30 30 30 30 29 28 28 28 28 28 33 35 36 37 36 39 39 39 39 38 38 39 39 37 28 31 28 26 29 34 34 32 31 31 29 29 27 26
38 33 35 33 34 34 31 31 31 30 30 29 29 27 29 31 38 38 37 38 39 39 39 39 40 39 39 39 37 32 35 37 38 37 36 36 35 34 32 28 27 26 24 25
36 35 33 30 33 32 29 26 28 29 28 28 27 31 37 36 37 38 38 39 39 39 40 39 40 39 38 38 34 35 38 38 38 37 36 37 37 36 35 30 25 24 24 21
33 34 34 32 31 25 26 29 27 28 29 31 36 37 37 39 40 39 39 40 40 39 41 40 39 38 37 36 37 39 40 40 37 37 36 36 36 34 24 23 23 21 20 19
37 34 32 30 28 28 29 29 29 28 28 38 36 38 38 40 40 37 39 41 40 40 41 39 39 37 37 37 38 38 38 39 39 36 35 31 23 22 22 21 19 18 18 17
37 37 32 30 26 22 25 30 37 35 29 38 39 40 39 40 34 35 40 41 41 41 39 38 36 36 36 36 38 37 35 35 36 23 21 22 21 21 19 18 18 18 18 17
30 32 29 28 27 28 30 30 37 27 30 39 39 39 40 38 38 40 40 39 40 39 38 36 36 36 36 35 35 33 28 22 21 21 21 21 20 19 20 20 19 16 17 19
27 27 29 30 28 24 33 31 29 32 37 35 38 40 38 40 40 38 36 37 39 38 36 36 35 36 35 35 34 31 18 20 21 21 21 21 21 21 20 17 17 18 19 19
28 28 26 29 27 32 33 32 34 35 36 39 39 40 39 38 37 29 28 36 37 36 35 35 36 36 35 32 21 21 21 21 22 21 22 22 22 22 19 18 18 19 19 20
34 35 32 31 32 32 34 35 36 37 39 41 41 40 36 36 31 33 35 35 35 35 34 35 36 33 32 29 21 20 22 22 21 22 22 23 23 21 19 19 20 19 19 19
36 37 34 34 34 34 35 35 37 40 42 41 37 36 32 35 35 34 32 33 34 33 33 36 35 33 30 21 20 20 22 23 23 23 24 25 23 20 20 21 20 20 19 20
37 35 34 32 34 36 36 37 38 38 35 33 32 30 34 35 33 33 33 33 32 32 34 35 30 24 21 21 23 25 25 25 24 24 24 24 21 21 20 20 20 20 21 22

GFSCGP_sfc_30mbdewp_012.txt.gz
Dewpoint
22 20 16 17 18 19 17 19 21 22 22 25 24 24 23 21 19 20 22 23 26 28 31 31 31 33 33 33 33 33 31 30 35 34 34 33 35 36 37 39 45 44 42 40
23 19 19 19 21 19 19 21 21 23 24 26 25 23 19 19 18 21 23 23 25 27 30 31 31 32 32 31 31 31 31 32 33 32 32 32 32 33 35 36 39 43 42 40
20 19 18 19 20 19 18 21 22 23 26 27 24 20 16 18 22 23 23 23 24 25 27 30 31 30 31 31 32 32 32 32 33 33 33 33 34 35 34 34 36 38 41 40
20 19 15 20 19 20 17 21 24 25 25 22 25 21 19 17 19 21 23 23 24 25 26 26 27 30 33 32 34 34 35 34 34 34 33 31 30 30 31 31 33 36 39 39
22 16 14 19 18 22 21 23 26 26 26 25 23 20 18 17 17 20 24 26 27 28 28 29 30 31 30 33 33 36 37 36 36 37 36 34 32 32 32 33 32 32 35 38
18 20 21 20 24 27 28 28 28 29 26 22 23 21 18 21 21 24 26 26 27 28 29 31 32 32 33 34 35 37 38 37 38 38 38 37 36 35 34 34 34 33 36 38
27 24 23 26 26 27 28 28 23 17 21 21 26 23 20 24 26 24 23 26 27 28 30 30 31 32 33 34 35 37 37 37 38 38 38 38 39 39 37 36 35 35 34 32
29 25 29 27 27 26 27 28 25 19 22 23 26 21 22 28 30 29 26 27 29 29 30 33 35 35 36 37 38 37 38 39 38 38 38 38 39 40 40 39 37 36 34 31
29 26 32 31 31 28 27 27 29 26 27 26 26 26 25 25 29 31 31 32 32 33 34 34 35 36 37 38 39 39 39 39 38 39 39 36 36 38 38 37 35 34 32 33
32 29 32 33 33 30 28 30 26 28 24 24 26 25 24 26 30 31 32 32 33 33 34 35 35 37 38 38 39 40 39 39 39 40 35 34 35 35 33 30 29 31 34 36
33 32 29 30 31 30 28 30 30 30 30 28 27 27 29 29 31 31 31 32 32 34 35 36 37 38 38 38 39 39 40 40 40 34 33 34 30 31 30 29 30 31 34 36
34 32 29 28 32 32 31 31 31 28 27 29 28 27 30 31 30 31 32 34 35 35 37 39 39 39 39 39 39 39 39 40 33 31 33 32 29 28 27 28 29 31 32 32
33 30 24 21 25 31 31 31 31 32 30 27 26 24 29 29 30 34 35 36 36 38 39 39 39 39 40 39 38 39 40 34 30 30 31 29 27 26 26 28 29 30 30 29
35 32 27 24 24 32 31 31 30 30 28 28 28 28 29 30 35 37 37 38 37 39 39 39 39 39 40 39 39 39 35 33 30 28 29 28 28 27 30 29 30 29 29 28
35 31 32 32 32 33 32 32 33 31 30 29 29 28 29 36 37 37 38 38 38 39 39 39 39 39 40 39 39 38 34 36 35 33 34 35 34 32 31 30 31 32 30 27
37 33 34 33 34 34 33 33 33 32 31 30 29 28 37 38 38 38 38 38 38 39 40 38 40 40 40 39 38 35 36 37 38 36 37 37 37 36 36 36 34 31 30 26
36 34 33 27 33 33 30 30 29 28 29 28 27 30 37 37 38 39 39 39 39 40 39 38 40 41 39 38 36 36 38 40 38 38 38 38 38 37 34 35 32 30 24 21
34 34 32 30 32 25 27 29 29 29 29 31 36 37 39 38 39 39 40 39 40 39 38 39 41 40 38 37 36 38 38 39 38 38 37 36 36 36 34 29 23 20 19 18
37 34 31 29 28 27 28 28 29 30 31 36 37 37 37 38 39 36 38 40 40 38 40 41 41 38 36 36 36 37 36 36 38 38 34 27 24 22 21 19 18 18 18 17
36 35 31 28 26 22 23 28 36 36 27 38 37 36 35 36 35 36 41 36 35 38 41 40 36 36 36 36 36 35 31 27 25 22 22 22 22 20 19 20 19 18 17 18
29 30 28 26 26 26 28 30 33 24 24 35 36 36 38 38 39 40 37 32 35 38 37 36 35 35 36 36 35 33 20 20 21 22 23 22 21 21 21 18 18 18 18 20
25 25 27 28 27 23 33 32 29 30 35 35 36 40 39 38 37 36 34 34 36 36 35 35 35 35 36 34 34 25 19 21 22 22 22 22 22 22 19 18 18 19 19 19
28 28 26 27 26 30 33 33 34 36 35 37 40 41 38 36 36 35 34 34 34 35 34 34 34 36 34 33 28 21 21 22 22 22 22 23 24 22 19 19 20 20 19 18
34 34 31 31 31 31 33 35 36 37 40 41 39 36 37 35 33 34 32 31 32 34 32 33 36 35 33 31 21 21 23 23 23 22 23 25 23 21 20 21 20 19 18 18
36 38 35 34 35 36 35 36 38 40 37 36 35 37 33 34 33 32 32 32 32 32 34 35 33 31 24 22 22 24 24 23 23 23 24 24 22 21 20 21 21 20 21 21
37 35 34 33 35 35 36 38 39 37 35 35 32 31 34 32 29 31 31 33 35 35 33 31 27 25 24 23 25 25 25 24 24 23 22 23 22 22 19 20 20 21 22 21

GFSCGP_sfc_30mbdewp_015.txt.gz
Dewpoint
24 20 15 17 18 19 17 20 21 22 23 25 25 25 24 22 19 19 20 20 24 27 31 31 30 33 34 38 38 36 33 40 39 37 35 35 35 36 38 38 42 46 46 44
22 18 19 21 21 19 20 20 19 23 25 27 25 24 17 18 20 23 25 26 27 29 30 32 33 33 33 34 34 34 32 31 33 34 33 33 33 34 36 37 38 41 44 44
20 19 18 20 20 18 18 19 20 22 25 26 25 21 17 20 22 23 24 25 27 28 29 30 31 31 31 31 31 32 32 32 33 33 33 33 34 34 34 34 35 37 43 44
20 17 17 20 19 21 20 20 23 24 25 22 25 18 19 17 20 23 24 24 25 26 28 29 30 30 31 31 32 33 33 34 34 34 34 32 31 31 31 32 33 35 38 41
22 15 19 19 22 23 23 27 27 27 27 25 23 19 20 22 17 23 25 25 26 27 28 28 28 28 30 32 33 35 37 38 38 38 37 36 36 35 35 35 34 34 35 39
24 22 22 23 24 27 28 28 28 28 26 20 24 22 22 22 22 24 25 27 28 28 28 29 31 32 32 34 35 37 37 37 39 38 38 38 38 38 38 38 37 37 37 36
29 28 27 27 26 28 28 28 19 17 20 20 26 22 23 25 25 24 24 27 28 28 29 31 31 32 34 36 38 38 39 38 39 39 38 39 39 39 39 39 39 38 37 35
27 23 30 29 27 27 27 28 23 14 19 22 26 21 23 27 31 29 31 31 32 31 31 34 35 36 37 38 39 39 39 38 39 39 39 41 38 37 38 39 40 39 36 33
29 25 32 32 33 29 28 27 30 26 27 26 26 27 27 28 30 32 32 33 34 34 34 34 36 37 38 38 38 39 39 39 39 40 40 37 34 34 36 37 36 35 34 36
33 29 32 32 32 31 29 30 27 28 23 22 25 25 24 26 30 30 32 32 33 35 36 37 37 38 38 38 39 39 40 39 40 40 35 32 33 34 35 33 33 33 34 37
32 32 28 29 28 28 30 30 30 30 29 27 26 26 31 29 30 30 33 35 35 35 37 38 39 39 39 39 39 39 39 39 40 35 31 32 33 32 32 31 32 34 37 37
34 31 26 27 31 33 31 31 30 27 26 29 27 25 29 30 32 34 36 37 37 36 38 39 40 39 40 40 40 39 39 40 34 32 31 32 33 30 29 30 31 33 33 33
33 29 24 22 25 28 30 31 32 31 30 27 24 23 30 30 33 37 37 38 38 37 38 39 40 39 40 40 40 40 40 35 34 31 30 30 30 28 28 29 31 31 31 30
35 31 27 22 23 29 29 31 32 31 28 27 27 27 29 31 35 37 38 38 38 38 39 39 40 40 40 40 40 39 38 35 36 34 31 29 29 27 29 30 31 30 30 30
34 31 31 31 31 32 32 32 33 32 32 30 29 30 31 33 37 38 38 39 38 38 39 40 40 39 40 41 40 39 35 37 38 38 36 34 33 33 35 37 36 35 33 32
37 31 34 32 33 34 32 33 33 33 33 32 30 28 32 38 38 39 39 39 38 39 39 40 39 39 40 41 39 37 37 37 39 39 37 37 38 38 37 36 33 33 34 30
35 33 32 26 32 31 24 27 30 30 28 28 27 29 38 37 37 37 38 39 39 39 38 35 37 39 40 41 38 36 36 38 38 37 38 38 37 37 37 36 35 33 25 20
33 33 32 28 31 23 23 29 29 29 29 30 33 36 37 37 37 37 39 39 38 35 32 32 35 40 40 37 36 36 37 37 37 38 38 36 36 36 32 26 22 19 19 18
35 33 30 29 27 27 27 26 28 28 29 35 35 36 34 35 37 36 40 37 36 34 33 37 39 36 36 35 36 36 36 30 34 31 24 23 23 22 21 19 19 19 17 17
35 33 31 28 25 23 23 26 35 36 29 36 37 34 34 36 33 35 37 35 34 35 38 36 36 35 35 35 36 35 30 23 23 23 23 22 21 21 20 20 18 18 18 19
30 31 29 28 26 26 28 29 31 26 24 35 35 35 36 37 38 39 36 35 36 36 35 35 34 34 35 36 36 36 26 25 22 23 22 22 22 22 20 19 18 19 20 20
25 24 25 26 25 23 30 32 29 31 33 35 36 38 39 38 37 36 36 35 33 33 34 34 33 33 36 36 33 32 26 22 23 22 22 23 23 21 20 19 20 20 19 18
28 28 26 27 26 30 32 33 34 35 35 36 40 39 39 36 32 35 34 33 31 32 33 33 32 36 36 33 28 23 22 22 22 23 23 24 24 22 20 20 20 19 18 18
34 35 32 32 32 31 34 36 36 37 39 40 39 36 33 32 32 34 33 31 31 32 33 35 32 30 26 26 24 25 24 24 23 23 24 25 22 21 20 20 21 20 20 19
37 38 36 35 36 37 36 37 39 41 40 37 37 36 34 33 34 33 29 30 31 33 35 32 32 28 29 29 27 25 24 24 23 23 23 23 23 22 20 19 20 22 22 21
38 36 34 34 36 36 36 41 42 37 36 35 33 31 31 32 33 30 29 30 32 34 32 31 29 28 26 24 25 26 26 25 24 23 22 23 23 22 19 19 20 21 21 21

GFSCGP_sfc_30mbdewp_018.txt.gz
Dewpoint
25 18 16 18 19 18 17 19 20 21 23 25 25 25 19 19 21 21 20 21 22 25 30 31 30 32 33 36 40 42 41 41 44 42 39 37 36 37 38 38 40 42 45 46
21 17 19 22 21 19 19 19 17 22 24 26 25 23 19 21 23 24 26 27 28 29 30 32 32 33 34 36 39 39 37 34 39 39 35 34 34 34 36 37 37 39 42 45
20 18 21 20 20 22 21 17 19 21 25 26 24 20 20 19 22 23 24 26 28 28 28 30 31 32 33 34 35 35 34 34 33 33 34 33 34 34 33 33 34 34 37 40
21 17 20 23 21 22 21 20 23 24 25 21 25 17 20 22 21 23 23 24 25 27 29 30 30 31 31 31 32 33 34 35 36 36 35 35 34 34 34 34 35 35 36 37
20 17 21 24 23 24 24 28 28 27 26 25 24 18 20 22 20 23 25 26 26 27 27 27 28 30 32 33 35 37 38 39 39 39 39 38 37 38 39 39 38 39 38 38
26 24 24 24 25 28 29 29 26 28 26 21 24 22 23 23 23 25 27 28 28 28 28 29 32 33 35 38 38 39 39 39 39 39 40 39 39 39 38 37 38 39 40 39
29 28 30 28 28 29 29 26 16 19 20 20 26 22 25 27 27 29 30 32 33 33 30 34 35 37 38 38 38 39 39 39 39 40 40 39 36 36 35 36 37 38 39 35
27 20 30 31 28 27 28 28 22 13 18 22 26 21 25 29 31 31 33 34 34 34 35 36 37 37 38 38 38 39 39 39 39 40 40 39 35 34 35 36 37 38 37 35
29 24 32 33 33 30 28 27 30 26 27 25 25 27 27 30 31 32 33 33 34 35 36 37 37 38 38 38 39 39 39 39 39 40 40 35 34 33 33 34 35 35 35 37
33 27 31 31 32 31 29 30 26 27 21 20 24 24 23 28 29 31 33 35 35 35 37 37 38 39 39 39 40 40 40 39 40 40 35 33 33 34 33 33 33 34 36 38
32 31 25 28 28 29 29 29 30 30 29 26 24 24 30 29 31 32 35 37 37 35 36 38 39 40 40 40 40 40 40 39 40 35 33 33 33 33 32 31 33 34 37 38
34 30 25 25 30 33 32 29 29 23 24 28 27 24 30 31 33 35 37 37 38 38 37 38 39 40 40 40 40 40 40 39 39 34 34 33 33 31 30 31 32 35 34 34
33 29 20 15 26 29 30 32 31 30 29 27 23 22 29 30 32 37 37 38 38 39 39 39 39 40 40 40 40 41 40 39 35 36 36 35 33 29 28 30 31 32 31 33
35 31 25 18 21 27 29 31 32 31 29 27 26 26 28 30 31 37 38 38 39 39 39 39 40 40 40 39 40 41 40 37 36 38 38 36 33 31 33 36 36 36 36 35
34 31 31 31 31 32 32 32 32 32 31 29 28 29 31 32 35 37 38 39 39 38 39 39 39 36 36 37 40 41 39 37 37 38 38 36 35 37 38 37 36 35 34 33
36 30 33 31 33 32 31 32 32 33 33 33 32 32 33 37 38 36 37 38 38 39 39 34 32 29 31 38 41 39 37 36 38 37 36 37 39 37 37 36 35 34 34 35
35 33 31 22 30 30 21 23 29 30 31 28 25 26 35 36 34 35 37 37 38 37 34 32 31 35 39 38 37 36 36 37 37 37 37 38 38 37 37 37 35 34 25 20
34 33 31 28 29 21 22 29 29 28 28 29 29 31 37 35 35 37 38 37 36 34 33 33 37 36 35 35 35 36 36 34 33 34 32 30 29 30 28 22 20 20 19 18
35 33 29 27 26 27 27 26 27 28 27 30 31 36 35 35 36 35 38 35 35 33 35 36 34 34 34 34 35 35 33 29 29 31 28 24 23 21 20 20 20 19 18 18
34 32 31 28 25 22 24 26 35 35 26 32 36 33 33 35 33 35 37 36 34 36 35 34 34 34 34 34 36 37 35 23 25 24 23 23 22 22 21 19 19 18 19 20
29 30 30 29 27 28 29 29 30 25 25 35 35 35 35 35 37 36 33 34 36 34 33 34 33 32 33 35 36 35 35 27 23 24 24 23 23 22 20 20 19 20 20 20
24 23 24 26 25 22 29 31 29 29 34 35 35 36 39 38 35 31 30 35 35 30 31 33 33 32 35 33 29 25 25 22 24 24 23 24 24 23 20 20 20 20 19 18
27 27 26 28 27 30 31 32 33 34 36 36 38 38 36 34 31 28 31 35 33 30 31 33 33 32 29 26 25 25 27 26 24 23 23 24 24 22 21 19 19 20 20 19
32 34 31 31 32 32 35 37 37 38 38 40 40 37 34 30 30 31 33 34 29 30 31 34 32 30 29 28 30 27 25 24 23 23 23 23 23 22 21 19 20 20 20 19
37 37 36 35 36 37 38 38 39 41 39 37 37 34 32 32 32 32 34 31 29 30 32 34 32 31 29 28 26 25 25 25 23 23 23 23 23 23 23 19 20 21 21 21
38 37 35 33 35 37 38 40 38 35 34 30 31 32 33 33 32 33 32 31 30 30 32 33 31 30 27 24 25 25 26 25 24 24 23 23 22 22 21 20 20 21 20 21

GFSCGP_sfc_30mbdewp_021.txt.gz
Dewpoint
24 19 17 19 19 19 17 19 20 21 24 25 26 24 21 23 25 26 27 26 24 27 31 32 33 33 36 40 44 45 46 48 47 46 44 42 41 40 40 40 42 43 43 46
20 17 19 21 20 19 20 18 17 22 24 27 25 21 20 23 24 26 27 28 29 30 30 32 33 35 37 38 41 43 43 39 38 41 39 38 37 37 37 38 40 41 41 43
20 17 22 20 23 23 22 19 20 21 24 27 24 21 22 21 24 25 25 27 29 30 31 32 33 35 36 37 37 36 36 37 38 39 37 38 39 39 38 38 38 39 41 41
20 19 23 24 22 23 21 22 27 26 25 21 25 16 22 22 23 25 27 27 27 28 29 30 31 33 36 37 40 40 41 40 40 41 40 40 39 38 38 39 38 40 41 41
18 20 24 25 23 25 25 29 28 27 27 25 25 19 22 23 24 27 29 31 32 33 31 31 33 36 39 41 41 42 41 41 41 41 42 40 38 38 39 39 39 38 39 41
26 27 25 26 25 28 30 29 27 28 26 22 25 22 24 24 27 29 31 34 35 34 33 36 38 39 39 41 41 42 41 40 41 41 42 42 39 38 37 37 36 35 37 40
28 28 30 29 27 29 30 25 17 20 21 20 26 22 26 29 30 31 33 34 35 36 37 37 38 38 39 39 40 40 40 39 41 41 42 42 38 38 37 36 35 35 35 37
25 20 29 32 29 27 29 28 22 11 16 21 27 23 26 31 32 34 34 35 36 37 37 38 38 39 39 40 40 41 40 39 40 40 41 41 38 37 36 35 36 36 36 37
28 23 32 33 33 30 28 28 30 26 27 25 25 27 30 32 32 33 34 36 35 36 38 38 39 40 40 40 41 42 41 39 39 40 41 37 37 37 36 36 36 35 37 38
32 26 31 31 32 31 29 31 26 28 20 18 22 25 23 29 30 32 35 36 37 36 37 37 38 40 41 41 41 42 42 40 40 40 39 35 37 36 36 35 33 34 37 39
31 30 24 27 30 30 30 29 30 30 29 25 23 22 30 29 31 32 35 37 38 38 38 38 39 40 41 42 41 41 41 41 40 40 36 37 37 37 34 32 33 35 38 39
33 30 23 24 32 33 32 29 28 21 22 28 28 23 29 32 33 35 37 38 39 39 39 39 40 41 40 39 36 38 41 42 41 37 38 37 37 34 30 32 33 35 34 36
33 28 16 11 27 29 31 31 30 29 29 27 24 21 28 32 32 36 37 38 38 39 39 40 40 39 36 34 36 39 41 41 39 37 38 38 35 31 33 36 37 37 38 37
35 31 22 13 15 25 27 30 31 31 29 26 26 25 27 29 31 35 36 36 38 39 39 40 38 36 33 33 38 40 39 39 38 37 38 37 34 36 37 37 36 36 36 34
35 29 31 30 30 31 31 31 32 31 31 29 27 28 29 31 33 36 35 37 38 38 39 38 34 31 34 38 36 34 35 36 37 38 37 37 36 38 36 36 36 35 34 34
36 30 32 30 32 31 29 30 31 32 32 32 32 31 33 35 38 36 36 36 37 39 37 34 32 36 35 31 32 34 35 36 38 36 37 38 39 39 38 37 36 35 36 34
34 33 31 21 29 29 21 22 28 30 32 30 26 26 33 36 35 34 35 37 38 36 34 33 35 32 31 32 34 35 36 36 33 35 36 36 34 33 33 31 24 22 22 22
34 33 31 28 28 19 21 29 29 28 28 29 29 30 32 36 35 36 37 37 36 34 33 35 32 31 32 33 34 36 36 33 32 30 31 27 25 24 23 22 22 21 20 20
36 34 29 27 26 27 27 25 26 26 26 29 30 34 35 35 36 36 38 36 35 33 35 34 32 33 32 32 35 35 36 32 26 26 24 24 23 22 22 21 20 20 20 20
33 32 31 28 25 22 24 26 36 33 25 32 35 34 34 35 34 36 35 36 32 35 35 30 32 33 32 31 34 34 34 34 27 26 26 25 24 23 22 21 21 20 20 19
29 30 29 28 26 28 30 30 30 26 27 35 36 35 36 35 36 36 37 34 35 36 32 31 32 32 32 32 30 28 28 32 24 27 25 24 24 23 22 21 20 19 19 21
23 24 25 26 25 22 29 31 28 30 33 35 36 37 37 36 36 33 31 31 33 34 31 30 32 32 32 26 25 25 25 25 26 24 24 24 24 22 20 20 18 19 20 21
27 27 26 28 28 30 31 31 33 35 37 37 38 37 34 33 30 30 30 31 32 34 30 30 32 33 31 30 27 28 28 27 25 24 23 22 22 21 21 20 19 19 20 19
32 33 31 30 32 33 34 36 40 41 38 38 37 36 36 28 29 31 31 31 32 33 30 30 32 33 31 31 30 29 26 25 24 23 22 22 23 23 23 22 20 20 20 19
33 36 35 34 36 36 37 41 39 37 35 32 29 29 28 31 31 31 31 31 32 31 31 31 32 33 31 31 28 25 25 26 24 24 23 23 23 23 23 22 21 21 22 20
38 37 35 33 36 38 38 38 37 34 30 29 30 31 31 28 27 30 28 30 30 30 31 31 32 32 31 29 25 25 25 25 25 23 23 23 23 23 22 20 20 21 21 21

GFSCGP_sfc_30mbdewp_024.txt.gz
Dewpoint
23 17 17 18 19 17 15 15 15 16 23 24 24 19 21 23 24 25 25 26 28 30 35 35 36 37 38 43 46 49 48 49 48 46 44 41 40 38 38 38 39 43 43 43
19 19 21 21 20 19 19 17 17 21 24 26 23 19 21 23 25 26 26 27 28 29 32 34 37 39 40 42 43 43 42 41 39 37 38 40 40 39 41 42 42 42 42 42
17 19 22 21 24 23 22 20 23 22 24 26 23 21 20 23 24 25 27 27 28 30 30 32 35 38 39 40 40 39 40 41 42 41 40 40 39 39 38 38 38 39 40 40
19 22 24 24 24 25 20 24 28 26 24 15 25 16 21 22 24 27 30 33 34 32 31 33 35 38 41 42 42 41 41 40 41 43 40 41 39 38 39 39 39 38 37 37
19 22 24 24 25 28 26 30 28 28 25 23 22 17 22 22 25 28 32 34 35 34 35 35 37 39 41 43 43 42 41 41 41 42 42 41 40 39 39 39 38 37 35 34
24 27 28 28 28 28 31 29 28 29 27 22 25 22 21 23 27 29 32 34 36 36 36 37 38 38 39 41 42 41 40 39 41 41 42 41 40 39 37 36 33 31 31 31
24 26 29 31 26 30 28 26 19 22 22 20 26 22 26 29 30 31 32 34 36 37 37 37 37 38 39 40 41 40 40 38 38 38 38 38 36 35 34 34 32 33 32 32
22 22 28 32 29 28 29 28 24 18 16 19 26 18 25 30 31 32 33 35 36 37 38 37 37 39 39 41 41 41 40 38 37 36 36 36 36 36 36 35 35 34 33 34
25 23 32 32 32 31 29 28 30 28 29 25 20 26 29 31 31 32 33 33 34 36 37 36 37 39 39 40 41 41 39 37 37 37 38 39 38 39 37 36 35 32 35 35
31 26 30 29 32 32 30 31 28 27 24 16 13 20 19 29 30 31 32 33 35 36 37 37 37 38 39 39 40 40 37 37 38 39 40 38 39 39 37 35 33 34 36 38
29 29 25 27 28 29 29 29 30 28 29 23 19 13 28 28 30 31 33 35 36 37 38 37 38 39 39 38 37 35 37 38 39 39 39 39 39 38 35 32 33 36 37 37
34 30 21 20 30 33 31 29 27 25 24 27 25 19 27 28 32 33 34 36 37 37 35 36 37 38 35 35 33 36 37 37 36 35 36 37 37 36 33 33 34 35 35 38
33 28 16 18 27 31 29 30 30 28 30 25 24 20 26 31 32 30 34 34 33 34 34 35 36 35 34 31 34 34 31 29 31 32 33 34 35 34 34 35 36 36 36 37
36 30 19 12 14 21 20 22 26 27 28 24 23 22 23 24 25 30 33 34 34 34 35 36 36 34 31 33 31 26 27 30 32 34 33 32 35 35 36 36 36 35 33 32
35 27 28 26 26 25 26 26 25 26 27 26 25 22 24 25 28 31 34 34 34 34 36 36 34 30 32 27 25 27 31 32 33 32 31 32 37 38 39 38 35 35 32 31
37 31 33 30 28 27 27 26 26 27 28 27 27 27 28 29 31 34 34 34 34 35 37 35 31 31 29 26 26 29 31 32 32 31 30 33 34 34 34 33 30 26 23 22
36 35 32 26 28 28 26 26 25 27 27 28 26 25 28 29 33 34 34 35 36 37 35 30 30 30 28 28 27 30 32 32 32 30 29 28 27 26 25 23 22 22 22 21
37 36 34 31 30 22 26 27 27 27 27 26 26 27 31 32 34 35 36 37 37 33 30 29 32 29 28 27 26 29 30 30 30 28 28 26 26 23 23 22 22 22 20 20
38 37 31 29 26 24 25 25 26 26 27 29 30 32 33 34 36 35 38 36 35 32 32 33 31 29 29 26 26 28 28 26 29 28 28 28 26 24 23 23 21 20 20 19
35 36 35 29 26 21 23 27 33 32 25 33 34 35 36 38 34 38 36 33 33 35 29 32 31 29 28 25 27 26 23 23 25 26 26 25 24 24 23 20 20 19 19 18
32 32 31 29 28 28 29 30 31 28 30 35 35 37 37 37 37 36 34 33 30 27 29 31 30 29 27 28 26 24 22 20 22 24 25 24 24 22 20 20 19 18 19 21
27 30 29 30 27 26 30 31 31 34 36 36 38 39 38 35 33 31 30 27 24 21 20 25 29 28 27 28 26 24 23 22 24 25 25 24 22 20 19 20 19 19 19 20
27 29 27 28 27 30 32 32 35 38 39 40 38 35 34 31 30 27 24 23 22 24 25 27 27 27 28 29 28 25 24 25 25 24 23 22 21 21 21 21 20 20 19 21
32 33 32 32 31 31 34 36 40 40 38 38 37 36 33 28 23 23 20 20 22 23 23 23 24 24 26 28 29 28 28 26 24 24 22 22 21 22 21 21 20 19 20 21
33 33 32 32 34 36 37 40 39 36 36 33 28 25 26 24 21 17 16 16 17 21 21 23 25 26 26 27 28 28 26 25 24 23 23 22 22 23 22 21 20 20 21 21
35 33 34 34 37 39 38 37 37 33 27 23 23 22 21 17 14 15 16 17 19 21 24 24 24 25 25 25 27 26 24 24 23 23 22 22 24 24 22 20 20 21 21 20

GFSCGP_sfc_30mbdewp_027.txt.gz
Dewpoint
21 18 14 15 15 13 9 8 10 13 18 18 19 17 20 23 22 24 24 25 27 32 38 39 40 41 40 44 45 48 50 51 49 46 44 41 40 40 39 39 42 44 44 44
14 16 20 18 16 14 15 15 15 18 20 20 20 17 21 23 25 25 26 27 29 31 34 37 39 41 41 42 42 43 43 43 41 39 40 41 42 41 42 42 42 41 42 42
15 19 20 19 19 18 19 18 21 20 21 21 21 18 20 22 24 26 26 28 29 30 32 35 39 41 42 42 41 41 41 42 43 42 40 40 39 39 39 39 41 41 42 41
18 21 21 20 21 23 19 23 24 23 21 16 21 14 20 21 24 28 31 33 32 31 33 35 38 40 42 43 42 41 41 41 41 43 41 43 42 41 41 42 41 41 40 37
19 20 22 22 24 26 24 28 26 25 23 19 19 13 20 21 24 28 31 33 35 36 36 37 37 40 42 43 43 43 40 41 42 43 43 43 42 40 38 38 37 36 33 33
21 25 26 26 27 27 28 28 25 26 23 20 17 18 20 21 24 29 32 34 35 36 36 37 38 38 40 42 43 42 41 40 40 41 41 40 39 38 35 35 34 33 34 33
23 24 28 30 25 28 26 24 21 21 21 20 24 20 24 28 29 30 32 34 35 36 37 36 37 38 40 41 42 42 40 40 39 39 38 38 37 36 35 35 35 36 34 32
20 24 26 28 27 26 26 25 25 19 18 17 22 14 25 29 31 32 32 34 35 35 36 36 36 38 39 40 41 42 41 38 37 37 38 38 38 37 38 38 38 36 33 32
23 23 29 29 30 29 27 27 28 25 30 23 15 24 29 29 30 31 32 32 34 34 35 35 36 38 38 38 38 40 40 37 37 38 38 39 40 38 38 38 36 34 33 33
27 25 28 26 29 31 26 29 26 27 24 17 10 14 16 29 29 31 31 32 34 35 35 36 36 36 37 38 37 38 36 36 37 38 38 37 37 36 36 36 33 32 34 39
24 25 24 22 25 21 24 26 27 25 24 22 17 14 24 25 26 28 30 32 33 35 36 35 35 36 37 36 36 34 36 36 34 31 30 31 33 34 34 32 32 34 36 36
29 26 21 17 25 29 27 26 25 23 21 24 26 22 25 24 28 29 29 32 35 35 34 34 35 36 36 34 33 33 33 27 26 26 27 29 32 32 31 33 35 35 35 36
31 27 20 18 26 30 26 25 26 25 28 22 20 21 24 27 29 31 31 32 33 33 33 34 35 36 35 33 32 29 24 25 27 28 29 30 30 33 35 35 36 34 35 35
35 26 21 18 17 19 19 20 20 21 24 25 23 21 22 23 25 27 27 30 32 33 33 34 35 35 34 31 29 24 23 26 29 29 29 28 32 36 36 39 38 38 36 34
33 29 25 25 22 20 20 21 22 21 21 23 23 23 24 26 27 28 29 32 32 32 33 35 36 34 31 29 26 25 25 27 29 29 28 28 33 34 36 36 35 33 31 25
34 31 32 28 24 20 19 21 22 22 23 24 24 23 27 28 27 28 31 31 32 34 36 37 33 30 30 26 26 24 24 27 29 28 27 28 29 28 28 28 26 24 24 24
34 35 31 28 30 28 27 27 21 22 24 24 24 26 26 27 30 32 35 35 37 39 36 31 30 31 30 27 26 23 24 24 26 27 25 27 27 27 27 26 25 24 22 19
39 35 36 32 30 22 21 23 24 23 24 25 25 26 28 30 35 36 38 37 37 36 32 30 33 31 27 27 26 23 23 22 23 23 25 25 27 27 25 22 21 19 17 18
36 37 33 31 25 22 23 26 26 26 26 27 29 31 31 33 35 34 37 37 35 32 32 33 31 28 28 26 25 24 23 20 20 21 23 24 26 22 21 20 18 18 18 18
35 38 35 31 28 21 22 25 30 29 25 32 34 33 34 35 34 36 36 35 32 33 32 26 25 25 25 26 25 25 23 21 19 19 20 23 22 21 20 18 17 18 17 16
33 34 32 30 28 27 26 30 31 27 31 36 36 39 39 37 37 37 34 33 33 27 23 20 20 23 24 25 24 23 23 21 19 20 23 24 22 21 19 17 18 17 16 19
30 32 30 32 28 26 30 30 32 35 37 40 39 38 37 37 35 33 32 26 24 21 20 20 21 20 20 21 21 21 23 21 22 25 24 24 22 20 18 18 18 17 17 20
26 29 29 31 30 30 31 34 39 40 39 39 37 37 37 34 30 25 23 21 17 15 14 15 16 17 18 19 19 19 24 28 30 26 25 24 23 19 18 18 17 17 18 20
31 30 32 33 31 30 33 38 40 39 38 38 37 35 30 24 25 22 16 13 12 12 13 14 16 17 18 18 17 18 22 29 30 25 25 25 22 20 20 19 17 18 20 22
33 32 31 33 33 35 40 40 39 37 36 34 28 24 24 23 19 16 13 12 12 12 12 13 16 17 17 18 18 19 20 27 26 27 29 25 21 20 24 22 20 20 21 22
35 32 33 34 39 40 39 39 37 34 29 25 23 23 21 18 15 14 15 16 15 15 16 16 16 18 19 20 21 23 29 27 28 30 29 22 23 24 24 22 20 22 23 21

GFSCGP_sfc_30mbdewp_030.txt.gz
Dewpoint
20 18 17 15 14 10 8 7 6 10 17 15 12 16 19 21 22 23 24 25 32 37 40 42 44 45 45 47 49 50 50 50 49 49 46 44 44 43 43 43 45 45 46 45
14 15 19 16 14 11 10 13 14 17 18 16 18 16 20 23 25 25 28 31 33 35 38 41 43 44 43 43 43 44 44 44 44 43 43 44 44 44 44 44 43 44 46 45
19 20 17 15 16 16 15 16 22 19 20 20 18 18 20 23 25 27 29 30 31 33 36 40 42 44 44 44 43 42 42 43 44 45 43 44 45 44 42 45 45 45 45 44
20 18 17 18 19 22 17 25 24 21 20 16 19 14 19 22 24 28 31 32 31 33 36 39 41 44 45 45 45 43 42 42 43 45 45 46 45 44 43 41 42 42 39 40
19 19 20 21 25 24 23 26 24 23 22 20 17 19 18 22 23 29 32 34 35 36 37 38 40 42 44 45 45 44 42 41 43 43 43 43 43 42 41 40 39 38 40 39
21 24 26 26 25 26 25 27 25 25 23 22 20 16 19 21 24 30 32 34 35 36 37 38 39 40 43 44 44 44 42 41 42 41 42 41 41 41 39 40 39 40 40 38
22 24 27 27 25 27 26 24 24 25 23 22 24 21 25 27 28 31 33 34 36 37 37 37 37 38 40 41 42 43 43 41 40 40 41 41 41 41 40 40 41 40 38 37
20 24 26 26 26 25 26 23 26 22 25 26 23 17 27 30 31 32 33 34 35 36 36 35 36 38 39 39 40 40 41 40 38 39 41 43 43 42 41 41 40 38 37 36
21 24 27 27 27 26 25 28 25 22 29 28 18 26 29 30 30 31 32 33 34 35 35 36 37 37 38 38 39 39 39 37 37 39 40 39 40 39 39 39 38 36 37 38
25 25 26 23 26 31 25 24 23 28 23 20 14 16 26 28 29 31 31 32 33 34 34 35 36 36 37 38 38 39 36 37 37 34 32 30 33 35 36 37 36 38 37 37
24 25 24 22 24 19 23 23 25 23 22 22 21 18 21 23 27 29 30 30 32 34 35 34 34 36 37 38 37 35 35 34 29 29 29 31 33 34 35 37 37 36 37 37
27 25 24 18 22 25 25 25 24 24 24 28 26 25 24 24 27 28 30 32 33 34 34 34 35 37 37 36 35 34 31 26 27 28 30 31 33 33 35 35 36 38 36 35
31 27 23 22 26 29 21 21 21 24 28 26 24 20 23 26 33 32 31 33 34 35 33 34 35 36 37 35 33 30 27 25 27 29 30 30 31 34 37 38 38 39 39 38
36 27 22 20 18 19 17 17 18 19 23 25 25 24 24 25 30 30 29 31 32 32 34 35 36 37 35 33 32 28 27 27 27 28 29 30 34 33 36 36 37 37 38 37
34 29 26 25 21 20 17 16 16 17 21 21 23 21 24 28 28 28 34 34 34 35 37 38 36 34 32 32 31 28 27 26 27 28 29 29 31 31 32 32 33 31 29 28
33 32 34 28 22 21 19 18 22 20 21 20 23 23 27 28 33 34 35 36 35 39 40 38 33 32 32 32 30 27 27 25 26 26 28 28 28 30 30 30 30 29 27 27
34 36 33 28 31 29 27 28 22 21 23 24 24 25 26 31 34 35 35 37 37 37 36 34 33 33 33 33 27 27 27 25 25 24 25 26 26 29 29 29 27 25 25 22
38 36 37 28 31 19 21 23 24 23 24 26 25 26 32 32 34 36 37 37 37 35 34 33 32 33 34 28 27 27 27 25 25 23 21 22 25 25 27 27 24 23 21 21
36 38 33 30 27 24 24 26 28 28 27 28 32 34 35 37 36 35 38 37 36 35 34 33 32 29 24 24 26 27 26 25 24 24 22 22 23 25 25 24 23 21 20 21
35 40 36 30 26 22 24 25 30 29 25 37 37 38 38 37 34 35 37 37 35 34 30 25 24 21 22 22 22 22 22 22 23 25 27 30 28 25 25 24 20 20 20 19
33 33 31 30 27 29 28 29 30 25 32 40 39 38 38 36 37 37 36 34 31 26 22 19 17 17 17 18 19 19 18 18 27 31 31 29 27 27 25 21 20 20 20 24
29 31 30 31 28 25 31 33 33 37 39 40 39 38 36 36 35 33 29 24 22 17 15 13 13 14 16 17 17 17 16 18 25 29 30 32 31 27 25 20 21 21 20 23
26 33 33 33 31 33 35 39 41 41 39 38 37 35 36 32 25 25 22 18 16 14 12 13 12 13 15 17 18 17 18 22 27 32 34 32 29 28 25 21 20 20 21 23
27 28 30 32 32 31 38 40 39 39 39 38 36 34 27 25 24 21 17 15 15 15 15 15 15 15 17 18 19 19 22 24 29 30 32 31 30 29 23 24 23 21 22 23
35 33 31 31 32 33 40 40 39 38 36 33 28 24 24 22 19 16 16 15 15 15 16 16 17 18 18 19 21 22 25 29 29 32 31 31 29 26 25 24 23 22 24 22
36 31 33 34 39 39 40 39 39 37 31 26 24 23 20 16 15 16 16 15 15 17 19 19 20 21 22 22 23 23 29 30 30 30 31 31 30 26 25 24 24 24 23 24

GFSCGP_sfc_30mbdewp_033.txt.gz
Dewpoint
22 21 19 14 13 10 10 12 12 16 17 14 14 18 21 23 25 33 36 37 39 41 43 45 45 46 46 47 46 45 44 46 47 45 43 44 42 43 44 46 45 44 47 47
22 19 17 15 14 13 12 16 20 18 19 15 15 19 23 25 28 32 34 36 38 41 43 45 45 46 46 44 44 44 43 44 44 45 44 45 45 44 45 46 46 46 44 44
20 17 15 16 21 20 23 22 21 20 20 21 19 19 23 26 28 30 32 35 38 41 42 43 44 44 44 43 42 43 43 43 45 45 46 46 46 45 43 42 43 40 41 40
20 19 19 19 23 23 24 28 25 22 21 19 21 15 22 24 26 30 32 33 37 40 42 43 44 44 44 44 43 43 42 42 44 44 44 43 43 42 42 41 41 41 41 40
19 20 25 25 24 24 24 25 25 25 24 23 22 18 20 24 30 32 34 35 37 38 40 42 43 44 44 44 43 43 43 43 43 44 43 42 42 41 41 40 40 41 41 38
22 27 27 26 26 26 26 26 27 27 26 22 27 24 20 23 30 33 34 35 36 37 38 41 43 44 44 45 44 43 42 42 41 42 43 42 42 41 40 40 41 40 39 38
22 25 28 26 26 27 27 25 25 23 26 23 31 29 32 31 32 33 34 36 36 37 38 38 39 41 42 42 42 42 41 39 39 41 42 42 41 41 40 41 39 38 37 39
24 23 26 27 26 25 27 26 26 21 22 25 24 26 29 31 34 35 36 36 37 37 36 37 38 39 38 39 39 39 39 38 40 42 40 39 39 39 40 40 38 37 38 40
27 24 27 26 26 27 22 27 25 22 30 27 25 28 30 31 32 33 34 34 35 36 35 37 37 37 38 38 39 39 37 38 36 32 30 31 34 34 34 38 38 38 38 38
25 24 24 23 25 31 28 24 22 29 22 21 21 26 29 30 30 31 32 34 35 35 35 37 36 37 38 38 38 36 37 33 29 29 30 31 32 33 37 37 36 36 36 37
28 28 24 21 22 23 25 25 25 25 25 21 21 20 27 30 32 30 33 34 35 35 35 35 36 38 37 37 36 35 28 27 27 28 29 31 32 35 36 37 37 38 38 36
27 26 22 22 25 27 25 25 26 23 23 27 26 23 29 33 34 34 33 33 35 36 36 36 36 37 37 35 34 28 26 26 27 28 30 30 31 36 37 37 38 38 38 38
29 25 23 24 27 29 21 21 20 26 28 23 22 21 27 32 32 34 34 31 35 36 36 37 37 35 34 34 31 28 27 27 26 28 29 30 32 34 35 37 37 37 37 37
36 27 23 21 21 20 17 18 17 19 23 24 25 25 26 33 35 35 36 35 38 39 39 39 37 34 33 33 33 29 28 26 26 28 28 29 33 32 33 35 36 36 36 35
34 29 30 29 24 22 20 19 19 17 18 19 21 24 28 32 35 36 37 36 39 39 38 36 34 33 33 33 33 33 28 27 26 25 26 28 32 32 32 31 32 31 30 29
34 33 31 23 30 26 20 22 25 23 22 24 25 25 33 35 35 36 37 37 37 37 35 34 33 33 33 34 33 29 27 27 28 26 26 26 30 30 31 30 29 29 28 27
37 34 31 19 30 27 26 25 22 23 25 25 24 30 34 35 35 36 37 37 36 35 35 34 33 33 33 33 34 31 27 28 28 28 27 26 29 30 30 29 29 27 26 22
35 35 34 21 29 7 26 26 29 28 29 31 35 36 37 36 37 37 37 36 36 36 35 34 33 33 33 33 32 27 25 27 29 27 27 28 29 29 30 32 28 25 20 20
38 34 27 22 27 25 25 27 28 28 32 37 37 37 38 37 36 38 37 37 36 35 35 34 34 33 29 21 19 20 20 19 21 29 31 32 33 33 34 31 27 21 19 20
39 36 29 28 18 12 25 30 30 29 26 38 38 37 37 34 29 32 37 36 35 34 34 33 19 15 16 18 18 19 18 17 22 25 33 34 35 35 34 33 27 20 21 26
34 33 29 29 25 26 31 30 30 25 27 39 39 38 36 32 35 36 35 34 34 31 17 14 13 13 15 16 17 17 17 18 27 29 32 34 34 33 33 26 20 21 24 26
25 26 28 29 26 22 33 34 28 35 40 38 37 37 35 35 34 34 32 25 20 16 14 15 14 15 16 16 17 18 18 24 28 29 31 35 35 33 27 23 21 22 24 24
27 29 29 29 27 31 36 37 41 41 38 38 36 36 35 34 27 26 23 17 16 16 16 17 16 17 18 19 20 20 23 26 29 31 32 32 32 31 27 22 22 22 23 22
29 35 32 33 33 37 40 39 39 39 38 38 36 35 34 26 26 19 17 16 15 15 17 18 19 20 21 22 23 23 25 30 30 32 32 31 30 29 27 25 23 22 22 22
31 35 33 32 36 39 40 39 39 39 38 35 33 30 25 19 17 17 16 16 17 20 20 21 21 23 24 24 25 26 28 30 29 29 28 29 30 28 25 24 23 23 23 22
38 34 32 30 37 38 39 39 39 37 32 32 26 24 19 17 16 16 16 19 21 22 22 22 24 25 25 27 27 30 32 31 30 29 27 27 28 27 25 25 24 25 24 24

GFSCGP_sfc_30mbdewp_036.txt.gz
Dewpoint
25 20 18 14 16 14 12 14 16 16 16 14 16 19 22 33 36 39 40 41 42 43 45 46 47 48 48 48 46 48 48 49 49 48 46 45 44 44 46 46 46 46 44 43
22 18 17 17 22 22 18 17 17 18 20 14 19 22 26 32 35 38 40 41 42 43 44 44 45 46 46 47 47 44 44 44 45 45 46 46 46 45 43 43 42 41 40 39
20 18 15 23 23 24 26 23 22 20 22 21 20 22 27 30 34 37 39 41 42 42 43 44 44 44 44 43 43 43 43 44 44 44 44 44 45 44 42 41 41 41 39 38
18 20 23 24 22 24 25 26 24 22 20 11 21 17 24 28 31 35 38 40 42 42 43 43 43 43 43 42 43 43 43 43 44 44 43 42 42 40 41 41 41 41 39 38
20 26 26 24 24 24 24 25 23 24 23 24 23 20 21 31 31 34 36 39 41 42 43 43 43 43 43 43 43 42 42 42 42 43 43 42 41 42 42 42 41 40 39 39
24 28 26 26 26 25 27 27 29 28 27 22 27 26 21 29 32 34 36 38 40 41 42 43 43 44 44 44 43 43 39 39 41 42 42 42 41 41 40 41 40 39 39 41
24 27 28 27 27 27 27 27 23 23 25 23 30 29 30 32 33 35 36 37 38 39 40 42 43 43 44 43 42 40 39 39 42 42 41 41 40 40 40 41 38 37 37 40
23 24 26 27 26 24 26 28 24 19 19 19 28 28 30 34 36 36 36 37 37 37 38 40 41 42 40 39 39 40 39 40 40 35 32 34 36 36 37 38 38 38 39 40
25 23 28 24 26 27 23 26 25 24 28 24 26 29 30 34 34 35 38 39 41 38 36 38 40 38 38 39 39 38 38 33 30 30 31 32 33 34 37 37 37 37 37 38
27 24 26 24 26 28 26 25 24 26 19 18 22 27 29 31 33 34 34 36 36 37 36 38 38 38 38 38 37 34 29 28 28 29 30 32 33 37 37 37 36 36 37 37
28 27 23 26 22 23 24 25 25 26 26 20 21 20 31 31 32 33 35 36 37 36 36 37 38 37 36 36 30 27 27 27 27 28 30 31 32 36 37 37 37 37 37 36
29 25 21 22 25 27 26 26 26 19 19 27 25 21 33 32 32 33 33 36 36 37 36 36 35 34 34 34 28 27 26 26 26 27 29 30 31 36 36 37 37 36 34 36
30 25 20 23 27 29 23 24 25 29 27 21 18 19 29 33 34 35 36 37 38 38 38 37 35 33 33 34 33 29 28 26 26 28 28 27 29 34 35 36 36 35 35 35
36 28 22 19 22 22 17 18 19 22 21 22 24 23 28 34 35 36 38 39 39 38 37 36 34 34 33 34 34 34 32 28 27 27 27 27 28 33 33 35 36 35 36 35
33 27 30 28 26 24 21 20 19 17 18 17 22 27 32 35 35 36 38 38 37 36 35 34 34 33 33 33 34 34 32 29 29 28 27 27 28 32 33 34 33 34 32 31
36 30 29 21 31 27 21 20 26 25 22 24 29 32 35 36 37 37 37 37 36 35 35 34 34 32 31 32 33 34 33 30 29 29 28 30 29 31 31 32 33 32 30 32
35 32 24 5 29 24 17 25 22 24 27 26 24 31 35 35 36 36 36 36 35 35 35 34 32 32 33 33 32 23 23 24 24 26 30 30 29 31 32 32 34 35 34 28
34 33 29 16 22 4 23 28 27 31 34 34 35 36 36 36 37 37 36 35 34 34 32 32 33 33 28 27 21 20 20 19 20 28 31 32 32 32 33 34 34 32 30 26
36 31 25 16 20 18 25 28 28 26 30 37 37 37 37 36 37 37 37 36 34 33 33 34 32 26 21 17 18 18 18 19 26 29 31 31 34 34 35 35 34 33 33 24
36 31 22 27 12 5 19 30 30 29 25 38 38 37 35 34 30 31 35 35 32 33 33 24 19 15 15 16 17 18 18 21 26 28 29 32 34 34 35 34 34 32 23 26
34 32 29 25 20 22 26 31 30 25 21 39 38 37 35 32 32 34 35 32 32 23 15 16 16 16 16 18 19 19 19 23 27 28 30 34 35 34 34 33 26 24 26 25
27 25 26 28 26 16 31 33 27 28 39 39 38 37 35 35 34 32 32 23 16 15 16 17 17 18 19 21 22 22 21 24 28 31 32 32 32 32 32 24 24 25 25 23
24 24 24 27 23 28 35 32 39 40 38 37 37 36 35 33 31 27 18 16 15 16 18 19 20 20 22 23 24 24 24 26 29 32 32 31 31 30 29 23 22 23 23 21
30 34 31 31 31 34 38 39 40 39 38 37 37 36 34 29 25 18 16 16 17 19 20 21 21 23 24 26 26 27 28 30 30 31 29 28 29 29 26 24 23 22 21 21
27 35 33 33 38 39 39 39 39 38 38 36 35 33 30 20 17 16 16 18 21 21 22 22 23 25 26 26 25 28 32 33 33 32 30 26 29 30 28 25 22 23 23 22
36 31 31 30 35 35 36 39 39 37 36 32 30 26 18 17 16 17 19 22 23 23 23 24 25 26 26 25 26 28 32 33 31 30 29 27 27 27 25 25 25 24 25 25

GFSCGP_sfc_30mbdewp_039.txt.gz
Dewpoint
25 18 18 14 16 16 16 13 15 16 16 14 17 21 29 37 39 40 42 43 44 45 46 47 48 48 51 52 54 54 54 52 50 48 46 45 44 45 43 42 42 41 40 39
22 19 18 23 23 19 19 16 16 20 22 17 21 25 31 35 39 41 42 42 43 44 44 45 47 48 48 49 48 46 46 46 46 45 46 46 44 42 41 41 40 39 38 37
19 19 22 23 25 22 25 20 20 19 21 21 23 24 30 35 38 40 42 42 42 42 44 45 45 46 46 44 43 43 43 43 44 44 44 45 44 43 41 40 40 40 38 38
18 25 24 22 22 26 23 26 23 22 19 12 21 19 28 32 35 39 41 41 42 43 44 44 43 43 42 43 43 43 43 43 43 43 42 41 40 39 41 41 41 40 39 39
20 25 24 23 24 24 24 25 23 24 22 23 25 19 23 32 33 36 39 41 42 43 42 42 42 42 42 43 42 43 43 43 43 43 43 41 41 42 42 42 41 40 39 42
25 28 26 26 26 26 27 27 30 30 27 22 27 27 22 30 32 35 38 40 42 42 43 43 43 43 43 44 41 40 40 41 43 42 42 41 41 40 39 40 40 39 39 41
26 27 28 28 26 27 28 27 23 23 23 22 29 28 29 31 33 36 38 40 41 42 42 42 43 43 44 43 42 39 39 41 41 40 39 39 38 38 38 38 38 38 37 40
23 23 26 26 26 25 27 28 21 19 20 19 28 27 29 34 36 37 38 38 38 39 41 42 43 43 43 42 40 39 41 40 35 31 32 34 34 34 35 37 38 38 38 38
24 23 28 25 28 26 24 24 26 27 27 23 27 29 32 35 35 36 36 37 38 39 40 38 40 39 39 39 39 39 36 31 30 31 31 32 33 34 35 37 37 37 37 38
29 24 26 24 26 26 22 26 24 24 15 15 22 27 28 33 34 36 37 38 39 38 37 38 38 37 37 37 37 34 30 28 28 29 30 31 32 36 37 37 36 36 36 37
29 24 22 26 22 23 24 23 26 27 25 19 19 21 27 32 33 34 35 37 35 37 37 36 35 35 35 35 29 28 27 27 26 28 30 31 31 35 37 36 36 37 37 36
30 25 21 21 26 28 26 26 24 11 18 27 24 20 33 33 34 35 36 36 36 36 36 35 34 34 34 34 29 28 27 27 27 27 28 29 31 32 35 36 37 37 36 34
29 23 19 21 26 27 24 23 29 27 25 20 15 16 32 34 35 36 36 37 38 38 36 35 34 34 33 34 34 34 32 31 27 27 28 29 28 29 32 35 36 37 35 35
33 29 20 13 21 23 17 18 24 23 20 22 22 22 32 34 35 37 38 38 37 36 35 35 34 33 33 33 34 34 34 32 30 30 29 28 28 29 31 33 35 36 35 36
30 26 29 27 26 23 20 19 19 17 18 16 16 23 29 35 36 37 39 38 36 35 34 34 33 32 32 32 33 32 28 27 27 25 28 29 30 30 31 33 33 34 35 34
35 28 27 25 30 27 21 21 21 23 21 21 27 30 35 36 37 37 37 36 34 34 34 33 33 32 32 32 30 25 23 22 23 23 29 30 29 30 31 32 33 33 35 35
32 29 23 12 28 20 14 19 23 23 26 25 27 29 35 35 36 36 36 34 32 33 33 33 33 32 29 27 23 18 19 20 20 26 30 31 31 30 30 31 34 34 33 33
32 29 24 11 18 3 12 26 26 24 31 32 32 34 35 35 36 37 36 33 32 32 32 32 31 25 24 18 16 18 18 19 21 28 31 31 31 32 33 33 34 31 31 30
34 29 22 15 13 14 18 29 29 26 26 35 34 36 36 37 37 36 37 36 33 33 33 31 28 20 16 16 17 18 19 20 26 27 28 28 31 33 34 34 34 34 34 32
31 27 19 24 10 2 10 30 31 28 23 36 36 36 36 36 32 31 37 35 33 31 24 16 15 16 17 18 20 22 21 21 23 26 27 30 34 34 33 34 34 33 25 26
34 32 28 23 16 18 21 30 29 23 13 38 38 37 36 33 32 32 34 33 27 16 16 17 18 19 19 21 23 23 23 23 24 28 30 32 33 32 32 32 25 26 26 26
27 26 27 26 23 15 28 30 27 27 35 38 38 37 35 34 35 34 32 18 15 16 17 19 19 20 22 24 25 25 25 26 27 29 32 32 31 31 31 29 24 27 27 23
25 24 22 25 20 28 33 32 37 37 37 39 38 37 36 35 32 30 17 16 16 18 19 21 21 22 24 26 26 25 26 29 30 31 31 32 29 29 28 23 23 23 23 22
31 31 27 28 28 30 33 39 40 39 38 38 37 37 35 32 28 18 16 16 18 20 21 21 22 23 24 26 26 25 28 32 32 31 31 31 28 29 29 29 27 23 22 21
29 34 32 32 34 39 39 39 39 38 38 37 37 35 33 25 18 16 16 18 21 22 21 23 24 24 25 27 25 27 28 32 30 29 30 30 28 30 28 26 23 23 23 22
33 31 29 25 32 34 34 39 38 37 37 36 33 28 22 19 17 17 19 22 23 22 22 23 25 25 27 26 26 28 28 28 31 29 29 29 28 28 26 24 23 24 24 25

GFSCGP_sfc_30mbdewp_042.txt.gz
Dewpoint
24 18 15 15 16 15 15 13 12 16 17 16 22 28 34 38 40 41 43 44 45 45 46 48 50 52 54 55 57 58 58 57 54 52 47 45 42 43 41 41 40 39 39 39
22 16 18 25 20 19 17 16 16 20 20 17 26 30 34 37 40 42 43 44 44 44 45 46 47 48 49 51 52 53 51 50 48 46 45 43 42 41 41 40 39 38 38 38
19 19 22 24 24 21 24 19 20 19 20 23 24 24 32 37 40 42 42 43 43 44 44 45 45 47 48 45 43 44 44 44 44 45 45 45 43 42 40 40 39 39 39 39
20 26 22 22 23 25 21 26 23 21 17 15 22 16 28 35 38 40 41 42 42 43 45 45 45 42 42 42 43 43 43 42 43 43 41 40 39 39 40 41 40 39 39 41
22 24 24 23 23 24 24 26 25 24 22 22 25 19 23 34 36 38 40 41 42 43 43 42 42 42 42 43 43 43 43 43 43 43 42 41 41 42 42 42 41 40 40 42
26 28 26 26 27 26 27 28 29 29 26 22 28 27 23 30 32 36 39 41 42 42 42 42 42 43 43 43 42 42 41 42 42 42 42 41 41 40 39 40 40 39 39 40
26 26 27 28 26 27 28 25 22 22 22 21 28 27 26 30 34 37 38 40 41 42 42 42 43 43 44 43 40 39 41 41 41 40 39 39 38 36 34 35 35 36 37 38
23 21 25 26 25 25 28 26 22 20 21 21 28 26 28 35 35 37 39 40 41 41 42 42 43 44 44 42 40 39 41 38 33 32 32 33 32 31 33 35 37 37 37 38
24 23 27 26 29 26 27 24 26 26 27 22 25 28 32 35 36 37 38 39 40 40 40 40 41 41 39 39 39 40 36 31 30 30 31 31 31 32 34 36 37 36 37 37
28 24 25 23 26 27 22 28 24 23 12 7 21 24 26 33 34 36 37 37 38 40 38 39 38 38 38 37 36 31 30 28 28 29 30 31 31 33 35 36 35 36 36 36
29 23 22 25 22 24 25 24 26 27 24 14 14 18 28 33 35 35 36 37 37 37 36 35 34 35 33 29 28 28 27 27 26 27 28 30 31 32 36 36 36 36 36 36
29 24 21 21 25 29 26 25 22 9 16 26 23 19 33 33 34 35 36 36 36 35 35 34 34 34 33 34 34 31 30 32 31 28 28 28 30 30 31 33 35 37 37 37
27 23 19 21 22 26 25 25 27 24 24 19 14 10 33 35 35 36 36 36 37 36 35 34 34 32 33 34 34 34 34 33 31 29 29 28 29 29 29 30 32 35 36 36
30 26 20 15 16 23 19 19 26 22 19 19 19 17 29 33 34 36 37 37 36 35 34 34 32 32 32 32 33 32 27 26 25 24 25 28 29 28 29 31 31 33 34 35
28 23 27 27 26 24 19 18 20 20 19 15 15 20 23 32 35 37 38 37 35 34 33 33 32 32 32 31 29 26 24 23 24 23 26 29 30 29 29 29 30 33 34 34
33 26 26 25 29 27 22 21 20 20 19 20 21 20 33 35 37 38 38 36 34 32 32 32 32 32 29 27 25 20 19 19 22 22 28 30 30 29 29 30 31 33 34 34
29 28 25 18 25 17 14 19 20 23 24 22 20 23 35 35 36 37 36 35 33 32 32 32 32 29 27 22 20 17 19 20 21 23 27 31 30 30 31 33 33 33 31 31
29 25 19 9 14 -2 8 22 26 23 26 28 29 30 34 35 36 37 36 34 31 32 32 32 30 24 21 17 18 19 20 20 20 24 27 30 29 30 32 33 33 32 32 33
31 25 19 10 11 10 10 26 27 25 22 32 30 34 35 36 36 36 36 34 31 31 33 30 27 19 16 18 20 21 22 22 22 24 26 28 29 32 32 32 32 34 33 32
29 25 19 20 6 -3 8 28 31 27 22 31 34 34 35 36 32 33 37 35 34 33 27 17 16 17 19 20 22 23 24 24 24 25 27 29 32 32 31 31 33 32 27 25
33 30 26 20 14 15 19 30 29 21 15 34 36 36 36 34 34 33 37 34 30 18 15 17 19 19 21 23 25 25 24 24 27 29 28 31 32 31 31 31 29 25 25 27
25 25 25 24 22 13 25 30 25 26 31 34 37 37 36 34 33 34 33 23 16 16 18 19 20 20 23 25 26 24 23 26 30 31 32 32 32 32 30 28 27 26 29 25
24 25 22 25 20 26 29 31 35 35 34 37 37 37 37 35 35 32 24 16 16 18 19 21 21 22 24 26 26 24 25 28 30 31 29 29 31 31 28 24 24 25 25 24
31 30 26 27 25 29 30 34 38 39 37 38 38 37 37 35 32 24 17 16 18 20 21 21 22 23 23 26 27 26 26 29 31 28 28 28 31 28 30 29 28 26 23 21
30 32 29 30 31 35 36 38 37 39 38 38 37 37 35 30 24 20 16 18 20 22 21 22 23 24 24 27 27 27 28 27 26 29 29 29 29 28 27 27 25 26 25 23
32 28 26 22 28 30 30 37 39 38 37 37 35 32 26 27 19 17 18 21 22 22 22 23 25 26 27 27 27 28 26 25 26 27 28 28 28 27 26 24 23 23 24 24

GFSCGP_sfc_30mbdewp_045.txt.gz
Dewpoint
24 16 12 13 14 12 13 13 13 16 18 24 26 30 35 40 42 43 44 45 46 47 49 52 54 57 58 58 58 59 58 57 56 54 50 46 45 44 43 42 42 42 41 41
19 15 18 23 18 18 17 16 18 21 22 22 29 32 37 39 41 42 44 45 46 48 49 50 52 54 56 57 58 58 57 55 53 50 47 45 43 43 42 41 41 41 42 42
19 18 23 24 24 22 23 20 20 19 23 25 25 25 32 39 42 43 44 45 46 46 45 46 48 50 52 53 54 52 51 52 51 48 47 45 44 43 41 41 40 41 42 42
23 26 23 24 25 24 22 25 22 20 16 17 22 14 26 36 40 42 43 43 44 44 45 45 45 44 45 45 46 45 45 45 46 46 45 44 41 40 42 42 41 40 42 43
23 24 23 23 23 24 25 26 25 24 23 21 26 18 22 36 38 40 41 42 43 44 44 43 42 42 43 45 45 45 45 45 45 45 45 43 43 43 43 43 43 42 42 42
26 28 27 26 28 27 31 29 29 29 27 20 26 26 25 30 34 39 40 41 42 43 43 42 42 43 43 45 45 44 44 43 44 44 44 44 43 41 39 39 39 39 40 41
26 27 27 28 27 28 28 25 18 18 21 18 28 27 27 31 33 39 39 40 42 42 42 42 42 42 43 43 42 42 43 42 42 41 40 39 38 35 32 33 32 34 36 38
22 19 25 26 26 25 28 25 21 15 21 23 27 26 27 34 36 37 39 40 41 42 43 43 43 44 44 44 41 42 42 38 35 35 35 35 34 32 32 34 34 35 36 36
23 22 26 26 30 27 28 25 27 25 27 22 22 28 30 35 36 37 38 40 41 42 42 43 44 44 43 42 42 43 37 34 33 33 34 33 34 35 35 36 38 38 38 38
27 22 25 24 27 28 26 29 24 24 12 6 17 23 23 32 34 37 38 39 40 40 40 40 40 40 39 39 37 35 32 30 30 31 32 32 33 34 35 37 38 38 38 37
27 24 22 25 22 25 26 25 27 27 23 7 6 11 29 31 35 36 38 39 40 39 38 36 36 35 32 31 31 30 29 29 31 29 31 32 32 33 33 33 34 34 36 37
28 24 21 22 25 28 26 25 25 15 16 25 23 15 32 34 35 37 37 38 38 36 34 34 34 34 34 35 35 34 35 34 32 31 31 30 31 32 32 31 31 33 34 36
27 23 20 20 22 27 25 27 24 23 26 22 13 6 32 35 36 37 37 36 36 35 34 34 33 32 33 34 35 33 29 26 26 25 24 26 30 30 29 30 31 31 32 34
28 25 20 18 16 24 22 25 25 22 17 17 18 15 25 33 35 36 36 36 36 35 34 33 32 32 32 33 32 26 25 25 23 23 23 28 30 30 30 31 30 32 34 34
28 22 25 26 27 24 19 20 26 22 20 14 14 18 20 28 34 36 37 36 35 34 33 32 31 31 30 28 25 23 22 22 23 23 24 29 32 31 30 30 32 33 35 35
32 25 26 25 28 26 22 22 20 22 20 21 20 20 23 32 36 37 37 36 34 33 32 31 32 30 27 25 22 19 20 21 23 23 25 30 32 31 30 31 32 34 34 33
28 27 25 18 23 18 17 20 22 22 23 20 19 21 34 35 36 37 38 36 34 32 32 32 32 27 27 20 19 19 20 22 23 23 25 28 31 30 30 31 32 32 32 33
26 23 19 12 13 -0 10 24 23 22 24 25 27 29 34 35 37 38 38 36 34 32 32 32 29 25 20 19 20 22 23 23 23 24 24 26 29 29 31 32 31 32 33 34
28 23 17 10 9 10 7 18 23 24 16 27 27 32 35 36 37 37 37 36 33 33 33 31 24 19 18 20 22 23 23 24 23 23 26 27 29 30 31 30 30 31 32 31
28 25 20 19 6 1 5 24 32 28 19 28 32 33 35 36 33 34 37 35 32 33 31 22 17 19 21 22 24 24 23 23 23 27 29 29 31 32 30 30 29 30 26 25
31 30 26 20 16 16 18 27 29 17 11 32 34 35 36 34 35 35 37 35 34 25 16 18 20 20 21 24 25 24 23 22 26 28 29 31 32 32 32 29 28 27 27 28
24 24 25 23 22 13 24 30 24 26 29 33 36 36 36 35 34 36 34 26 18 17 19 20 20 20 23 25 26 25 24 24 28 30 29 28 26 26 30 29 25 25 30 29
23 26 22 24 19 25 26 31 34 34 32 34 36 37 37 35 34 32 24 18 17 18 20 21 20 22 23 24 26 26 26 27 28 28 28 27 26 28 29 27 27 27 26 27
31 30 27 26 25 28 29 31 35 38 37 37 38 38 37 36 33 25 18 18 19 20 21 21 21 22 23 25 27 27 27 28 27 26 27 28 27 27 28 28 27 26 25 24
29 31 29 29 29 31 32 36 36 37 39 38 38 37 36 32 23 21 22 19 20 22 21 22 23 24 24 27 27 27 28 27 24 25 25 26 28 28 27 26 24 23 24 25
32 29 26 23 28 28 30 37 38 38 38 37 34 29 28 28 28 24 21 21 22 23 22 23 25 26 26 27 27 26 26 24 24 26 26 27 28 28 27 25 23 24 26 24

GFSCGP_sfc_30mbdewp_048.txt.gz
Dewpoint
25 19 12 11 12 12 14 10 8 12 19 18 16 25 29 41 44 44 45 45 46 47 50 53 55 55 56 57 58 59 58 58 59 58 54 50 46 45 44 42 44 43 43 44
22 16 20 20 18 16 15 14 16 20 19 22 25 28 32 38 42 44 45 46 47 49 51 53 55 56 56 57 58 58 57 57 57 55 49 46 45 42 41 42 44 43 44 44
16 21 25 21 20 19 20 18 19 16 21 24 24 25 31 37 41 43 44 45 47 48 50 52 54 55 56 57 57 55 56 56 53 48 47 46 45 42 41 42 41 43 44 44
23 25 24 22 22 23 18 23 21 19 17 13 23 10 25 34 37 40 43 45 46 46 47 46 44 45 48 50 50 49 51 49 49 47 44 41 39 39 42 42 42 42 44 43
23 23 23 21 24 25 24 25 22 21 19 19 20 15 22 33 34 38 42 44 46 46 46 39 39 41 42 45 46 45 44 44 46 46 44 43 42 43 42 42 41 41 40 40
25 28 26 26 28 27 29 27 27 26 23 16 18 20 8 24 29 37 42 44 45 45 42 39 40 41 43 46 47 46 44 44 45 45 45 44 43 39 35 33 32 31 31 31
24 26 27 28 26 30 28 23 14 15 15 11 27 23 14 29 31 36 40 42 43 40 40 40 40 41 42 44 45 45 43 43 44 43 41 38 36 34 32 32 30 29 27 28
18 19 24 27 26 23 24 21 14 6 11 15 27 20 25 33 34 36 40 41 39 39 40 40 41 42 43 44 44 43 42 41 39 38 35 35 33 32 32 31 32 31 30 31
20 20 26 28 29 27 27 22 28 25 28 23 17 24 29 33 34 35 39 38 38 39 41 41 42 43 44 44 44 44 41 37 35 34 34 33 34 33 33 33 34 34 36 34
27 22 25 27 28 29 28 28 22 23 17 9 8 14 12 30 33 34 37 36 38 40 41 42 43 45 44 44 43 41 36 32 31 32 33 31 32 32 33 34 33 32 32 31
28 24 25 25 23 22 27 25 25 23 22 7 3 3 27 28 32 33 35 37 38 41 41 42 41 42 41 39 37 34 31 31 33 31 32 33 31 28 27 27 26 26 26 24
30 28 25 23 26 28 26 24 24 16 17 25 22 9 26 33 34 36 36 38 40 41 39 39 38 35 34 34 33 34 35 33 34 33 26 24 25 25 24 23 24 25 24 25
29 26 24 23 24 28 25 26 24 24 26 20 21 6 27 33 34 36 37 39 39 38 37 36 36 35 35 35 34 33 31 28 23 20 21 21 22 22 22 23 24 25 26 28
28 28 24 20 19 24 23 25 23 19 18 12 14 5 20 29 32 35 37 38 38 37 36 35 34 33 32 32 29 28 25 22 20 20 19 17 21 24 24 25 26 27 28 29
32 26 25 25 25 24 22 22 24 20 17 17 10 10 7 19 27 32 37 38 37 36 35 34 33 31 30 28 25 22 20 20 21 19 17 18 24 25 25 26 27 28 30 30
33 28 28 27 28 26 23 22 21 23 21 20 17 17 18 22 25 34 37 37 36 35 34 32 30 29 27 24 21 18 19 21 21 18 19 20 23 25 27 27 28 29 28 29
32 31 27 21 24 22 21 23 21 20 22 21 17 19 26 28 30 34 36 36 36 35 33 30 29 27 24 21 18 19 20 21 21 19 18 19 21 23 26 26 28 28 28 29
31 30 29 23 16 9 13 22 22 22 22 22 22 25 26 29 33 35 36 37 36 35 32 30 30 26 21 19 20 22 20 19 19 18 19 20 22 23 25 28 28 27 28 30
29 28 22 21 16 13 9 15 16 18 13 21 21 23 31 35 36 36 38 38 37 35 32 31 28 22 19 19 21 20 18 18 17 18 21 22 25 26 27 27 27 27 27 27
29 30 29 23 18 15 13 24 31 28 17 27 27 28 33 35 30 22 38 38 37 33 31 27 20 18 20 21 22 19 16 17 18 20 23 25 26 27 28 28 28 27 26 25
33 34 31 29 26 22 21 27 31 19 17 31 32 33 35 33 32 37 38 37 33 31 25 18 18 19 20 21 21 19 18 18 20 23 26 26 26 26 26 27 29 26 24 28
28 30 29 29 26 19 24 30 25 30 32 33 36 35 36 38 38 38 38 35 29 20 18 19 19 18 20 20 20 17 17 19 23 25 26 26 26 25 24 26 26 25 25 28
27 29 28 27 25 29 28 32 35 35 34 34 35 37 38 38 37 36 33 28 19 18 19 20 19 20 20 20 20 20 21 24 26 26 25 26 26 25 24 25 25 25 25 25
31 31 30 28 25 28 29 30 31 32 35 36 38 39 39 37 36 30 21 18 19 20 21 22 19 18 18 20 22 24 25 26 26 25 24 26 27 27 25 25 24 24 23 23
30 31 30 30 28 29 31 35 37 38 39 39 39 39 39 37 31 21 20 22 24 23 26 21 20 20 20 22 24 25 25 26 25 24 24 24 25 26 26 25 24 23 22 22
31 29 30 29 31 31 34 39 40 39 39 39 36 34 32 28 26 24 24 23 27 29 22 21 21 22 22 23 23 23 23 24 24 24 23 24 26 25 25 25 24 25 24 23

GFSCGP_sfc_30mbdewp_051.txt.gz
Dewpoint
25 22 19 17 12 12 9 6 6 7 9 9 10 19 24 33 35 38 40 42 43 44 47 50 51 52 51 53 56 60 59 58 59 58 55 53 51 50 46 44 44 44 44 44
22 21 21 15 12 11 13 12 9 11 12 16 15 19 25 36 37 38 39 41 43 46 49 52 54 55 55 56 57 59 58 58 57 52 52 51 48 44 41 43 45 45 45 45
21 23 22 16 13 13 13 14 16 14 16 15 18 20 27 32 35 39 40 41 44 47 49 52 53 55 56 57 57 57 55 55 52 48 47 46 43 43 41 43 43 45 44 44
29 29 17 15 13 16 15 21 16 16 17 12 18 11 24 30 35 38 41 42 44 46 49 50 51 53 54 53 51 49 49 49 47 45 42 42 38 39 43 43 43 43 44 41
18 19 17 15 20 22 24 22 18 15 13 20 17 9 23 30 31 35 40 42 44 45 46 44 45 46 47 48 48 48 47 45 46 45 43 43 42 43 43 42 42 40 40 38
28 26 23 24 25 24 26 23 21 19 16 14 12 14 15 25 25 32 37 40 43 45 43 39 39 41 44 46 46 45 44 44 45 45 46 45 44 42 39 36 36 34 31 30
21 21 26 26 23 25 22 20 17 17 12 12 20 18 11 26 28 30 37 40 44 45 40 37 39 40 44 45 46 45 43 43 45 45 45 42 40 37 36 35 33 31 28 28
15 19 22 24 23 22 21 19 15 10 7 9 22 9 18 31 31 34 38 41 43 42 39 38 39 40 42 44 45 44 43 43 44 42 39 38 36 35 35 33 32 32 31 32
17 17 25 25 25 23 22 18 23 19 23 19 9 18 30 31 31 34 38 40 42 38 39 39 40 42 43 44 45 44 43 42 40 38 36 36 35 35 34 33 34 33 33 30
19 17 23 25 27 27 24 26 19 18 17 10 5 7 14 26 28 32 36 39 38 38 39 40 41 43 44 45 45 46 43 39 35 34 35 33 34 34 33 33 30 29 27 26
20 18 24 24 22 16 24 21 20 21 20 14 3 5 19 20 27 29 33 37 37 38 39 41 42 44 45 45 45 42 37 34 33 33 34 36 33 29 27 27 25 24 25 24
24 21 17 21 23 25 24 20 21 19 16 18 20 12 21 24 27 29 31 35 36 38 40 41 43 43 43 42 40 37 35 35 34 35 37 27 25 25 24 22 22 24 24 25
28 18 15 20 24 25 22 21 20 21 24 20 18 13 24 27 26 28 29 33 36 39 40 41 41 39 38 37 36 36 34 33 32 28 21 21 21 20 21 22 23 24 25 27
31 20 19 18 18 21 24 22 22 21 21 17 10 11 17 22 22 24 29 33 37 40 39 39 38 37 37 37 36 31 32 28 24 20 19 17 18 22 23 24 24 25 27 28
31 25 22 21 24 23 21 20 21 21 19 16 15 11 4 11 19 23 27 31 37 38 38 37 37 36 35 34 31 30 28 24 22 20 17 16 20 23 23 24 26 27 28 27
32 26 28 27 26 25 23 22 20 18 18 14 12 12 13 16 18 21 26 31 35 36 37 37 36 35 33 31 28 27 23 21 21 17 16 17 18 20 21 23 26 26 26 26
33 29 28 22 24 22 21 23 19 17 18 18 17 17 22 22 22 21 27 32 34 36 36 36 34 33 31 27 25 21 21 21 19 17 15 15 17 18 20 21 22 25 26 26
34 32 32 24 21 14 13 18 17 20 19 17 17 18 19 22 25 28 30 33 35 36 36 35 33 31 28 24 21 22 20 18 17 16 16 16 18 20 21 23 25 25 25 26
31 31 28 26 17 15 15 11 15 15 14 13 17 15 18 30 32 31 33 34 36 36 36 34 32 29 25 21 21 20 18 15 14 14 16 18 20 22 24 25 26 26 25 25
28 29 26 28 25 21 19 22 26 24 13 19 22 23 27 32 29 28 34 36 37 37 35 33 31 24 21 21 21 19 15 13 15 16 18 21 23 24 24 25 26 27 26 24
34 34 31 29 32 28 22 26 28 16 22 27 25 24 28 28 35 37 36 37 37 35 33 28 22 20 21 24 21 18 14 14 15 19 21 23 24 24 24 24 25 26 24 27
31 34 32 35 32 22 24 26 23 31 29 30 30 31 33 35 39 38 38 37 34 31 22 20 20 23 24 23 19 15 13 14 19 21 23 24 24 24 24 24 24 24 25 26
28 30 30 29 27 28 26 26 34 33 32 33 34 34 36 38 37 37 36 34 27 20 19 22 26 27 24 20 16 17 18 20 22 23 23 23 25 26 26 24 23 24 25 26
29 31 29 29 23 24 27 29 31 32 33 34 36 37 37 36 37 36 33 23 21 22 26 31 30 25 18 17 20 21 22 23 23 24 24 24 24 25 25 26 24 24 25 25
30 31 27 27 25 25 30 36 38 38 39 39 39 39 39 38 36 28 23 23 26 32 35 30 23 19 17 19 21 21 21 23 23 23 23 24 24 25 26 26 26 25 24 23
30 27 30 30 34 33 37 40 40 39 39 38 37 36 36 33 26 26 28 32 34 33 31 25 22 23 20 18 18 20 20 21 22 25 25 25 25 26 26 25 25 26 26 25

GFSCGP_sfc_30mbdewp_054.txt.gz
Dewpoint
26 24 22 22 21 17 16 15 16 17 15 14 12 18 24 27 32 38 37 38 39 40 44 48 48 49 48 53 60 60 59 58 59 58 56 54 52 52 49 47 47 46 46 46
25 25 24 24 21 18 11 13 7 8 7 9 10 16 18 25 27 35 38 39 41 42 47 49 52 52 52 58 60 60 59 58 58 58 57 54 52 49 46 47 46 47 46 45
29 33 33 26 13 10 17 22 21 14 10 11 15 12 21 26 29 33 36 40 43 45 48 51 53 55 57 59 60 58 58 58 58 54 52 52 50 46 44 46 46 46 45 44
30 30 29 24 15 16 23 25 22 19 20 10 22 18 28 25 30 33 37 38 41 45 48 51 54 56 57 57 58 58 58 57 53 47 47 45 43 43 45 46 47 46 45 42
26 27 25 17 16 23 23 20 26 14 11 21 21 23 27 27 27 33 36 39 42 45 47 50 55 55 57 57 57 54 50 49 47 46 46 45 45 46 46 45 43 41 42 42
22 29 28 24 20 21 27 27 22 18 18 21 23 24 23 25 27 32 36 40 43 45 47 47 49 50 50 51 51 50 47 46 46 46 46 45 46 43 41 40 38 38 36 34
23 20 22 25 19 22 23 19 18 27 26 15 13 20 24 31 35 36 36 40 43 44 44 43 44 44 47 47 47 46 45 45 46 47 47 46 42 39 37 37 37 35 34 34
19 19 21 22 19 30 30 15 25 19 20 19 25 14 22 28 29 34 37 39 43 45 42 40 41 43 46 47 47 46 44 45 46 46 43 42 38 39 38 36 35 36 35 36
23 22 31 23 19 28 22 19 24 17 17 19 16 10 30 29 29 32 37 40 43 44 41 39 40 43 45 46 47 46 45 45 45 42 41 38 38 37 35 36 36 36 35 30
30 29 31 24 24 23 21 19 20 17 14 15 9 9 21 27 27 31 36 39 43 43 40 39 40 42 44 45 46 47 46 42 39 38 38 37 35 35 37 34 33 31 29 29
28 34 24 24 22 13 23 21 17 14 20 18 17 14 26 23 27 29 33 38 42 40 40 40 40 43 44 46 47 47 44 38 36 37 35 36 38 35 29 29 28 26 27 27
20 21 19 22 21 21 21 21 19 22 18 20 21 19 20 22 27 28 29 36 39 39 39 40 42 44 45 46 46 45 40 37 36 35 37 38 38 28 27 26 25 26 26 28
25 23 19 18 21 24 22 18 18 19 24 22 23 18 23 23 24 26 27 33 36 38 39 40 42 44 44 44 43 41 37 36 36 35 36 31 24 23 23 24 26 27 27 28
33 24 19 18 16 22 22 21 18 19 24 24 23 18 17 23 22 22 25 27 35 36 38 41 42 42 41 41 39 38 36 35 33 32 22 21 19 22 26 27 27 28 29 29
30 21 17 16 18 20 23 22 19 18 20 21 23 17 13 14 22 22 24 28 31 36 39 40 40 40 39 38 38 35 34 31 27 22 20 19 22 23 25 26 28 29 29 29
32 28 28 27 26 24 24 22 21 20 19 17 18 16 16 18 19 19 21 25 28 35 38 39 38 38 38 37 35 32 30 27 24 21 18 18 19 20 22 25 26 27 28 28
31 32 31 28 26 23 20 22 22 19 18 18 17 19 19 19 22 23 23 22 29 33 36 37 37 37 37 35 32 29 25 24 21 19 17 17 18 20 22 23 24 26 28 29
34 34 34 29 23 17 18 19 16 17 16 14 14 15 17 22 25 26 27 29 32 33 36 37 37 36 34 30 26 24 21 20 19 16 16 17 19 21 22 24 26 28 29 28
33 35 33 27 22 19 19 16 15 15 16 18 19 19 22 30 29 27 29 32 34 35 37 37 35 33 29 24 23 22 20 20 15 17 17 18 21 22 24 25 27 28 28 29
28 34 29 29 28 18 22 22 22 21 15 20 20 22 25 28 27 32 33 34 34 37 37 35 33 30 25 23 23 22 22 19 16 17 20 21 23 24 25 26 26 27 27 27
33 34 32 31 29 30 26 25 25 18 25 27 27 23 25 28 38 37 36 36 37 36 34 32 26 23 23 24 24 25 22 16 15 18 21 22 23 24 25 26 26 26 26 28
34 35 33 36 33 28 26 24 22 32 31 31 29 33 36 40 39 37 37 37 34 26 23 22 22 24 25 26 26 21 17 18 21 23 23 24 24 25 25 27 27 26 26 27
27 32 35 34 33 31 24 29 35 32 31 32 35 35 35 36 38 37 37 30 23 22 21 23 28 28 28 25 22 21 23 21 22 23 23 24 24 25 25 25 26 27 26 25
29 32 32 31 25 27 26 29 34 35 36 37 38 37 37 36 38 37 28 24 22 24 31 32 32 30 25 22 21 23 22 23 22 23 24 25 25 25 25 26 26 27 27 27
32 31 29 27 27 26 36 38 39 39 40 39 38 38 39 38 35 28 23 26 32 35 34 31 28 27 24 22 23 24 20 21 22 22 24 25 26 27 26 25 26 26 28 28
31 30 31 33 36 36 39 40 40 39 38 37 35 31 29 28 26 28 31 33 33 33 34 30 25 25 25 21 18 18 19 20 23 26 27 27 28 28 25 25 26 28 27 27

GFSCGP_sfc_30mbdewp_057.txt.gz
Dewpoint
29 24 23 24 23 21 21 19 19 20 20 25 22 28 33 36 39 38 40 37 36 38 42 42 46 49 55 59 59 58 56 57 57 56 55 56 54 53 51 49 49 48 47 47
25 25 26 28 25 23 22 20 22 19 18 18 19 22 28 38 36 30 36 41 37 45 46 48 49 52 58 60 59 58 56 57 56 55 56 53 53 51 49 48 48 47 46 46
28 27 30 29 30 29 24 23 19 19 21 11 10 19 25 28 39 38 36 43 41 46 47 50 52 59 60 59 59 57 57 57 57 57 58 53 51 49 47 46 46 46 46 44
29 30 27 29 29 26 22 23 25 22 22 14 22 19 23 27 28 38 41 42 46 47 50 52 56 58 59 59 59 59 58 57 58 58 53 50 47 44 45 46 47 46 44 42
25 28 28 28 27 25 25 23 24 25 21 23 23 22 23 26 28 30 37 40 44 48 50 54 55 56 58 58 58 58 57 57 57 52 49 47 45 45 47 47 46 46 44 43
26 28 28 30 25 25 28 24 27 31 27 22 20 21 23 24 27 32 36 40 44 48 51 55 56 56 56 57 57 57 56 50 47 48 47 46 46 44 40 39 38 38 35 36
22 25 25 27 27 25 27 25 23 19 21 21 25 23 22 28 34 32 36 40 46 49 50 53 54 54 54 53 52 49 46 46 46 47 44 40 39 38 37 38 36 35 34 36
21 21 26 26 25 25 25 28 21 18 20 19 28 24 26 30 33 35 38 41 46 46 46 48 48 48 47 47 46 45 45 46 47 44 41 40 40 39 37 36 37 36 37 36
22 24 32 28 29 25 28 27 31 22 25 19 21 26 30 30 34 37 37 43 44 44 43 44 45 47 47 47 46 46 45 46 46 42 39 38 37 36 36 38 37 38 33 29
31 25 35 33 31 26 25 29 24 23 12 13 16 18 26 28 32 37 38 42 44 43 41 41 44 46 47 47 47 47 46 45 41 39 38 37 35 35 38 37 36 32 29 28
31 26 28 33 29 26 23 21 20 20 22 16 17 18 30 29 30 35 38 42 44 44 40 40 43 46 46 47 47 46 41 38 38 35 35 34 35 38 35 32 29 27 27 27
29 31 28 29 32 25 22 21 25 18 16 23 21 19 22 27 29 31 37 41 44 43 40 40 42 45 46 47 47 40 38 37 36 35 35 37 39 36 30 27 27 28 27 29
30 24 19 23 23 25 22 21 19 21 29 21 19 20 23 26 29 30 29 39 43 41 40 40 44 46 46 46 43 39 37 35 37 38 36 36 37 27 25 27 28 27 27 28
30 27 23 18 18 21 23 23 21 20 19 21 22 23 22 23 24 26 25 35 40 40 40 41 45 45 45 44 39 37 37 36 35 34 34 30 23 26 27 27 27 28 29 29
29 23 23 20 22 25 22 23 24 23 22 21 21 23 22 21 24 23 26 26 35 38 41 43 43 43 43 40 37 35 35 32 31 28 22 23 23 23 23 25 27 28 29 30
32 27 26 26 29 26 23 24 24 23 21 20 20 20 22 22 21 21 24 28 32 39 41 41 41 40 39 38 35 34 33 31 24 20 20 21 21 21 22 24 25 26 27 29
32 30 29 27 25 23 22 22 22 22 23 21 17 20 23 22 23 23 24 26 30 39 39 39 39 39 38 36 34 31 28 23 20 19 20 19 20 22 23 24 25 26 28 31
34 33 33 26 23 20 23 24 18 18 18 17 19 26 29 27 28 29 29 31 33 37 38 38 38 36 34 31 28 24 22 21 19 19 18 20 20 21 24 26 26 29 29 28
36 34 32 26 22 24 22 19 15 15 19 21 22 28 27 28 32 33 34 36 36 38 38 36 31 26 24 23 22 21 20 19 19 19 18 19 23 25 25 26 27 28 27 26
34 37 29 33 24 18 24 22 22 20 18 28 24 25 27 27 31 35 34 37 37 36 33 29 25 24 24 25 24 23 23 23 23 21 23 23 26 27 26 26 27 27 27 26
29 32 29 26 20 25 32 24 25 16 22 29 31 37 34 35 38 37 33 27 28 26 24 24 25 25 26 26 24 20 20 21 23 23 25 25 26 24 25 27 27 27 28 28
28 27 28 34 28 21 33 24 21 32 33 33 36 39 39 38 37 35 27 23 22 22 26 27 27 27 25 24 22 23 29 27 23 24 25 25 25 26 25 25 26 26 27 27
30 33 31 32 30 35 35 34 34 33 35 37 36 37 39 38 37 25 23 22 27 29 29 29 28 27 26 25 25 25 24 25 24 24 24 25 26 26 26 25 25 25 26 26
33 35 33 33 32 29 37 38 39 39 38 39 39 39 38 38 27 23 23 32 33 32 31 31 29 27 26 26 25 23 25 25 24 23 24 25 25 26 26 26 25 25 24 23
33 32 30 30 37 39 40 40 40 40 40 33 30 32 34 28 28 31 33 34 34 33 31 29 28 29 27 25 23 24 24 24 22 22 24 26 26 27 27 27 26 25 25 26
33 32 28 28 39 38 39 40 39 36 33 30 29 30 31 32 32 32 33 33 33 33 33 31 29 25 24 24 22 21 20 20 22 25 25 25 26 27 27 26 26 27 27 27

GFSCGP_sfc_30mbdewp_060.txt.gz
Dewpoint
29 25 21 24 24 24 24 23 22 24 26 31 28 26 33 38 40 40 47 50 52 50 49 53 53 51 53 56 57 58 57 56 56 55 55 54 52 53 50 50 49 48 48 48
28 26 26 29 29 29 27 26 24 23 23 29 25 24 32 38 38 39 39 38 40 43 43 45 48 53 57 57 58 57 56 56 56 55 55 55 53 52 49 49 49 46 47 46
25 27 30 29 29 27 27 27 23 21 22 25 20 24 28 36 37 37 38 39 39 42 45 47 51 57 58 58 57 56 56 56 56 55 55 53 50 49 48 47 46 46 45 44
29 30 29 28 26 27 25 26 25 21 18 11 22 17 25 28 36 37 36 41 42 45 48 54 56 58 58 58 57 57 56 56 56 56 56 51 48 46 46 46 46 46 44 42
25 28 28 24 25 27 25 27 25 24 24 23 23 18 19 27 30 34 37 40 43 47 49 55 57 58 58 58 58 57 57 57 57 57 56 51 47 46 46 47 46 46 44 43
24 29 26 26 28 29 26 25 30 29 27 19 22 21 19 23 25 30 36 40 44 47 51 55 57 58 58 58 58 58 57 57 57 56 52 49 46 46 46 46 44 41 38 38
24 25 26 29 24 27 27 25 21 19 19 19 25 24 23 25 26 28 33 40 44 49 53 55 56 57 57 57 57 57 56 52 50 48 48 46 44 43 42 40 37 35 36 37
20 19 25 26 26 24 29 25 20 16 17 17 27 23 22 30 31 35 38 43 47 51 54 55 55 55 55 55 55 53 49 47 45 42 41 39 39 39 39 38 38 38 37 34
22 24 34 30 31 27 26 26 32 28 27 22 20 24 30 31 30 33 37 45 48 50 53 53 53 52 51 50 49 48 46 47 43 40 39 38 38 37 37 39 39 40 38 33
24 23 32 32 31 28 25 30 25 28 15 11 16 19 23 29 32 37 37 42 46 46 49 50 50 49 47 46 46 46 46 45 41 39 38 37 36 38 38 39 40 37 31 29
30 24 24 32 26 22 24 23 24 24 21 16 16 17 24 29 34 35 37 42 45 44 45 47 48 47 47 47 46 45 45 43 39 38 37 35 37 39 38 35 33 30 28 28
29 27 23 24 28 32 29 26 24 21 18 24 21 18 25 30 31 37 38 43 45 43 43 44 46 47 47 47 46 44 42 39 37 36 36 38 38 39 35 30 29 29 28 29
30 26 23 23 26 27 27 23 23 27 26 19 18 18 25 26 30 33 38 41 44 45 41 42 45 46 46 47 42 39 38 36 37 38 37 39 41 28 27 28 28 27 27 28
30 27 21 21 21 22 21 23 23 21 18 19 22 21 23 23 25 30 31 38 43 44 42 41 44 45 47 41 38 37 38 40 41 39 38 33 27 28 28 28 28 29 30 29
27 22 25 23 23 26 25 23 24 23 23 21 21 23 22 23 23 25 29 32 41 42 41 43 46 46 40 38 38 40 40 40 37 31 26 26 25 25 24 24 24 26 27 28
32 21 24 22 27 25 24 24 24 24 23 22 22 21 25 24 25 24 26 28 37 40 43 44 45 44 42 41 41 40 37 31 24 23 23 24 22 22 23 24 25 26 27 29
30 27 26 21 25 25 23 23 23 23 23 23 20 20 24 23 23 24 25 25 37 41 43 44 44 43 42 40 38 34 27 23 22 22 22 23 23 22 24 25 26 26 29 30
33 31 30 25 24 21 25 26 24 22 21 21 26 27 27 29 33 34 33 33 38 40 41 41 40 38 36 33 28 24 22 22 21 21 21 21 23 25 26 25 26 27 30 28
36 33 30 26 24 26 24 21 13 14 20 25 26 28 31 33 33 34 37 38 38 38 36 33 30 28 25 23 22 22 21 21 21 20 21 23 25 25 25 26 27 28 28 27
35 34 31 31 24 21 22 23 21 21 18 28 28 27 27 31 27 34 34 33 30 27 25 24 24 24 23 23 22 22 23 24 22 22 30 28 25 26 27 27 27 27 28 28
29 32 30 27 25 21 25 27 24 12 15 32 34 33 33 34 35 31 26 25 25 25 25 26 25 25 24 22 21 21 22 24 25 26 26 26 26 26 26 27 27 26 26 26
26 27 30 29 24 24 30 25 21 26 35 38 38 38 38 36 28 25 24 26 26 26 26 25 24 23 23 24 29 31 31 25 25 24 25 25 26 26 26 26 25 26 25 25
27 26 26 30 27 31 35 31 35 35 36 37 38 40 37 29 25 24 28 28 28 27 26 26 26 27 28 27 26 24 24 24 24 25 25 25 25 26 26 26 25 25 25 24
34 38 32 33 34 35 37 39 38 38 38 38 39 39 37 26 25 30 30 29 29 30 30 28 27 27 27 26 24 23 24 25 25 24 24 24 24 25 26 26 26 25 25 24
33 35 33 36 39 39 39 40 40 33 32 32 31 35 28 27 31 32 32 32 31 30 29 29 29 27 25 24 24 23 23 25 24 24 23 23 25 26 26 26 26 26 26 25
33 32 30 30 37 35 38 40 35 32 31 32 31 31 32 32 32 33 33 33 33 31 30 29 29 25 22 22 22 24 26 26 25 25 25 25 26 26 26 26 27 28 28 27

GFSCGP_sfc_30mbdewp_063.txt.gz
Dewpoint
28 25 23 23 25 26 26 25 23 24 25 28 29 28 34 44 45 48 51 52 50 50 49 52 55 55 52 53 56 58 56 56 55 54 53 52 51 52 49 49 49 49 49 48
27 23 25 29 28 27 26 26 24 26 25 25 27 27 27 41 42 46 49 51 50 48 48 50 53 53 52 54 56 57 56 56 55 54 55 54 52 51 49 49 48 48 48 46
25 26 29 29 29 26 26 26 25 25 22 26 23 24 27 38 40 43 48 49 51 49 48 49 52 52 54 54 56 57 56 56 55 55 54 52 51 49 48 48 47 47 46 44
27 30 28 28 27 27 24 27 27 25 19 18 20 16 27 35 38 39 43 44 45 47 46 46 48 53 54 55 57 57 56 56 56 55 54 52 50 47 47 47 46 46 46 44
22 28 28 26 24 27 25 28 26 25 23 22 23 18 20 27 36 37 37 40 39 43 43 44 48 54 56 56 56 56 57 56 56 56 55 51 49 47 47 47 46 46 44 42
25 29 29 26 27 28 28 27 28 29 26 19 22 20 20 24 28 35 37 38 40 45 47 50 51 56 57 57 57 56 57 56 56 56 55 52 49 46 46 46 45 43 41 40
23 25 26 29 26 27 27 24 18 17 18 17 25 23 23 24 25 28 35 37 41 45 50 55 55 56 57 57 57 57 56 56 56 56 54 53 49 46 46 45 42 37 37 37
17 17 24 26 25 23 28 24 18 15 15 16 26 22 21 28 32 32 31 38 43 46 52 55 56 57 57 57 57 57 56 54 54 53 51 47 45 44 43 41 38 38 38 36
19 20 32 32 30 26 27 24 30 25 26 23 21 22 24 29 33 35 41 42 45 49 52 54 56 56 57 56 56 55 53 50 46 46 44 42 41 40 38 40 41 41 40 41
22 17 30 31 32 29 25 30 23 27 17 13 14 18 18 23 28 35 36 43 46 51 53 54 55 55 55 55 54 51 49 45 42 41 40 39 39 39 40 43 43 43 41 36
27 20 21 30 27 24 27 24 25 25 21 15 14 16 23 26 29 33 36 42 46 49 52 53 53 53 52 51 50 49 46 43 40 39 38 37 39 40 40 39 39 39 35 30
27 22 17 20 28 30 26 23 24 20 18 23 20 17 22 28 29 33 33 39 46 47 50 51 52 50 48 48 47 47 46 42 40 39 37 39 40 39 40 42 41 32 29 29
29 25 19 21 24 29 29 27 27 28 25 21 18 18 24 25 29 31 35 39 44 45 47 49 50 49 47 46 46 44 41 38 38 38 41 41 42 42 37 31 30 29 28 28
28 26 21 19 19 22 23 24 24 24 20 19 20 19 21 24 24 26 31 37 43 45 44 46 47 47 47 45 41 38 37 39 40 40 42 41 35 32 29 28 28 28 29 29
28 23 23 23 23 23 22 23 24 22 22 20 21 22 23 24 24 24 26 32 39 44 43 42 45 46 44 41 39 39 41 42 42 41 37 35 31 28 27 26 24 25 28 28
30 22 23 23 26 26 25 25 24 24 24 25 24 23 25 24 24 24 25 29 32 42 43 43 46 44 41 40 41 41 42 41 38 33 30 28 25 24 23 24 25 27 27 30
28 26 23 18 25 25 23 24 24 24 24 23 20 22 23 23 25 28 28 27 34 41 44 45 44 42 41 41 41 41 38 33 28 27 25 25 23 23 25 26 26 26 27 30
28 27 26 21 24 15 21 28 25 24 21 22 24 26 27 31 35 37 37 36 40 43 44 44 43 41 41 40 34 29 26 25 24 23 22 23 24 26 26 26 26 27 28 29
35 30 26 23 23 24 26 24 21 18 19 26 27 30 32 33 33 35 34 33 37 38 36 35 34 32 29 26 23 22 22 22 21 22 23 24 27 25 26 25 27 27 27 27
34 33 25 26 26 24 27 26 22 21 14 26 28 31 31 29 16 31 30 27 26 26 26 26 24 23 22 21 22 22 22 22 23 27 30 28 26 25 25 27 26 27 27 26
32 31 28 27 26 27 27 26 23 14 16 28 29 30 30 27 30 30 26 26 26 25 24 24 23 22 22 22 22 22 24 25 26 27 27 26 26 26 26 26 27 26 26 26
30 30 30 27 26 27 29 28 20 22 34 35 36 36 35 31 27 27 26 26 25 24 23 22 21 22 23 27 30 31 27 26 27 25 25 25 25 26 26 26 26 26 26 25
26 28 27 29 29 32 33 26 32 35 35 38 37 38 31 28 26 27 27 26 25 24 23 25 27 29 27 25 26 24 25 24 23 24 24 25 25 25 26 26 25 25 25 25
33 34 28 30 33 35 36 38 37 38 37 39 40 34 30 27 28 28 27 27 26 27 27 27 28 27 26 24 24 24 25 26 25 25 25 25 25 24 24 25 26 25 25 25
34 35 35 34 38 38 38 39 36 35 36 36 38 32 28 29 29 29 29 29 29 29 29 28 27 25 24 24 25 27 29 29 28 27 27 27 27 27 27 27 27 27 27 26
35 34 32 28 37 33 36 38 34 34 33 33 32 30 31 31 30 31 31 31 30 29 29 28 24 24 24 26 29 30 30 28 26 25 25 27 27 27 28 28 27 28 29 29

GFSCGP_sfc_30mbdewp_069.txt.gz
Dewpoint
29 27 26 25 25 23 24 24 24 25 26 26 26 29 39 46 49 49 49 49 50 53 51 52 53 54 54 55 55 57 57 58 57 57 57 57 57 57 57 55 52 50 49 50
27 25 25 25 26 26 27 25 24 25 26 27 26 26 34 42 46 48 48 50 49 50 52 52 54 55 55 54 55 57 57 57 57 56 56 56 55 54 54 52 50 49 49 49
25 25 28 29 29 27 27 25 24 24 26 27 26 23 27 36 43 47 49 50 51 51 50 52 53 55 56 56 56 57 57 57 57 56 55 54 53 52 51 50 49 49 48 47
26 27 27 28 27 28 24 27 26 26 24 18 22 16 20 29 37 43 46 49 51 52 52 51 52 53 55 55 56 56 57 56 56 56 55 53 52 50 49 49 49 49 49 47
22 28 28 27 27 28 25 28 28 27 23 22 23 18 19 28 30 34 41 46 48 51 52 51 50 51 54 55 55 57 57 56 56 56 55 54 53 52 51 49 48 48 47 46
25 29 29 28 28 28 29 28 26 27 26 21 22 20 19 21 25 31 35 41 45 48 51 51 50 50 53 55 56 57 56 56 56 56 55 54 53 52 49 47 47 46 45 44
24 25 27 28 26 28 27 25 20 18 20 18 25 23 22 24 26 26 28 38 42 46 49 51 50 50 52 54 55 56 56 56 56 57 56 55 54 52 50 48 47 46 44 42
19 17 24 27 25 23 26 24 20 13 14 15 24 20 19 27 28 32 34 36 39 43 46 48 49 50 52 54 55 56 56 55 56 57 56 56 55 52 50 49 47 46 44 42
19 17 27 29 30 27 28 24 26 23 25 23 22 22 20 23 26 32 35 41 37 41 43 45 47 50 52 54 55 56 56 56 56 56 57 56 55 53 50 49 47 46 44 41
21 16 29 31 31 31 28 31 25 25 17 15 17 17 16 17 21 30 33 36 41 41 43 45 48 51 53 54 55 56 56 56 56 57 56 56 54 54 51 48 45 43 42 42
23 20 21 30 29 26 29 27 25 25 22 18 16 17 22 21 23 28 32 36 39 43 45 47 51 52 53 55 55 56 56 56 55 55 55 54 52 50 47 45 43 43 44 44
24 22 17 21 27 28 27 24 26 22 20 23 22 19 23 24 24 27 31 35 38 44 47 50 52 54 54 55 55 56 55 54 53 51 50 48 46 45 45 44 44 44 44 46
26 20 15 16 23 30 27 26 27 27 26 22 21 20 24 24 24 26 27 32 37 44 47 51 53 54 54 55 55 55 53 49 45 45 45 45 45 43 43 43 44 45 43 40
25 22 17 15 15 21 23 27 27 25 23 23 23 23 24 23 23 24 26 28 30 40 46 49 52 53 53 54 53 51 47 44 43 44 44 43 42 43 44 44 41 37 34 33
24 19 22 19 19 22 22 23 27 26 25 23 24 23 23 24 24 25 26 26 26 31 42 48 50 51 50 50 49 48 45 45 45 44 43 43 43 42 39 36 33 33 33 30
29 21 23 21 26 24 22 23 24 26 25 24 23 23 25 26 27 25 27 31 28 30 35 45 49 49 47 47 46 45 45 45 45 44 42 41 40 36 32 30 30 32 29 30
28 25 23 20 26 25 23 24 25 25 26 25 22 23 27 25 24 29 33 36 39 40 42 44 47 47 46 45 44 45 44 44 43 42 39 34 29 28 30 30 29 27 28 32
29 27 26 21 24 20 23 27 26 25 25 26 25 25 25 26 34 34 33 38 43 44 44 44 44 44 44 44 44 43 40 37 34 31 28 27 29 29 28 28 30 31 29 29
31 27 24 22 22 22 21 23 24 22 17 23 24 25 29 35 35 33 30 32 36 39 39 40 40 39 39 38 37 35 33 28 26 25 27 30 29 27 31 32 29 29 29 29
32 30 26 24 20 19 22 24 26 22 19 23 24 26 32 35 27 28 30 30 30 31 33 32 32 32 32 32 32 29 24 24 25 28 29 29 29 29 28 28 28 28 28 27
30 28 25 23 22 24 27 26 23 21 21 21 27 31 34 29 29 29 29 27 27 28 28 28 28 28 27 27 26 26 29 30 31 31 29 28 27 26 27 27 28 27 27 28
29 27 26 25 24 22 30 22 21 25 25 26 31 34 33 30 29 29 27 26 26 26 25 25 25 24 25 26 27 27 28 28 27 26 26 27 27 26 27 27 27 27 27 27
30 30 27 28 26 32 29 28 26 27 26 31 31 35 32 30 28 27 25 24 23 24 26 27 27 28 28 27 26 25 25 26 27 27 27 26 24 23 22 21 20 20 19 20
32 33 31 30 31 32 33 32 34 32 31 35 36 34 31 30 28 26 24 24 26 27 26 25 25 26 27 28 28 27 27 27 24 23 22 20 19 18 18 18 18 20 21 21
33 33 32 31 32 36 35 37 36 36 38 37 34 33 31 29 27 25 24 26 27 26 25 24 26 27 26 25 24 22 22 21 19 18 17 17 18 19 19 18 20 21 21 22
35 32 30 29 31 30 28 34 37 36 37 34 32 30 30 29 26 25 26 28 27 25 25 27 27 24 21 21 21 19 18 16 14 14 15 18 18 19 19 19 19 20 20 20

GFSCGP_sfc_30mbdewp_072.txt.gz
Dewpoint
30 26 24 20 20 21 21 20 20 21 24 24 23 23 29 42 44 41 42 43 48 46 49 50 51 51 51 51 51 54 57 60 60 57 54 55 58 60 60 60 59 57 52 53
27 25 24 25 25 24 22 21 21 22 25 26 23 22 25 39 42 42 42 42 42 49 47 48 49 51 51 52 53 55 57 59 59 54 52 56 58 59 59 58 56 54 52 52
21 24 27 25 25 24 23 23 23 21 25 26 25 21 24 31 39 43 44 43 44 43 48 48 49 50 51 51 53 53 55 56 58 56 53 56 58 57 57 56 53 51 51 49
22 24 26 25 22 25 22 25 24 24 24 17 23 12 17 24 32 38 42 44 44 45 44 48 48 49 51 52 51 52 53 55 58 58 55 55 54 54 55 54 52 49 49 48
21 24 25 24 25 26 24 27 26 26 23 22 20 13 15 23 23 26 36 42 45 47 46 44 47 48 50 52 53 55 55 57 58 59 57 56 55 55 54 53 51 49 49 48
21 28 28 25 28 27 29 28 28 28 24 18 19 17 12 15 20 23 27 32 42 46 47 48 47 47 49 53 56 56 56 57 57 58 58 57 56 55 53 52 51 49 48 48
22 23 25 28 25 28 28 26 20 20 18 16 24 20 16 17 23 26 26 29 34 40 46 47 48 49 48 52 56 56 56 55 56 57 57 57 57 56 53 52 50 48 47 47
18 17 23 25 23 21 24 24 19 13 15 15 23 15 15 24 27 26 32 34 35 37 40 46 48 49 49 51 54 55 55 55 56 57 57 57 57 56 54 53 50 48 47 46
17 16 22 26 26 25 27 23 25 23 26 19 16 18 16 20 21 28 30 35 38 36 38 42 46 49 51 52 54 54 54 54 55 57 57 57 57 56 55 54 53 51 49 47
20 15 22 29 29 30 27 27 23 23 17 14 13 15 13 15 18 26 23 24 37 38 39 41 43 47 50 52 53 54 53 53 55 56 57 56 57 57 55 55 53 51 48 45
20 20 26 30 27 22 27 25 24 23 22 16 15 15 18 16 19 23 25 30 32 40 40 41 43 45 49 51 53 54 53 52 54 56 56 56 56 57 56 54 52 49 46 44
21 21 18 20 26 28 25 23 25 19 19 22 22 18 20 21 24 26 27 29 33 37 42 43 45 47 49 51 53 53 53 54 54 55 56 57 55 53 49 48 47 47 46 46
24 21 18 18 22 28 25 25 25 25 26 19 19 19 25 25 26 26 27 27 32 36 40 46 48 50 50 51 52 52 55 55 55 55 54 50 48 49 48 47 47 47 47 47
26 20 19 16 14 15 19 19 22 21 20 17 17 18 18 22 23 24 24 28 30 31 35 42 47 50 52 53 53 54 55 54 51 51 50 49 48 47 46 46 45 44 42 39
25 18 20 18 16 15 16 15 18 20 19 15 19 17 17 22 23 24 26 28 28 28 31 37 44 49 52 54 54 54 52 49 48 48 46 45 45 44 43 42 42 40 36 37
29 20 22 20 20 20 18 19 19 22 21 21 22 19 21 22 25 27 27 28 28 29 31 34 43 50 51 52 52 50 49 48 47 46 45 44 42 41 40 39 37 36 35 34
30 24 24 19 24 24 24 24 22 22 25 24 19 19 21 22 25 27 28 32 34 38 41 42 45 49 50 50 49 48 47 47 45 43 42 41 38 36 34 32 31 31 31 33
32 29 27 21 26 22 21 26 24 23 23 24 24 24 24 22 28 33 34 36 42 43 44 45 47 48 48 48 49 48 47 45 43 41 37 33 31 31 31 30 31 34 36 33
34 31 29 28 23 20 23 24 25 24 22 22 22 22 21 26 31 32 34 37 41 43 44 45 46 47 47 47 45 43 41 39 37 33 28 29 30 30 33 36 37 32 29 28
34 34 31 28 25 22 22 24 27 26 21 23 23 24 25 32 27 26 35 37 38 39 39 40 41 42 42 41 40 37 35 32 29 27 30 31 32 33 34 32 28 26 25 24
33 33 31 29 29 25 29 28 27 21 22 26 25 26 31 31 30 35 35 35 36 36 36 38 39 39 39 38 35 32 29 27 30 32 30 30 30 29 27 26 25 25 25 27
31 31 30 31 30 25 29 26 23 25 32 29 30 31 33 34 33 34 34 34 34 34 34 35 35 34 33 32 31 30 30 30 30 29 28 27 26 24 25 26 26 25 23 22
29 32 30 30 28 34 30 27 29 32 28 31 31 34 36 33 33 32 33 33 33 33 32 31 31 30 30 29 29 29 28 27 27 27 26 25 23 22 20 19 16 15 15 18
33 36 33 33 29 32 34 31 35 31 32 33 35 35 36 32 31 31 31 30 31 30 30 30 29 28 27 27 26 26 27 28 26 23 22 20 17 15 14 11 13 16 19 19
29 33 32 31 32 35 36 37 35 34 36 37 37 36 34 32 31 30 29 30 30 28 28 28 28 27 26 26 25 24 24 22 20 17 15 14 16 16 15 15 18 19 19 20
34 32 33 32 32 33 30 37 39 37 37 37 35 34 34 32 30 29 29 29 28 27 27 27 27 26 24 21 19 17 16 15 13 12 14 17 17 17 16 15 18 20 20 20

GFSCGP_sfc_30mbdewp_075.txt.gz
Dewpoint
28 25 22 21 21 18 19 17 17 18 22 21 19 20 22 35 37 39 37 43 43 42 49 51 51 51 48 50 50 50 52 56 58 58 54 52 52 58 61 60 60 60 57 56
25 23 22 23 19 18 20 18 18 20 20 23 21 20 22 31 35 39 40 39 42 43 46 49 51 51 47 48 47 49 52 56 57 54 51 49 51 58 60 59 59 58 56 55
22 21 23 23 20 20 21 21 21 22 22 23 21 19 19 25 34 37 40 39 42 42 44 45 48 49 50 48 49 50 53 56 58 52 48 50 54 56 58 58 57 57 55 55
22 21 23 22 21 22 20 22 22 22 20 23 22 16 24 20 27 34 38 39 39 42 43 44 47 49 50 50 51 52 53 56 57 58 50 51 55 55 56 56 56 54 54 53
19 19 22 22 22 22 22 25 23 23 22 19 17 10 15 15 18 24 32 38 39 40 42 44 45 46 49 50 51 52 53 52 54 57 57 52 52 52 55 56 55 54 52 51
19 21 21 22 23 24 25 25 24 24 23 19 16 15 15 14 12 19 22 32 38 40 41 42 44 45 46 51 53 53 52 51 53 58 58 56 54 53 55 56 53 53 53 50
20 20 23 25 24 25 25 24 22 21 19 18 22 17 12 21 16 20 21 24 31 38 42 42 40 44 45 47 51 53 53 53 54 58 59 58 57 56 56 55 54 53 51 49
17 15 21 24 23 23 23 22 21 20 18 18 23 14 13 18 19 19 21 24 27 31 39 43 44 43 44 47 51 53 54 54 54 55 58 58 58 57 56 55 54 54 52 51
15 14 19 22 23 23 22 21 22 22 21 19 17 16 17 16 16 18 21 26 29 34 33 37 42 45 46 47 49 53 54 53 54 55 57 58 58 57 57 56 56 54 53 50
17 15 17 21 22 23 24 26 22 21 17 20 14 14 12 14 15 21 20 22 31 35 35 36 38 43 46 49 49 54 54 52 53 54 57 58 57 58 57 57 56 55 53 52
18 18 17 21 22 20 22 23 23 21 22 19 16 13 22 15 16 18 21 22 24 30 36 37 39 41 45 49 51 53 53 51 51 54 56 57 57 57 58 57 56 56 53 48
20 19 17 19 21 20 20 21 21 19 17 19 18 18 20 19 19 21 21 22 24 28 33 37 40 41 43 48 50 52 54 51 51 53 56 57 57 56 54 52 51 50 49 48
21 18 16 17 19 24 22 22 23 22 21 19 24 23 18 19 22 22 23 21 22 27 30 37 40 43 44 47 50 52 53 52 51 55 56 55 52 51 49 49 49 48 47 47
26 19 19 17 16 19 19 18 19 20 23 22 19 16 15 16 20 23 23 22 23 22 29 34 40 43 46 48 50 51 52 53 54 55 54 52 50 49 48 48 48 47 46 45
25 20 18 17 16 15 13 15 16 16 19 18 19 16 13 15 17 19 22 24 25 23 24 29 35 42 47 50 51 52 54 55 54 53 51 50 48 48 47 46 46 45 43 43
26 23 20 16 18 16 13 13 14 13 14 15 15 15 17 19 18 19 20 23 25 26 27 29 33 40 48 52 53 54 53 51 51 49 47 47 47 46 44 43 42 42 39 38
27 26 21 20 18 18 18 17 16 16 16 17 17 18 19 18 18 20 20 21 28 31 36 37 37 44 50 53 52 50 49 50 48 48 47 45 44 42 41 38 37 36 35 34
31 28 26 25 26 21 21 22 20 18 17 19 20 19 19 20 20 22 30 30 33 39 41 43 46 48 50 51 50 49 48 47 46 44 43 42 41 38 35 33 32 33 34 36
26 31 28 27 25 22 19 23 22 19 18 19 19 21 21 20 26 26 31 34 39 42 44 46 47 48 49 50 49 47 45 44 43 41 40 37 35 32 32 33 35 38 37 33
24 32 33 32 25 21 22 24 24 22 20 21 21 21 22 21 24 19 34 38 41 42 43 45 47 48 47 47 46 45 43 41 39 36 33 32 31 32 34 36 36 32 30 26
33 34 34 32 29 24 22 24 24 23 22 22 23 22 23 22 27 36 37 39 39 39 41 42 43 44 44 42 41 39 38 36 33 31 31 33 33 33 33 31 28 26 24 25
34 31 33 32 31 28 30 28 24 27 27 29 29 26 27 31 37 37 37 37 37 38 39 40 41 41 40 39 38 36 34 33 33 32 31 30 29 27 28 26 26 25 24 26
26 32 31 29 30 31 31 28 31 29 30 31 30 29 32 37 36 36 35 36 36 37 37 38 37 36 35 35 34 33 33 32 31 30 29 29 27 24 22 22 21 18 15 18
19 22 27 27 27 31 32 34 32 33 33 32 34 33 35 37 34 34 35 36 35 35 35 35 34 34 33 33 32 31 30 29 29 28 27 24 21 18 14 11 13 17 20 20
23 25 28 26 26 27 34 35 36 34 35 33 34 33 35 35 34 33 34 34 34 34 33 33 33 32 30 29 29 29 29 28 26 23 19 18 16 17 16 16 19 19 21 22
24 23 27 31 30 31 30 35 37 37 36 37 36 35 35 35 33 32 32 33 32 32 32 31 31 29 28 27 26 25 24 22 18 16 16 19 19 17 15 14 22 18 20 21

GFSCGP_sfc_30mbdewp_078.txt.gz
Dewpoint
27 26 22 22 23 22 19 18 16 18 22 23 22 15 21 32 33 37 39 38 43 47 52 53 53 54 54 54 54 53 53 54 54 56 54 54 53 57 58 57 58 60 60 59
25 24 23 23 22 21 18 16 17 19 19 23 20 17 22 31 32 38 41 39 42 48 49 52 52 53 53 53 54 55 55 56 56 57 55 53 54 58 59 59 59 60 59 59
24 22 25 21 21 20 18 18 20 21 21 23 22 18 20 27 31 38 38 43 42 45 48 49 49 52 52 53 53 54 56 56 57 57 56 52 56 57 59 59 59 59 58 58
20 22 21 22 22 20 19 20 22 20 20 18 28 20 20 23 29 32 39 38 42 43 46 49 49 50 49 50 52 51 51 56 58 58 52 50 51 55 57 58 58 58 58 56
20 19 20 20 21 21 20 23 25 22 21 21 24 23 15 23 24 27 35 40 40 42 45 46 48 51 51 50 50 50 51 55 57 58 57 51 55 55 57 58 58 56 56 55
19 19 20 19 22 22 22 23 25 23 23 20 20 19 19 22 22 20 30 36 39 41 42 44 47 49 50 52 52 52 54 55 57 58 58 56 56 56 56 57 57 56 55 55
17 17 18 19 19 22 22 23 21 25 23 20 22 21 21 25 23 20 20 30 38 40 43 44 45 46 49 50 52 54 54 53 55 58 58 58 57 55 56 57 56 54 54 54
16 15 17 20 23 23 23 23 22 23 27 27 30 20 13 20 20 21 19 21 31 37 42 43 45 45 46 49 52 53 53 53 53 58 59 58 59 57 57 57 56 54 54 53
16 16 18 20 23 23 23 22 23 22 24 28 27 27 25 18 16 16 18 21 24 28 36 42 43 46 46 47 51 54 54 53 53 57 59 59 59 59 58 58 57 56 55 54
19 18 19 18 21 22 22 25 23 21 20 19 15 16 25 24 19 18 20 23 29 35 35 35 42 45 46 48 49 53 54 53 54 55 57 59 58 59 59 58 57 56 56 54
21 21 18 16 19 18 20 20 27 24 21 20 21 18 30 25 22 18 20 23 24 26 35 36 37 40 47 48 49 53 54 54 54 55 56 58 59 59 59 58 57 56 54 52
21 21 19 19 20 20 20 21 23 23 19 25 27 24 22 21 20 20 21 21 22 26 28 34 38 39 42 49 50 52 54 55 54 54 56 59 59 58 58 56 54 52 50 49
23 20 20 18 19 21 20 19 21 22 22 21 23 22 25 21 19 22 22 22 23 24 27 33 38 39 41 44 51 52 54 55 54 53 58 58 57 57 55 53 51 50 49 49
27 23 20 20 20 21 18 18 18 23 24 24 24 22 20 19 19 21 23 28 30 23 25 28 36 39 42 45 48 51 55 55 56 57 57 55 54 52 51 50 49 48 48 48
27 24 23 19 18 17 18 19 19 18 18 17 21 20 20 19 15 21 24 28 26 25 23 24 28 40 44 46 50 52 57 56 56 55 53 50 49 49 48 48 48 48 47 46
28 25 24 23 19 19 17 17 17 17 16 15 16 16 16 16 17 22 21 19 20 25 26 30 29 32 46 50 52 55 55 53 52 50 48 49 48 48 48 47 46 44 44 44
34 27 25 24 23 18 16 18 16 13 15 15 14 17 18 19 19 20 20 23 23 23 30 35 36 36 52 54 53 51 50 50 48 48 48 48 46 45 44 43 43 42 41 40
32 30 29 26 25 20 21 22 20 18 18 19 18 18 19 20 19 20 24 27 27 35 37 39 41 51 52 51 50 50 50 48 47 47 46 45 44 42 41 40 40 38 37 36
36 32 35 28 25 24 21 22 21 21 21 21 20 19 20 20 25 23 28 32 32 39 41 43 47 51 51 50 49 47 47 46 45 44 44 43 41 39 38 36 36 36 37 38
35 35 30 31 26 25 27 25 25 25 21 23 22 22 23 23 23 25 34 37 42 43 45 47 49 50 49 49 47 46 45 43 43 43 42 41 38 35 34 35 37 39 38 34
32 34 31 29 30 27 26 25 26 22 24 26 26 24 24 23 31 35 37 39 41 42 44 47 48 48 49 47 46 44 43 42 41 39 37 34 33 33 36 37 35 31 28 32
34 34 31 33 30 26 30 28 23 27 31 29 29 28 28 36 38 38 38 39 39 40 43 45 45 45 45 45 44 42 40 38 35 33 33 34 35 33 32 30 26 26 29 31
30 31 33 31 30 35 34 30 32 31 33 33 33 32 31 38 39 38 38 38 38 39 41 42 42 42 41 41 40 37 34 34 34 34 33 30 28 28 27 27 27 23 21 23
17 31 33 33 31 34 38 41 36 35 34 34 34 35 34 39 38 37 37 37 37 38 39 39 39 37 36 36 35 34 35 34 32 31 30 28 24 20 17 16 19 22 24 23
24 21 25 27 28 28 29 36 37 37 37 36 34 35 35 39 37 36 36 36 36 37 37 37 36 35 34 34 33 33 32 31 30 28 24 20 19 19 22 21 23 24 22 24
24 22 24 29 29 30 31 34 37 38 34 34 36 35 36 37 36 35 35 36 36 35 35 35 35 33 31 30 29 30 29 27 24 20 23 24 22 19 21 21 19 23 21 21

GFSCGP_sfc_30mbdewp_081.txt.gz
Dewpoint
30 26 25 25 26 26 25 23 25 28 29 29 26 28 38 39 42 45 48 51 51 50 52 53 52 53 53 54 53 53 53 53 52 50 48 46 47 54 54 55 56 56 56 57
28 25 27 27 25 24 23 21 18 19 24 24 23 21 27 37 40 41 41 44 47 52 51 52 53 52 52 52 53 53 53 53 51 50 48 49 51 55 56 57 57 56 57 58
27 27 27 26 25 23 22 18 19 19 22 22 24 23 24 30 39 39 40 45 48 51 51 52 52 53 52 52 52 52 52 52 52 52 52 54 54 56 57 57 57 59 59 60
23 27 26 25 25 22 20 21 21 24 20 18 26 20 23 29 37 39 38 42 48 49 51 52 52 53 53 52 52 50 51 51 52 55 55 55 52 54 56 57 58 59 59 58
20 21 24 23 22 23 22 22 25 25 23 22 23 23 24 26 30 37 41 40 44 48 49 50 52 52 53 51 51 51 54 55 55 56 56 56 52 55 57 58 57 58 58 57
20 22 22 21 22 22 23 23 24 25 24 21 23 24 23 23 28 31 39 43 42 47 48 48 49 51 52 50 52 53 53 55 56 57 57 57 52 55 56 57 57 57 56 56
22 21 21 20 20 21 22 21 21 23 24 23 33 29 24 24 24 27 38 40 43 44 48 48 49 49 50 50 51 51 50 51 56 57 57 57 54 54 56 57 57 55 55 55
20 18 20 19 19 19 20 22 22 20 23 30 35 28 23 26 25 24 26 38 41 43 45 47 48 49 50 49 50 49 49 50 54 57 57 58 57 56 56 57 57 56 55 55
18 17 21 19 22 23 23 22 25 27 33 29 30 28 27 24 23 20 18 20 39 41 43 45 46 48 50 50 51 49 49 51 53 56 57 58 58 57 57 57 57 56 55 54
23 18 20 19 20 23 22 26 23 25 23 26 24 26 23 23 23 22 21 29 33 36 42 44 45 47 48 50 50 52 53 53 53 53 57 58 58 58 58 58 57 56 55 54
21 22 21 23 19 20 22 22 26 26 26 20 19 20 28 25 23 22 22 24 28 34 34 39 45 45 47 49 50 51 53 52 53 53 58 58 59 58 59 58 57 56 56 54
24 24 21 21 23 22 22 22 23 25 25 26 24 23 29 25 24 22 23 24 25 27 36 35 36 43 46 48 49 50 54 54 54 54 58 59 59 59 59 58 57 55 53 50
24 24 22 21 22 22 21 22 22 22 26 25 23 23 26 27 25 22 22 23 24 27 30 35 36 38 47 49 49 50 54 54 54 55 56 58 58 58 57 55 54 52 50 49
28 25 23 21 22 23 22 20 21 22 22 22 24 25 26 25 23 22 23 27 26 29 28 32 37 38 40 49 51 52 54 55 56 56 57 57 57 56 54 52 51 50 49 49
30 25 24 24 22 22 23 21 21 19 22 22 25 26 26 24 21 22 26 25 28 28 27 27 38 39 41 46 53 54 56 56 56 56 55 54 53 52 51 50 50 49 49 48
33 26 26 24 25 23 21 23 20 20 20 19 19 22 22 22 20 21 22 27 28 28 28 28 32 41 45 52 55 56 55 53 53 51 50 50 49 49 49 49 48 47 46 46
33 32 26 25 26 25 23 20 21 23 22 19 17 18 19 19 20 20 22 23 25 26 33 34 39 49 53 53 53 52 50 50 49 49 49 48 48 47 46 45 45 45 45 45
33 33 33 29 28 22 24 23 22 21 21 20 20 20 20 19 20 25 27 27 31 35 37 42 52 52 51 51 50 49 49 49 48 47 47 46 45 45 45 44 44 43 42 42
35 33 30 32 26 28 28 23 22 21 21 22 21 22 21 22 24 29 32 33 35 39 41 49 52 50 50 49 49 48 47 47 47 46 45 45 43 42 42 42 41 40 39 37
36 36 32 32 29 25 27 28 25 25 20 24 23 23 25 25 22 27 35 41 43 44 48 51 50 49 48 47 47 47 46 45 45 44 43 42 42 41 41 40 38 38 38 37
33 32 29 30 30 31 30 28 28 22 22 24 27 27 24 27 30 33 41 42 43 45 49 50 49 49 47 47 46 44 44 44 44 43 42 41 39 37 37 38 38 37 34 33
31 30 29 30 30 28 32 28 25 28 29 29 30 32 32 34 37 38 39 41 42 44 47 49 48 48 47 46 45 43 43 43 42 40 36 34 34 35 37 35 31 33 32 30
30 32 32 31 30 35 39 37 40 39 38 34 34 35 36 38 38 38 39 40 41 43 45 46 46 47 46 45 44 42 37 35 35 34 34 35 32 32 30 28 28 30 30 29
31 34 28 31 31 28 34 39 36 36 35 37 36 36 39 36 39 38 39 39 39 41 42 42 42 41 41 40 37 35 35 35 34 31 29 27 23 22 22 25 27 26 26 25
26 32 30 31 33 32 30 33 34 35 33 38 35 35 36 39 39 38 38 37 38 39 39 38 36 34 34 34 34 34 34 33 30 24 23 23 23 22 22 25 25 23 25 26
27 27 29 30 32 32 30 34 36 33 34 38 37 35 36 40 38 37 37 37 37 37 36 34 33 27 21 21 23 25 27 25 24 23 23 23 23 24 22 21 22 25 23 22

GFSCGP_sfc_30mbdewp_084.txt.gz
Dewpoint
29 27 26 24 25 26 26 25 24 25 27 29 28 28 32 39 45 47 50 50 49 49 53 54 54 54 54 53 53 53 53 54 53 52 51 51 50 50 52 54 53 56 54 57
25 26 28 27 26 26 25 25 24 22 22 27 25 24 26 40 44 47 48 49 49 48 50 52 53 53 53 53 53 52 52 52 50 50 49 48 47 51 53 55 55 56 56 56
19 27 28 27 26 26 26 24 23 18 20 23 24 23 27 36 42 45 47 49 50 49 49 51 51 52 52 52 52 52 51 51 50 49 48 49 49 53 53 54 55 55 56 57
18 21 26 27 26 26 25 25 22 24 23 20 25 20 23 32 39 41 41 44 49 50 50 51 51 51 52 52 53 52 52 51 50 50 48 48 46 48 54 54 55 56 57 57
18 20 23 26 25 27 25 26 22 24 24 23 23 23 23 33 38 38 40 43 48 50 51 50 50 52 52 52 52 52 52 52 50 51 50 49 52 54 54 55 56 56 57 58
17 19 23 25 26 26 26 23 25 27 25 22 30 29 23 25 30 38 38 43 47 49 50 51 51 52 52 51 51 52 51 51 51 52 52 52 52 54 55 56 56 56 57 58
22 17 19 22 21 22 23 21 19 19 21 20 34 29 27 27 27 36 39 39 46 48 48 50 51 52 52 51 50 51 50 50 50 51 52 54 55 54 54 55 56 56 56 56
19 18 20 22 21 20 22 21 19 17 20 25 34 25 26 29 28 29 39 41 41 48 48 49 50 51 51 50 49 49 49 50 52 54 54 55 56 55 55 55 56 56 56 56
20 19 22 21 22 21 21 21 24 25 33 28 29 30 30 27 24 24 33 39 43 43 48 48 49 50 51 51 47 48 49 51 52 54 56 57 57 57 55 56 57 57 57 57
23 20 21 20 21 21 22 26 23 27 23 23 26 28 25 23 21 23 22 38 41 43 45 48 48 49 50 51 51 49 50 51 51 52 56 57 57 57 56 56 57 57 57 56
20 23 21 22 20 18 23 23 26 25 26 23 22 21 26 24 24 22 26 30 38 42 44 45 47 49 49 50 51 51 52 51 50 50 54 56 57 58 57 57 57 57 56 55
21 21 20 21 23 23 23 22 24 24 25 27 25 23 28 26 26 26 23 25 33 39 42 44 45 46 48 50 52 51 51 51 51 52 52 55 57 58 58 57 57 56 55 55
23 20 21 19 22 23 22 22 24 27 28 26 25 24 30 28 27 27 26 24 25 31 37 41 44 45 45 47 50 51 52 53 54 54 54 56 58 58 58 57 56 56 55 53
30 25 19 18 19 22 22 23 23 25 24 23 26 25 25 27 26 26 26 24 25 27 29 35 38 42 45 46 48 50 51 53 54 54 55 55 58 58 58 56 56 56 53 51
34 24 25 24 23 24 23 23 23 22 23 22 22 24 26 27 27 27 24 25 27 28 28 28 35 41 46 47 49 50 51 54 55 54 55 56 56 57 56 55 54 52 51 50
36 27 26 24 26 25 27 27 23 23 22 23 23 24 26 25 28 25 23 26 27 27 27 28 31 39 43 48 50 53 54 55 55 55 54 53 52 52 52 50 50 50 49 49
37 32 25 22 25 25 25 26 26 25 26 23 20 22 24 24 23 21 22 24 26 28 28 32 36 42 49 53 54 53 53 53 53 52 50 50 49 48 48 48 48 47 47 47
37 35 34 26 26 22 30 29 27 25 25 24 21 20 20 20 21 22 24 25 27 32 37 48 50 51 52 51 51 51 51 50 49 49 48 49 48 47 46 46 46 45 45 45
41 37 33 30 28 27 28 27 23 23 22 23 21 20 22 23 27 28 31 32 34 37 42 49 51 50 50 49 49 49 49 49 49 48 47 47 46 46 45 44 44 44 44 44
38 37 33 31 28 25 27 28 29 26 21 25 24 23 25 25 22 24 34 39 40 44 49 50 50 49 49 48 48 48 47 47 47 46 45 45 44 44 43 43 42 42 41 38
32 32 30 31 29 30 32 33 29 25 23 26 26 26 25 24 27 29 40 43 46 49 50 50 49 48 47 47 47 46 46 45 45 44 43 43 43 43 42 42 41 39 35 32
32 28 28 30 28 26 33 33 26 30 34 34 31 32 27 31 34 38 42 43 47 49 49 49 48 47 46 46 46 45 44 44 43 43 42 42 40 38 39 37 36 34 32 29
28 31 28 27 26 30 35 38 39 39 37 36 36 36 34 34 36 40 41 43 46 48 48 48 47 46 45 45 44 43 42 41 38 36 35 36 35 32 33 34 33 32 31 29
32 35 31 33 30 32 34 40 38 35 35 35 35 38 38 36 38 39 40 41 44 44 45 46 45 43 41 39 37 36 36 35 32 28 26 26 27 26 26 27 28 29 28 27
24 33 31 29 29 32 31 34 33 33 34 35 36 37 38 38 38 39 39 41 41 40 38 37 31 27 27 29 32 33 29 26 24 24 23 23 24 25 24 24 24 24 27 28
27 29 29 27 29 31 25 33 32 33 33 35 36 36 38 38 38 39 38 39 37 34 25 23 23 23 23 23 24 25 25 23 23 24 25 26 26 25 25 25 25 26 26 25

GFSCGP_sfc_30mbdewp_087.txt.gz
Dewpoint
28 25 25 26 27 26 25 25 24 23 25 27 26 27 28 35 40 46 49 50 49 50 53 54 54 54 54 54 54 54 53 54 53 53 52 52 53 53 53 54 56 55 57 58
24 26 27 28 26 25 25 24 23 25 25 24 24 25 25 35 39 44 48 49 48 48 51 53 54 54 53 53 53 53 53 53 52 51 48 49 51 52 52 54 54 56 54 57
20 24 26 28 27 25 25 24 23 23 25 24 25 23 23 33 41 46 49 49 48 48 49 51 52 53 53 53 53 52 53 52 52 51 49 48 50 51 51 52 54 54 55 55
20 21 22 27 26 27 24 26 26 25 24 21 24 20 22 27 38 44 46 48 48 48 49 50 50 50 51 52 52 52 52 52 50 49 48 48 46 46 48 49 54 53 55 55
19 18 19 20 25 28 25 27 26 26 24 23 23 22 22 33 33 38 42 45 47 49 49 50 51 51 51 51 52 52 51 51 50 50 48 47 46 46 49 53 53 54 55 56
20 21 20 19 21 26 27 26 25 28 25 22 26 26 23 25 28 34 40 42 44 49 50 50 51 51 51 52 52 52 51 51 50 50 49 48 48 49 50 52 53 54 55 56
18 22 22 23 22 24 26 24 21 19 19 20 30 31 26 27 28 30 34 40 42 47 49 50 50 50 52 51 51 52 51 51 50 50 49 49 49 50 51 51 53 54 54 55
3 9 22 20 19 20 21 22 20 17 18 19 32 27 25 30 30 30 35 38 41 46 48 49 49 50 52 51 51 51 51 50 50 50 49 49 50 50 52 53 54 55 55 54
20 17 21 20 20 19 19 19 23 21 32 27 27 29 30 29 29 25 33 39 40 46 47 47 48 50 51 52 51 50 50 50 50 50 50 49 50 51 52 54 55 55 56 56
19 16 22 21 21 21 20 25 21 26 21 22 25 26 24 25 23 23 31 38 40 44 47 47 47 50 51 52 52 51 50 49 49 50 50 50 51 52 53 54 55 55 56 56
33 22 19 23 20 19 21 20 24 23 24 18 20 22 27 27 27 23 23 34 41 42 45 48 48 48 50 51 51 50 50 49 48 49 51 52 53 55 56 56 55 56 56 56
35 26 18 18 21 23 21 20 22 22 24 26 23 22 26 28 27 26 26 26 34 43 43 46 48 48 49 50 51 50 49 48 49 50 51 52 55 56 57 57 57 56 56 56
37 32 21 19 20 21 20 22 24 28 28 25 23 23 27 28 28 28 27 26 25 34 42 44 46 48 49 49 50 51 51 49 50 51 52 52 52 55 56 57 56 56 56 55
36 36 32 20 19 19 20 21 23 25 23 24 26 25 26 27 27 27 27 27 26 26 36 42 44 45 47 49 50 50 51 52 52 52 52 52 52 55 56 57 56 56 55 56
36 32 34 28 21 20 24 24 24 23 25 23 24 26 26 26 26 26 28 28 27 26 27 34 40 43 45 46 48 50 52 52 52 52 52 52 53 56 56 57 56 56 56 56
37 32 35 28 25 20 18 21 25 27 27 24 24 24 28 28 28 28 26 26 26 25 27 29 35 38 41 45 46 48 50 52 53 53 53 54 54 56 56 55 55 54 52 52
33 33 32 27 26 26 24 24 23 23 27 24 22 25 26 26 26 27 25 26 26 27 28 28 29 34 39 46 49 50 51 53 53 53 52 52 52 52 51 51 51 50 50 50
33 33 32 30 25 22 26 27 28 27 26 28 26 25 24 23 24 25 23 23 26 28 29 37 44 47 49 51 52 52 52 52 52 51 50 50 50 50 49 49 49 48 47 47
35 34 31 28 26 26 28 29 28 27 27 28 27 24 24 22 26 24 29 28 25 31 36 46 49 49 49 50 50 50 50 50 50 49 49 49 48 47 47 46 45 45 45 45
35 35 32 30 27 23 27 28 31 33 28 28 26 28 24 26 21 22 31 35 37 44 48 48 49 48 48 49 50 49 49 49 48 48 47 46 46 46 45 44 44 45 44 42
33 34 31 30 29 29 32 33 35 31 29 31 27 27 26 25 25 28 38 41 46 49 48 49 48 48 47 47 48 47 47 46 46 45 45 44 44 44 43 43 41 38 36 34
30 30 30 31 28 24 30 35 31 31 35 34 32 29 28 27 31 35 41 45 48 48 48 48 47 46 46 46 46 45 45 44 44 43 43 42 40 40 39 37 35 33 32 31
25 27 28 31 26 29 31 34 35 38 36 36 36 35 34 32 36 41 43 47 48 48 48 47 46 45 45 45 45 44 43 41 38 33 31 31 31 31 34 34 33 31 31 29
30 33 32 31 30 30 30 34 40 40 35 35 36 39 38 36 40 41 44 47 47 48 47 45 41 38 37 37 37 37 33 29 29 29 28 28 28 27 27 28 29 29 30 30
27 34 33 31 30 30 29 32 35 36 36 35 36 37 38 38 40 41 44 44 43 38 33 32 30 29 29 29 28 28 27 27 26 25 25 25 23 23 25 26 27 27 29 30
27 26 27 23 26 28 29 30 35 36 35 37 36 36 39 39 39 41 40 36 30 28 27 26 25 25 25 25 25 24 25 25 25 26 26 26 27 28 27 26 25 28 28 28

GFSCGP_sfc_30mbdewp_093.txt.gz
Dewpoint
28 24 27 26 27 25 24 23 22 25 26 24 21 22 24 26 31 37 46 50 50 50 50 52 54 55 55 55 55 55 55 56 56 55 56 56 56 57 58 58 58 58 58 56
26 15 26 27 29 28 26 23 23 25 25 25 23 22 23 26 28 34 39 47 49 49 50 51 52 54 54 54 54 55 54 55 55 55 56 56 56 57 57 57 58 57 57 56
17 23 25 26 26 27 26 25 25 23 24 25 24 23 24 26 33 38 42 45 49 49 49 50 52 53 54 53 54 54 54 54 55 55 55 55 54 54 55 56 56 56 56 55
23 23 23 25 23 25 21 26 26 25 24 18 24 18 24 25 25 29 40 46 48 49 49 49 50 52 52 54 54 54 54 54 54 53 53 54 53 53 53 53 54 55 56 57
22 20 21 21 25 27 24 27 26 26 25 24 23 23 23 27 25 26 29 44 47 48 49 49 49 51 53 54 53 53 54 53 53 52 53 52 51 52 50 53 54 54 54 55
19 22 22 21 21 28 28 27 27 28 27 23 25 23 22 23 25 26 30 37 46 48 49 49 49 51 52 53 53 53 53 53 52 52 52 51 51 51 48 50 51 53 53 54
16 19 21 22 19 26 27 24 18 21 22 20 25 24 22 26 27 27 27 31 44 47 48 49 49 49 50 51 52 52 53 52 51 51 50 50 51 50 49 48 49 51 51 52
4 -3 17 18 21 20 24 22 17 14 18 19 31 25 24 30 31 32 33 33 41 47 48 48 49 49 50 50 51 51 51 51 51 51 50 50 49 49 50 49 48 50 50 51
22 10 21 12 21 21 23 22 22 17 26 23 23 29 29 28 29 29 27 30 36 44 47 48 48 49 50 51 50 51 51 51 52 51 51 50 50 49 48 48 50 50 50 51
28 25 21 21 19 19 20 26 22 23 16 13 19 24 19 23 23 25 26 28 36 42 45 47 48 49 50 51 51 51 51 50 51 52 51 51 50 50 49 50 50 50 51 52
31 31 27 26 20 19 20 18 20 24 23 15 14 20 29 24 25 25 27 29 30 41 44 46 48 49 50 51 51 52 52 52 52 51 51 51 51 50 50 50 50 50 51 52
35 32 28 27 28 26 22 21 19 17 17 26 21 18 26 28 28 29 29 28 28 39 43 45 47 48 49 50 51 51 52 52 52 51 51 51 52 51 51 51 51 51 51 53
21 29 24 23 24 29 28 28 29 24 22 18 19 20 27 27 28 28 27 29 30 31 42 46 47 47 48 49 50 51 51 51 51 51 51 51 51 51 51 51 51 51 52 52
26 26 18 16 26 28 27 30 28 32 26 21 20 19 25 24 25 27 28 30 30 29 37 43 46 47 48 49 50 51 51 51 51 51 50 50 50 51 50 51 51 52 52 52
31 27 28 25 23 22 25 26 25 28 31 23 20 22 24 24 25 26 29 30 29 29 28 37 42 45 48 49 50 51 51 52 51 51 51 50 50 51 51 52 52 53 54 55
31 29 30 26 27 27 23 25 28 30 32 29 23 21 27 28 29 29 29 30 29 28 28 29 35 43 46 48 49 50 51 51 51 51 50 50 50 51 52 53 53 54 55 56
26 26 28 24 27 28 25 26 30 31 30 26 23 25 27 26 27 29 29 30 30 29 30 29 29 36 44 47 49 50 51 52 52 51 50 50 50 50 51 52 53 53 54 55
26 27 27 24 28 20 23 29 32 31 28 26 26 26 27 27 27 29 30 29 29 30 30 30 31 38 46 49 49 50 51 52 52 52 52 52 52 52 53 53 54 53 51 50
28 26 22 20 22 24 16 31 31 33 32 31 24 25 27 28 28 27 28 27 28 31 31 39 44 48 49 50 51 51 51 51 51 51 51 52 52 51 49 48 47 46 45 42
28 27 23 25 23 14 22 30 37 35 28 37 34 34 31 30 26 25 30 38 45 47 48 48 49 49 50 50 50 50 49 48 47 47 47 47 47 46 45 44 42 40 37 35
25 25 23 22 23 25 30 35 38 25 32 39 39 37 36 31 30 35 46 47 46 46 46 48 48 48 49 49 48 46 45 44 44 44 44 44 43 41 40 39 38 35 33 31
24 25 23 24 24 20 34 36 29 36 39 37 40 38 39 34 37 46 47 46 46 45 46 47 46 46 46 45 44 43 40 40 39 39 38 37 36 36 36 35 33 32 30 29
19 23 27 31 26 36 36 32 33 39 35 37 41 41 40 40 43 46 46 45 44 44 43 43 42 41 40 41 40 37 36 35 34 33 32 31 31 31 32 32 31 30 29 28
23 28 26 28 28 31 32 33 35 35 36 38 41 42 43 45 46 46 44 41 39 39 38 35 32 31 30 31 33 32 32 31 30 30 30 29 29 29 29 29 29 30 30 28
21 27 27 27 26 31 31 32 32 36 38 39 40 43 44 45 40 38 35 34 32 31 31 30 29 28 28 28 28 28 29 30 29 29 28 28 27 27 27 27 27 26 28 28
26 23 24 23 24 27 30 32 34 40 38 37 39 42 44 41 36 32 30 30 29 29 29 28 28 28 28 28 28 29 29 30 30 29 28 28 27 26 25 25 25 26 25 25

GFSCGP_sfc_30mbdewp_096.txt.gz
Dewpoint
9 20 21 20 22 21 18 18 16 16 21 23 20 15 17 22 23 25 30 38 42 45 48 50 52 55 56 56 56 56 56 57 58 57 57 57 57 59 60 60 60 60 58 55
20 11 10 20 22 22 21 19 16 17 19 21 19 16 18 21 23 25 27 34 39 44 48 49 51 54 55 55 56 56 56 56 56 57 57 57 58 58 59 59 59 59 58 55
21 18 18 12 20 21 20 17 17 17 19 21 20 17 13 16 25 28 33 34 37 41 46 48 51 53 55 54 54 55 55 56 56 57 56 56 57 57 57 58 58 58 58 56
22 20 18 18 16 17 16 18 19 18 17 16 20 11 10 18 21 22 23 34 38 41 45 48 49 51 54 54 55 55 54 56 56 56 55 55 54 52 55 57 56 58 58 57
21 22 21 18 20 20 19 21 18 21 19 18 18 17 13 18 22 22 22 24 38 43 45 47 48 50 53 53 54 54 54 55 55 55 55 54 53 53 56 55 55 56 57 57
18 19 21 21 19 22 24 25 25 25 23 20 20 16 12 14 22 21 23 29 38 43 45 47 48 49 52 54 54 54 54 54 54 54 53 53 52 52 54 54 54 55 56 55
7 12 15 20 21 21 23 24 20 21 20 18 18 19 15 22 23 24 24 25 37 42 45 47 47 47 50 52 53 54 53 53 54 54 53 53 53 52 52 53 53 51 51 53
7 3 10 16 16 17 22 24 17 12 14 16 21 19 19 24 24 24 30 31 35 42 45 46 47 47 49 51 52 53 53 53 53 52 52 51 51 52 52 51 50 52 49 49
20 15 20 12 15 16 18 20 21 16 17 19 20 23 27 25 26 26 26 26 31 39 44 46 47 48 47 50 52 52 52 53 53 53 52 51 51 51 51 51 50 49 49 50
19 21 22 20 18 16 15 18 20 20 15 13 13 15 18 20 21 22 25 25 29 36 41 44 46 48 48 49 51 52 51 51 52 53 52 51 50 50 50 50 50 50 49 49
24 23 22 25 18 12 12 16 18 17 18 14 13 14 21 21 21 22 25 26 30 35 40 43 46 48 49 49 50 52 52 51 51 52 53 52 52 52 51 50 50 50 50 50
22 23 21 23 26 28 28 20 15 13 12 18 18 16 22 23 25 26 27 30 30 36 40 42 45 47 48 49 50 51 52 51 51 51 51 52 52 52 51 51 50 50 49 50
22 23 18 20 24 29 26 27 28 28 24 19 17 19 22 23 25 29 28 27 30 32 39 41 44 46 47 48 49 50 51 52 52 51 51 51 52 52 52 52 52 51 52 51
23 19 15 10 18 21 22 25 25 26 26 21 20 19 19 19 21 23 22 26 28 31 36 41 43 44 46 47 48 49 49 51 51 51 51 51 51 52 52 52 52 52 52 51
22 19 17 18 16 14 15 15 17 23 24 24 25 24 21 22 21 22 25 27 29 30 29 35 40 43 44 46 48 49 49 50 50 51 51 50 51 51 52 52 52 52 52 52
29 20 26 22 22 21 17 15 15 17 21 22 23 24 28 26 23 23 23 24 24 29 29 29 33 40 44 46 47 49 50 51 51 50 50 51 51 51 51 51 51 51 52 52
26 24 23 18 22 25 22 21 18 15 17 25 26 26 26 24 22 23 27 29 27 29 29 31 31 34 41 46 48 48 50 52 52 52 51 51 51 51 51 51 52 52 53 54
25 24 24 20 22 19 17 24 23 20 26 28 30 30 27 26 25 25 24 27 29 29 30 30 33 35 39 44 48 49 50 52 52 51 51 51 51 51 51 51 52 53 51 48
27 24 21 17 12 13 16 18 28 28 24 30 36 31 26 26 25 25 27 28 30 36 33 34 35 41 46 46 48 49 50 51 52 52 52 53 53 53 50 48 46 44 40 37
25 27 23 17 14 9 8 27 34 30 21 37 37 38 37 37 27 24 28 41 44 45 45 45 46 48 49 50 51 51 50 49 47 47 47 46 46 45 42 40 37 36 34 33
27 28 24 21 20 15 17 26 35 24 26 35 38 37 39 39 36 37 46 46 46 47 48 48 49 49 49 50 48 46 45 43 43 41 40 39 39 38 37 35 34 32 31 29
24 24 24 24 22 18 28 36 33 37 37 36 38 38 39 41 40 46 46 46 46 46 46 47 46 46 47 46 43 41 39 38 37 36 35 35 35 34 33 32 31 30 29 28
15 16 18 24 23 24 28 36 38 38 36 32 39 40 41 43 44 45 45 44 43 42 39 37 36 38 39 39 38 36 35 35 34 34 33 32 31 31 32 31 30 29 29 28
17 21 23 26 22 30 34 37 37 35 32 39 39 41 44 46 46 45 44 42 40 37 36 34 34 33 33 34 33 34 34 34 33 32 31 31 30 29 28 28 29 29 28 27
21 21 20 21 22 23 24 29 29 28 36 39 40 42 46 45 44 41 39 38 36 34 33 32 32 31 31 32 33 34 34 33 31 30 29 28 28 27 26 26 26 26 26 28
25 22 20 20 22 23 23 24 28 29 34 37 40 44 44 41 39 36 33 33 32 32 31 30 30 30 30 31 32 32 33 32 30 29 29 29 28 27 25 23 23 25 24 23

GFSCGP_sfc_30mbdewp_099.txt.gz
Dewpoint
16 9 5 9 17 18 20 17 17 18 20 18 18 19 17 16 16 20 22 22 26 34 42 47 50 53 54 57 57 57 58 58 58 58 58 58 58 59 61 62 61 60 59 57
18 11 11 7 11 19 20 19 19 19 20 18 20 20 19 17 15 16 21 22 24 30 42 47 50 52 54 55 56 56 57 57 58 57 58 58 58 60 60 61 60 59 58 57
18 19 16 15 15 12 18 20 21 20 20 18 18 19 20 19 17 15 17 24 25 28 39 46 49 51 54 54 55 56 56 57 57 57 58 58 58 58 58 59 59 59 57 56
14 16 20 17 15 11 11 18 19 19 17 16 18 15 17 16 12 13 22 24 26 28 35 45 48 50 53 54 55 55 56 55 57 57 56 57 56 55 57 57 58 58 58 56
13 18 20 19 17 18 13 16 17 17 17 18 18 15 16 18 16 13 18 21 21 30 36 43 47 49 52 54 55 55 55 55 56 57 56 56 55 56 57 57 57 58 58 57
7 13 22 21 21 20 18 18 19 21 18 17 19 18 17 17 16 21 21 20 25 30 38 43 47 47 50 54 54 54 55 54 56 56 56 55 54 54 56 56 56 56 57 58
13 8 8 18 17 20 20 18 17 16 19 19 19 18 19 18 16 22 21 23 30 34 39 43 46 47 49 53 53 54 54 54 55 55 55 55 54 54 55 56 55 54 54 56
11 7 7 8 13 14 19 19 20 12 14 19 21 16 17 20 20 21 24 25 28 34 40 43 45 46 48 52 53 53 53 53 54 54 55 54 54 52 52 54 55 54 53 55
18 15 17 7 10 15 11 19 20 20 20 21 25 21 21 25 24 23 22 23 25 33 39 42 44 46 47 50 52 53 53 52 54 54 54 54 53 52 50 53 54 54 54 54
23 19 18 16 12 14 15 14 16 18 17 14 14 15 18 22 22 22 22 23 23 28 37 41 43 46 47 49 51 52 52 51 52 54 53 53 52 53 52 52 52 54 54 51
13 23 19 21 19 13 13 14 15 15 14 13 16 18 21 18 23 23 23 26 24 28 35 40 43 46 47 49 50 52 51 50 51 52 53 54 52 51 52 52 53 52 52 52
13 21 21 18 20 24 24 13 14 16 14 14 17 18 23 22 22 25 27 26 29 29 33 38 42 45 47 48 49 51 51 49 50 51 52 53 53 52 51 51 52 53 52 52
24 14 13 14 16 20 23 23 20 17 16 13 13 18 21 21 23 23 26 26 27 30 37 39 42 44 46 48 48 49 51 50 49 50 51 52 53 52 52 52 53 53 52 52
24 18 14 11 15 24 22 24 25 24 22 20 17 14 16 19 20 21 23 24 25 30 32 38 40 43 45 47 48 49 50 50 50 49 50 51 51 52 52 52 53 53 53 52
22 19 14 11 11 12 15 15 15 17 20 21 22 20 21 22 21 22 23 23 24 27 29 34 38 41 44 46 48 49 50 51 50 50 50 50 51 52 52 52 52 53 53 52
16 20 17 13 13 12 12 12 11 10 12 16 18 19 21 22 23 25 25 23 23 22 25 28 33 38 41 44 46 48 49 51 51 51 51 50 51 51 52 52 53 52 52 52
30 23 18 18 13 11 13 12 9 6 4 7 12 17 19 24 23 23 24 24 22 25 25 27 29 33 39 43 45 46 48 50 51 50 51 51 51 51 51 52 52 52 52 52
25 23 24 18 19 15 14 15 18 19 17 10 6 6 20 24 27 24 24 23 23 26 28 29 30 33 35 42 45 47 49 50 51 51 50 50 51 51 51 51 50 46 43 40
25 24 23 17 12 11 10 13 17 19 22 23 24 28 35 36 31 27 24 23 24 30 35 33 36 34 37 40 45 47 49 51 51 51 51 51 52 52 48 44 40 38 35 34
24 25 24 20 15 10 10 25 32 31 27 35 35 36 38 38 35 28 31 29 39 41 41 41 43 45 45 45 47 48 50 51 49 48 46 46 44 41 38 36 34 33 32 31
23 28 22 21 20 18 16 16 28 25 29 37 35 34 36 38 41 42 45 44 45 45 46 48 47 49 51 51 49 46 44 42 41 40 39 37 37 35 34 33 32 31 30 29
27 26 24 21 23 20 21 24 26 36 38 37 33 34 37 40 42 46 46 45 46 46 47 47 48 47 46 45 43 39 38 38 37 36 35 34 34 33 32 31 31 30 29 28
25 23 25 25 21 22 23 32 36 39 38 38 35 37 40 43 43 45 44 44 42 40 40 40 40 39 39 39 37 35 36 35 34 33 32 32 32 32 31 30 29 29 28 27
22 21 20 21 22 23 25 32 30 37 36 37 35 36 43 45 46 44 43 41 39 38 37 36 35 35 35 35 35 35 35 34 32 31 30 30 29 28 28 28 29 29 28 27
23 26 25 22 22 23 22 26 33 35 30 28 35 41 44 47 46 44 41 38 36 35 34 34 34 34 35 35 34 34 34 32 31 30 29 28 27 26 26 26 26 25 27 27
22 22 22 22 24 25 24 24 26 27 28 33 36 44 44 43 42 38 35 35 34 33 34 32 33 33 34 33 33 33 33 32 30 30 29 27 26 24 22 22 22 22 21 20

GFSCGP_sfc_30mbdewp_102.txt.gz
Dewpoint
22 11 4 5 6 8 11 14 20 25 26 24 21 19 19 20 19 18 20 21 23 24 38 49 50 53 55 57 57 57 58 58 58 58 58 59 58 60 62 62 60 60 60 58
21 18 15 12 10 6 6 15 19 22 25 24 23 20 19 20 20 20 17 17 20 24 41 49 51 53 56 56 56 56 58 58 58 58 58 58 58 59 60 62 60 60 59 58
15 13 12 14 16 14 10 8 19 23 24 26 24 21 20 19 21 21 20 19 19 23 40 48 51 53 55 55 55 56 56 58 58 58 58 58 59 59 59 60 60 59 58 57
8 12 12 12 17 16 14 14 14 14 17 20 23 18 19 19 19 21 21 20 18 24 28 47 50 52 55 55 55 55 56 57 57 57 57 57 57 56 58 59 59 59 58 57
3 6 7 10 11 17 17 16 14 17 18 18 17 16 18 19 18 19 18 17 23 27 29 46 48 51 53 55 55 55 56 57 56 57 57 57 56 57 58 58 57 57 57 56
11 8 6 13 16 19 19 18 18 17 16 16 18 16 17 18 18 18 19 17 22 24 31 44 48 50 52 55 55 55 55 55 57 57 57 56 56 56 56 56 56 56 56 56
13 11 10 5 12 18 20 18 16 15 17 15 18 17 18 20 20 21 19 21 26 29 38 42 47 48 50 55 54 55 54 54 56 56 57 56 56 56 56 56 56 55 55 55
10 5 11 12 5 10 15 20 20 19 16 20 28 28 22 21 22 21 22 23 27 31 39 42 46 48 50 54 54 54 54 53 55 56 56 56 55 56 56 56 56 55 55 54
16 10 18 12 8 9 12 17 20 21 21 21 26 26 26 24 21 21 21 23 26 33 38 42 46 48 50 53 54 54 54 52 54 55 55 55 54 54 55 55 55 55 56 57
17 18 18 16 10 9 10 12 14 20 19 19 19 21 27 29 28 25 24 23 25 29 38 42 44 48 50 53 54 54 54 53 53 55 55 55 54 53 53 55 55 54 55 55
9 15 14 16 19 14 10 12 15 18 20 19 18 18 26 26 28 24 28 27 27 26 35 41 44 48 48 52 53 54 53 52 54 55 55 54 54 54 52 53 55 55 55 55
2 6 14 12 21 24 27 17 14 14 15 20 20 18 22 29 30 27 26 29 30 29 31 40 43 47 48 50 52 53 53 52 53 54 54 53 53 54 53 53 51 52 55 54
18 16 10 8 7 10 16 21 21 16 17 16 19 21 23 26 30 28 23 25 27 30 30 36 42 46 47 50 51 52 53 51 52 53 54 54 53 53 53 53 54 54 54 54
24 19 19 13 8 19 22 22 22 21 28 19 15 14 16 27 27 26 23 24 25 27 31 37 40 44 47 49 50 51 52 51 52 52 53 54 54 54 53 53 53 53 54 53
18 14 14 12 11 9 11 15 17 18 20 26 25 23 24 26 30 27 26 27 25 24 26 31 39 42 46 48 49 50 52 51 51 51 52 53 54 54 54 54 54 54 54 53
14 11 10 11 12 10 7 9 13 14 14 13 14 15 17 19 20 19 21 22 23 26 25 25 33 40 43 47 49 50 51 51 51 50 51 52 54 54 54 55 55 55 54 54
25 18 10 12 14 11 7 7 8 10 11 11 10 12 13 16 18 20 23 25 25 24 25 25 29 33 42 45 48 50 51 53 52 51 51 51 52 53 54 54 54 54 52 46
25 28 23 19 18 15 15 11 12 12 11 9 11 8 6 7 14 31 34 25 27 24 25 28 34 35 37 44 47 49 50 52 53 52 52 52 52 52 53 52 45 42 39 37
23 22 24 19 13 14 11 12 21 30 27 36 37 37 35 35 37 35 42 44 43 39 33 38 39 41 37 42 46 48 49 51 52 51 51 52 52 47 43 40 38 36 35 33
22 23 21 22 16 8 9 22 22 23 23 38 35 37 35 34 36 35 43 46 45 46 46 43 44 45 46 50 49 48 50 51 48 46 45 42 41 39 37 35 34 33 32 31
21 23 22 23 23 20 15 18 21 18 27 39 36 34 36 37 36 40 44 46 45 46 47 49 50 49 48 46 45 44 42 41 40 39 38 36 35 34 33 32 31 30 29 29
26 25 24 22 20 18 25 26 27 34 32 35 36 36 37 38 40 42 46 44 44 43 43 46 46 44 44 43 40 38 37 37 36 36 34 34 33 32 32 31 30 29 28 27
27 23 25 22 22 27 28 29 35 35 34 34 34 35 36 38 42 43 45 41 39 39 39 39 38 37 37 38 38 36 35 35 34 33 33 32 32 31 31 30 29 29 28 27
27 32 28 30 28 32 30 27 30 31 31 31 31 33 34 42 45 46 43 40 38 37 36 36 36 35 35 35 35 34 33 32 31 30 30 29 29 28 28 29 29 29 28 27
30 24 24 25 30 29 30 29 30 30 29 31 32 36 42 44 45 43 38 36 35 34 35 35 35 35 35 34 33 33 32 31 29 28 27 26 25 24 24 24 24 24 25 25
23 21 22 27 32 30 32 28 25 27 27 34 36 40 39 40 39 36 34 34 34 33 34 35 35 34 34 34 34 34 32 30 29 27 26 25 24 22 21 20 20 23 22 21

GFSCGP_sfc_30mbdewp_105.txt.gz
Dewpoint
27 20 13 7 1 -1 2 6 8 10 16 23 24 25 27 27 27 19 20 24 26 26 44 49 52 55 57 57 58 58 58 59 59 58 57 57 60 61 61 60 61 61 61 60
25 22 19 10 4 1 2 6 7 9 18 19 21 26 28 29 28 27 21 21 21 24 47 50 54 55 57 57 56 56 58 58 58 57 58 58 58 59 62 61 61 61 60 59
22 22 22 19 17 13 12 13 11 8 12 20 23 25 28 28 26 24 22 21 22 29 48 51 53 55 56 55 55 55 57 57 58 58 58 57 58 59 58 61 60 60 59 59
15 15 18 16 15 14 14 17 15 15 13 12 21 18 26 26 23 23 21 21 22 28 49 51 53 55 55 55 55 55 57 57 58 58 57 57 56 55 58 57 59 59 59 59
9 5 5 5 6 10 12 19 18 17 15 15 16 16 21 21 19 19 21 22 22 23 49 51 52 55 55 55 55 55 56 57 57 57 57 57 57 57 58 58 59 59 59 58
16 16 12 10 9 11 16 20 20 18 17 14 16 16 16 18 19 19 21 21 22 23 48 50 52 54 54 55 55 55 56 57 56 56 57 57 56 57 57 58 57 58 58 57
17 15 14 13 11 10 18 18 18 16 16 15 17 17 18 22 22 20 20 22 26 28 47 50 52 53 54 54 54 55 56 56 56 56 57 56 57 56 56 57 57 56 56 56
14 13 13 13 11 7 16 17 18 16 16 16 22 25 25 26 28 29 22 24 33 46 47 49 50 52 54 54 54 55 54 54 56 56 56 56 56 56 56 56 56 56 55 56
18 15 21 21 20 9 6 14 16 20 20 19 22 24 26 36 35 34 26 23 32 43 47 49 49 52 54 54 54 54 54 54 55 55 56 55 56 56 56 56 55 55 55 56
16 15 18 17 21 19 9 13 11 18 19 19 19 18 22 29 34 36 30 30 30 40 44 48 48 51 54 54 54 54 54 53 55 55 55 55 55 56 56 56 55 55 55 55
4 11 12 15 15 24 27 12 11 14 24 20 19 19 32 36 39 38 36 30 30 34 42 47 48 50 53 54 54 54 54 52 54 55 55 55 54 55 56 55 55 55 55 54
5 5 5 8 12 25 30 28 29 9 12 21 19 19 26 31 34 39 36 34 35 34 39 46 48 50 53 53 53 54 53 53 53 55 55 54 54 53 53 55 55 55 55 56
9 17 18 15 8 9 21 26 31 30 19 15 16 20 25 27 36 39 36 34 34 29 31 42 48 50 52 53 53 53 53 53 53 54 55 54 54 54 52 53 54 55 55 54
21 17 14 17 19 18 14 14 19 29 27 29 27 25 24 27 34 36 36 35 31 28 31 36 47 48 51 52 54 53 53 53 54 54 53 53 54 54 53 53 52 52 55 55
19 14 14 15 14 14 12 11 10 10 16 25 26 27 30 29 33 35 37 31 23 23 24 27 38 45 50 51 52 53 53 53 54 54 54 53 54 54 54 54 54 54 54 54
22 15 16 14 12 9 10 12 11 10 10 13 14 16 21 16 20 21 28 24 24 25 26 24 28 39 46 50 51 52 52 52 53 53 54 54 54 54 54 53 53 54 54 54
25 21 19 16 15 12 11 12 12 10 8 9 9 13 17 11 8 37 42 43 44 45 45 38 26 26 41 51 50 52 52 52 52 52 53 54 54 54 54 54 54 53 48 43
24 24 24 17 20 13 15 19 15 10 10 18 34 37 37 36 38 43 45 44 45 46 47 48 47 46 40 48 50 51 52 52 52 51 52 54 54 54 54 51 44 41 39 37
23 23 22 20 18 21 18 19 24 24 26 38 36 37 37 36 37 42 43 46 45 46 47 49 49 48 47 49 53 54 52 52 52 51 51 52 53 47 43 40 37 36 34 33
22 22 22 22 18 12 14 26 26 23 24 38 38 37 36 36 35 38 44 45 45 46 46 48 47 45 44 44 51 52 52 51 47 45 44 44 42 40 37 35 33 33 32 31
21 21 20 22 20 22 23 24 25 19 28 37 35 37 37 35 36 39 45 45 44 43 43 44 42 41 41 41 42 42 41 40 40 39 38 37 36 35 33 32 32 30 29 28
26 20 21 22 20 16 28 27 23 33 34 35 36 35 36 36 38 43 44 42 40 40 40 40 39 39 39 39 40 39 37 37 37 37 36 35 34 33 32 31 30 29 28 27
26 25 24 22 20 33 36 34 38 34 33 33 32 32 35 39 44 45 41 39 38 37 37 37 37 37 37 37 37 36 36 37 36 35 34 33 32 31 30 29 28 28 27 27
32 35 31 29 31 34 34 35 33 30 29 30 30 33 41 42 45 42 38 36 35 35 35 36 36 35 34 34 34 34 34 33 32 31 30 30 30 29 30 30 29 28 26 25
28 33 32 33 35 36 37 35 31 32 30 29 38 40 41 41 38 37 36 34 34 35 36 36 35 34 33 33 32 32 32 30 28 27 26 25 25 24 23 24 23 22 24 24
29 31 30 31 35 36 34 30 32 32 33 38 41 36 35 36 35 33 31 31 30 30 30 32 34 33 33 33 32 31 30 29 27 25 24 23 22 21 20 19 20 23 22 22

GFSCGP_sfc_30mbdewp_108.txt.gz
Dewpoint
26 8 6 1 5 10 9 6 3 4 4 11 15 20 21 23 24 24 28 29 28 26 32 50 55 56 57 57 57 58 58 59 58 58 59 60 59 60 61 62 62 62 62 61
23 25 20 14 9 5 2 0 -1 1 6 9 13 14 13 21 25 26 28 29 26 26 48 52 55 56 56 57 57 57 57 59 58 57 57 58 60 60 60 61 62 62 62 61
22 22 25 22 18 10 5 2 1 5 11 13 15 15 18 22 27 29 29 28 25 25 48 52 55 56 56 56 56 57 58 58 58 57 57 57 58 59 60 60 60 61 61 60
21 23 23 22 20 20 17 17 14 15 15 14 15 12 15 16 20 25 26 25 24 29 48 52 54 55 56 56 56 56 58 57 57 58 57 56 55 56 57 60 59 61 60 60
15 10 15 17 17 18 16 16 16 17 16 16 15 14 13 17 17 19 21 21 21 22 44 51 53 54 55 55 55 56 57 57 58 58 57 56 55 56 56 57 59 59 60 59
17 18 17 14 13 11 13 16 20 20 18 15 16 15 14 16 17 19 20 21 23 23 40 50 53 55 54 55 55 56 57 57 57 57 57 57 56 57 56 57 57 58 59 59
18 16 16 16 13 13 13 16 14 15 15 13 16 16 16 18 19 23 27 29 33 34 37 51 53 54 54 54 55 55 56 56 56 56 57 57 57 57 57 57 58 57 58 58
16 15 16 15 14 14 13 11 10 12 13 14 18 16 21 26 29 38 39 38 36 32 38 51 53 53 53 54 54 55 56 56 56 56 57 57 56 56 56 58 58 57 57 57
16 15 20 20 21 20 13 12 15 14 20 18 19 20 21 22 39 38 39 40 36 46 48 51 53 53 53 53 54 55 55 55 55 56 57 56 56 56 56 56 57 57 57 58
10 14 15 14 17 25 23 19 12 18 11 11 19 20 20 28 36 39 39 41 39 41 48 51 52 53 54 54 54 55 54 55 55 56 56 56 56 56 56 55 56 56 56 56
5 11 13 13 17 15 22 25 27 17 18 13 17 19 35 35 36 38 43 43 40 40 39 49 50 54 54 54 54 54 53 53 54 54 56 55 56 56 56 55 55 55 56 56
10 7 2 6 10 14 22 27 28 25 20 25 21 18 22 36 38 40 41 40 39 35 35 45 49 53 53 53 54 54 53 53 53 53 55 55 55 56 55 55 55 55 54 55
11 11 10 3 10 22 23 22 17 30 31 26 23 17 27 30 39 41 41 44 40 39 37 42 50 51 53 53 53 53 53 52 53 55 54 55 54 54 55 55 55 55 54 54
19 15 8 4 14 15 7 10 12 25 22 25 23 27 24 24 33 39 38 42 39 39 38 39 49 52 53 53 53 53 53 53 53 54 55 54 54 53 54 55 55 55 55 55
18 11 14 14 14 13 12 11 10 9 15 21 19 19 17 22 29 37 39 41 37 37 38 41 47 50 53 53 53 53 53 53 53 53 53 54 54 54 52 54 54 54 55 55
25 18 17 15 16 16 15 15 13 11 10 10 12 15 17 29 27 33 33 38 42 46 47 48 44 49 52 53 54 54 53 53 53 53 53 53 54 54 53 52 53 52 54 55
22 20 18 14 18 18 15 14 14 12 12 11 9 15 37 37 33 40 43 44 45 45 45 47 47 46 47 52 54 54 54 54 54 54 54 53 54 54 53 53 54 52 47 43
23 21 20 16 18 10 10 17 20 15 14 19 28 36 37 36 43 43 45 44 45 44 45 47 46 45 44 45 53 54 54 54 54 54 54 54 54 53 54 51 45 42 39 38
25 23 19 14 14 15 14 18 25 25 21 37 36 37 37 37 41 39 45 45 45 44 44 45 44 43 43 44 49 54 54 54 54 53 54 54 54 50 46 42 38 36 35 34
24 23 20 21 14 14 19 25 26 29 25 37 37 37 36 36 32 34 44 45 43 42 42 42 41 41 41 43 45 53 53 53 50 48 48 50 46 43 39 36 35 34 33 32
25 22 20 18 16 19 21 20 23 25 27 36 36 36 36 34 35 38 44 42 40 39 39 39 39 39 39 41 42 41 41 41 42 42 41 41 39 37 35 33 33 31 30 30
25 22 20 20 18 15 31 32 24 32 34 35 35 34 33 38 43 44 40 39 38 37 37 37 37 37 37 40 41 39 38 39 39 38 36 35 35 34 33 31 30 30 29 28
25 28 23 20 19 28 36 34 38 37 32 32 31 31 37 42 43 40 37 36 35 36 36 36 36 35 35 36 38 37 38 37 36 35 34 33 32 31 31 30 29 28 27 26
31 33 31 28 33 35 37 37 36 35 30 28 31 39 42 41 41 38 35 34 35 35 36 35 34 33 33 33 33 34 34 34 33 32 31 31 30 30 29 29 28 27 25 23
31 32 31 31 33 35 35 37 37 36 32 32 39 40 40 39 36 35 33 32 32 32 35 34 33 32 31 31 31 31 30 29 28 28 27 26 25 24 23 24 23 23 24 22
32 30 25 27 35 34 32 35 36 33 36 39 37 34 33 34 32 30 28 28 28 29 30 31 32 32 31 30 29 29 29 27 25 24 23 22 22 21 20 20 21 24 24 24

GFSCGP_sfc_30mbdewp_111.txt.gz
Dewpoint
23 13 6 3 9 13 12 10 9 8 8 4 3 5 8 11 19 21 20 21 25 27 29 33 51 56 58 58 58 58 59 59 59 59 59 58 58 60 60 61 60 60 61 60
15 21 17 6 4 4 5 5 4 3 2 4 5 7 10 14 15 19 23 24 27 26 29 43 53 56 56 57 57 58 58 58 58 59 59 59 59 60 61 61 62 61 61 60
6 13 22 24 19 14 11 8 6 5 4 9 11 13 15 17 19 24 26 27 27 28 28 38 54 55 56 56 56 57 58 58 57 57 58 58 59 60 59 60 61 62 62 61
14 15 16 24 23 21 20 15 12 8 12 13 15 12 14 16 16 18 20 20 24 26 28 42 54 55 55 56 56 57 57 58 57 57 57 58 57 57 58 59 60 61 62 61
11 14 20 17 19 22 19 21 19 18 16 16 14 15 13 16 15 17 18 19 22 24 30 44 53 55 55 56 56 56 57 57 57 57 56 56 56 56 58 59 59 60 61 61
13 16 16 15 15 17 17 13 16 19 17 13 12 14 11 13 15 18 20 22 37 37 34 39 50 55 55 55 55 56 56 56 57 57 56 55 54 55 55 57 58 59 60 60
18 17 18 18 15 15 14 14 8 5 14 12 13 14 13 17 18 25 36 38 40 41 40 39 47 54 54 54 55 56 56 55 56 57 56 56 55 56 55 55 56 57 59 59
15 11 17 17 16 15 14 13 10 0 4 8 16 15 16 25 30 39 40 42 42 42 41 45 48 53 54 54 54 55 56 56 55 56 56 56 56 56 56 56 56 57 57 59
18 17 19 16 18 21 17 12 14 11 11 15 13 18 16 24 32 36 40 43 43 42 41 43 51 53 54 54 54 55 55 55 55 55 56 56 56 56 57 57 58 58 59 58
18 15 13 14 20 20 24 25 13 17 10 8 11 18 16 22 33 35 37 42 43 42 41 42 53 53 54 54 54 55 55 55 55 55 56 56 56 56 56 57 57 57 58 58
7 10 14 14 13 9 17 24 26 26 20 16 9 10 31 34 37 37 38 41 42 42 44 43 45 53 53 54 54 54 55 55 55 55 56 56 56 56 56 56 56 56 57 57
10 8 4 6 13 16 24 29 30 24 23 25 25 20 27 27 39 39 40 39 42 44 45 41 40 53 53 54 54 54 54 54 54 55 55 55 56 56 55 55 55 56 56 56
15 10 2 2 18 18 21 18 14 27 30 21 23 21 25 26 23 40 40 41 43 46 44 42 41 53 54 54 54 54 53 53 54 54 54 55 55 56 55 55 55 55 55 55
23 13 4 1 11 13 7 10 8 20 16 15 19 18 22 20 19 35 38 41 43 44 44 46 48 53 54 54 54 53 53 53 53 53 53 54 55 55 55 55 55 54 55 55
23 10 13 14 15 14 12 14 14 12 12 10 6 13 16 17 22 25 36 39 41 44 47 47 47 52 54 54 54 54 53 53 53 54 53 52 54 54 55 55 55 55 54 54
23 18 19 16 17 16 16 18 17 16 15 13 11 9 11 19 27 29 36 39 41 43 46 46 46 46 47 50 54 54 53 53 53 54 54 53 53 53 54 54 54 55 55 54
22 19 17 9 17 16 11 10 14 13 13 13 10 10 19 34 36 37 38 40 44 45 45 46 45 45 45 45 47 54 54 54 53 53 53 54 54 53 52 53 53 53 50 47
21 21 19 13 14 5 9 15 15 17 18 23 15 19 37 37 42 43 44 44 44 44 44 44 43 43 43 43 46 50 55 54 54 53 53 53 54 53 53 52 48 45 42 40
27 22 17 12 10 7 8 7 20 28 28 33 21 36 37 37 42 40 44 45 44 42 42 42 41 41 42 42 45 52 55 55 54 54 54 53 53 52 48 44 40 38 37 35
25 25 20 19 13 4 11 24 26 28 24 37 35 36 37 36 36 35 43 42 40 39 39 39 39 39 40 42 45 49 53 54 54 54 54 54 50 46 42 39 37 35 34 32
24 25 20 17 13 13 17 18 28 19 27 33 36 36 35 34 36 40 41 39 38 37 37 38 38 37 38 41 43 43 43 42 42 44 46 46 44 41 38 36 35 34 32 31
24 22 20 21 16 12 29 30 26 31 34 36 36 33 33 41 43 41 38 37 36 36 36 36 36 35 36 38 39 40 39 40 39 38 37 37 36 35 34 33 32 31 30 29
23 27 24 20 17 28 36 36 37 39 36 32 32 30 38 42 40 38 36 35 35 36 36 35 34 34 33 35 36 35 37 38 35 34 33 32 32 32 32 31 30 29 28 27
29 32 29 29 32 34 36 37 39 39 37 33 37 42 41 40 39 36 35 34 33 34 35 33 33 32 31 31 32 33 34 34 33 31 31 30 29 28 28 28 29 27 25 24
30 32 30 31 32 34 35 34 34 33 37 36 36 35 36 36 34 33 31 30 30 31 33 33 31 30 30 30 29 29 29 28 27 25 25 24 23 23 23 23 22 22 23 22
33 26 27 27 31 33 34 36 37 37 36 37 34 32 30 31 30 29 27 28 28 28 30 31 31 30 29 28 28 27 26 26 25 23 22 22 22 22 22 21 22 24 24 25

GFSCGP_sfc_30mbdewp_114.txt.gz
Dewpoint
19 14 6 4 6 11 13 12 11 11 11 8 8 5 4 6 9 12 15 18 20 22 24 28 33 46 55 58 59 59 59 59 59 59 59 59 58 59 60 60 61 60 60 60
12 17 18 7 5 7 9 9 9 5 5 5 4 5 9 10 12 14 15 19 21 24 25 25 32 52 56 57 58 59 59 58 59 59 59 58 58 59 60 60 60 60 61 59
7 9 16 18 10 6 5 3 4 4 7 8 10 12 12 15 16 19 21 23 24 23 22 25 30 49 55 57 58 58 58 58 59 58 58 59 59 60 59 60 59 60 60 59
9 9 8 16 21 17 15 17 16 16 11 14 16 10 11 14 16 17 16 18 19 25 34 31 30 47 54 56 57 57 58 58 57 58 58 58 57 57 59 59 60 60 61 59
6 16 13 7 14 24 22 20 18 17 17 16 15 13 11 12 11 13 18 20 31 40 40 40 40 48 54 56 56 57 57 57 57 57 58 57 57 57 58 60 60 60 60 60
10 16 19 19 20 19 19 19 16 19 16 10 12 10 5 9 15 18 27 37 41 42 41 41 41 47 54 56 56 56 56 57 57 57 56 57 56 57 58 58 58 59 60 60
16 15 18 17 15 16 16 13 6 1 11 5 12 13 9 13 16 33 39 41 43 43 41 41 42 48 55 55 55 56 56 56 56 56 56 55 55 56 57 58 58 59 59 59
16 13 18 18 15 13 14 13 8 -3 -1 1 16 10 14 21 32 37 40 42 44 43 42 42 44 45 53 54 54 55 55 56 56 56 56 55 55 55 55 56 57 58 59 59
19 17 18 15 20 20 17 14 16 12 12 11 10 14 15 26 32 35 35 39 41 40 42 42 43 43 53 54 54 55 55 55 55 56 56 56 56 56 55 56 56 56 57 58
14 17 14 14 23 17 21 26 15 17 10 8 9 14 14 29 34 35 36 37 38 38 41 42 42 43 44 54 54 55 55 54 55 55 56 56 56 56 56 57 57 57 58 58
12 9 12 13 11 10 18 21 25 24 23 17 14 12 29 25 32 34 37 39 40 40 43 44 43 44 45 54 54 54 55 54 54 55 55 56 56 56 56 56 56 57 58 58
14 13 8 7 18 19 29 28 28 19 22 24 23 20 27 21 23 24 37 41 43 43 44 46 47 48 51 54 54 54 55 54 54 54 55 56 56 56 56 56 56 57 57 57
20 14 5 10 18 13 18 12 24 27 27 20 18 16 24 19 15 18 32 39 43 44 42 43 48 48 53 54 54 54 54 53 53 55 55 55 55 55 55 55 56 56 56 56
24 17 9 4 8 11 5 10 11 21 15 12 17 10 8 12 15 12 18 37 43 44 42 44 47 47 49 54 54 53 54 54 54 54 55 54 55 55 55 55 55 55 55 55
23 11 12 13 14 14 12 12 14 12 12 9 3 5 5 8 9 12 15 36 41 41 41 42 47 46 46 48 54 54 54 53 53 54 53 53 55 56 55 55 55 55 55 55
23 15 19 14 16 16 15 17 17 16 15 14 13 11 12 12 12 12 26 37 40 41 41 44 47 46 45 45 46 54 54 53 54 53 53 52 54 55 55 54 54 54 54 54
20 16 17 10 16 15 8 10 13 14 15 14 11 12 13 14 16 36 39 42 43 44 44 45 45 44 44 44 45 46 54 53 53 53 53 52 54 53 54 54 54 54 50 49
21 21 18 13 14 4 3 14 11 11 13 15 15 15 24 23 39 43 44 44 44 43 42 42 42 41 41 43 44 46 48 54 53 53 53 53 53 53 53 53 48 45 43 42
27 22 16 12 12 8 8 6 10 25 23 25 26 28 28 35 41 40 45 43 42 40 39 39 40 39 40 41 42 45 48 54 53 53 53 54 54 52 49 46 43 40 38 36
26 25 18 17 13 6 6 17 30 30 15 32 35 36 36 36 34 38 42 39 38 37 37 37 38 38 38 38 41 45 53 54 53 53 53 53 51 49 46 42 39 36 35 33
24 24 20 19 17 14 15 13 25 16 17 34 35 37 35 34 38 41 39 37 37 36 36 37 37 36 35 37 40 42 42 43 44 48 49 49 47 44 40 37 36 34 32 31
23 21 21 21 17 11 32 31 26 34 37 37 38 37 35 40 41 39 37 36 35 36 35 35 35 34 33 35 37 38 37 37 38 39 39 38 37 37 36 34 33 32 31 29
21 26 23 24 18 31 34 36 38 36 37 37 32 32 40 40 38 36 35 34 34 34 35 33 33 32 31 32 33 34 35 35 34 34 33 33 33 33 32 31 30 29 29 28
28 32 28 28 31 32 34 36 37 38 37 39 41 40 40 38 37 35 32 31 31 32 33 32 32 30 30 30 30 31 32 32 30 29 29 29 30 29 29 29 29 28 28 27
29 31 28 29 32 33 35 36 36 38 38 35 33 33 34 34 32 30 29 29 29 30 31 31 30 29 29 29 28 28 28 28 26 25 25 25 24 24 24 24 24 24 24 24
30 30 28 27 32 33 34 38 36 34 33 34 31 30 30 30 29 28 27 27 27 28 29 28 28 28 27 27 26 26 27 26 25 25 24 24 23 23 23 23 24 27 26 26

GFSCGP_sfc_30mbdewp_117.txt.gz
Dewpoint
15 12 10 10 9 5 11 13 12 13 13 11 11 10 9 7 7 10 14 16 19 22 24 27 30 33 38 51 54 57 59 60 60 60 59 58 57 57 58 60 60 60 61 61
17 18 18 11 8 7 7 8 10 12 10 9 7 8 11 11 13 14 16 18 21 24 25 33 37 37 44 52 57 58 59 59 60 60 59 59 58 59 58 60 60 61 61 60
8 11 16 16 10 5 6 7 8 5 6 10 11 12 13 15 15 18 20 22 23 24 38 40 42 43 47 52 57 58 59 59 60 60 60 59 59 59 59 60 60 60 60 60
11 12 10 15 16 13 11 10 6 5 13 12 16 7 12 14 16 15 17 22 32 41 42 41 42 42 47 50 57 58 59 59 59 59 58 58 57 56 58 60 59 60 59 58
12 14 9 7 8 15 11 20 13 16 16 15 15 13 11 14 8 15 20 33 41 42 42 41 43 44 48 53 56 58 59 58 58 59 58 58 57 57 59 60 59 59 59 58
13 15 18 11 11 16 23 21 20 20 18 12 13 9 5 8 13 17 33 39 43 43 43 42 43 43 46 56 57 58 58 57 57 58 58 57 57 57 58 59 59 58 59 58
15 8 14 18 16 19 19 15 8 10 11 2 12 12 9 15 25 35 37 38 41 40 39 40 42 43 44 52 55 56 57 56 57 57 57 57 57 58 57 58 59 58 58 59
17 16 15 17 15 14 18 15 6 -5 -2 -0 15 7 14 32 36 36 37 39 38 37 38 40 42 43 44 46 54 55 55 55 56 57 57 58 58 58 58 59 59 58 59 59
12 18 18 18 20 16 16 14 14 6 13 12 12 14 24 31 31 29 30 36 38 39 40 42 44 45 48 47 48 54 55 55 56 56 57 57 57 56 56 57 58 59 59 59
10 8 16 17 21 22 20 22 15 16 10 8 10 11 17 21 22 20 23 31 38 40 41 43 46 47 48 52 50 55 55 55 56 56 57 57 57 56 56 56 56 56 57 58
14 12 11 14 19 17 19 22 24 22 22 8 7 10 25 23 23 14 14 20 35 41 42 42 44 46 46 50 54 55 55 55 56 56 56 56 56 56 56 56 57 57 57 58
16 16 12 9 21 24 28 28 28 18 20 24 20 16 27 24 18 14 14 16 30 42 43 42 43 43 45 45 53 55 55 55 55 55 56 55 56 56 55 56 56 57 58 58
20 17 11 16 20 18 13 9 26 27 24 22 17 10 25 16 8 10 12 14 20 42 41 41 41 43 45 45 47 55 55 54 54 55 55 55 55 55 55 56 56 57 57 57
24 15 13 12 13 13 10 11 11 18 11 13 13 11 7 6 7 8 8 12 17 41 41 41 42 44 46 46 46 49 55 55 54 55 54 54 55 55 55 56 56 56 56 56
19 11 11 10 12 14 13 11 11 9 8 4 2 3 3 4 5 8 12 15 16 36 40 41 44 46 47 45 45 46 53 55 54 54 54 54 55 56 55 55 55 56 56 56
23 11 16 15 14 12 12 14 16 14 13 13 11 10 12 11 12 13 15 20 34 40 44 45 46 46 44 44 44 44 47 54 54 54 54 54 55 55 55 55 55 55 55 55
20 17 12 5 9 12 9 10 11 11 13 12 7 7 8 13 13 15 22 34 42 43 43 42 42 43 42 42 43 44 45 48 53 53 54 54 55 55 55 55 54 54 52 50
21 20 18 11 13 4 5 12 12 11 12 14 14 15 17 19 20 23 42 43 43 41 40 39 39 40 40 40 42 43 44 47 53 53 53 53 54 54 54 54 50 48 46 45
26 22 17 12 9 7 7 6 5 8 9 23 26 31 33 35 30 35 43 41 40 38 37 37 38 39 38 39 39 41 44 49 53 53 53 52 53 53 52 48 45 42 40 37
25 26 19 17 11 7 6 23 25 26 11 33 34 34 36 37 30 31 41 38 37 37 37 37 37 37 36 36 38 41 41 44 53 53 53 53 53 51 47 43 40 37 35 33
24 24 19 18 17 18 18 27 26 9 18 35 35 34 37 36 38 40 38 37 36 36 36 35 35 34 34 34 36 37 37 36 38 46 53 52 50 46 42 39 36 34 32 31
22 21 21 22 18 14 33 28 24 31 35 36 38 37 36 40 39 37 36 35 34 34 34 33 33 33 32 32 33 33 33 35 36 38 41 41 40 39 37 35 34 33 31 30
21 25 23 25 19 29 33 33 36 39 35 36 38 40 41 39 36 35 33 32 32 33 33 32 32 31 30 30 30 30 31 32 33 34 33 34 34 34 34 33 32 31 30 29
25 31 27 28 32 33 34 36 36 37 37 37 35 36 36 34 34 32 31 30 30 31 32 31 30 29 28 28 28 29 29 30 29 29 30 31 31 31 31 31 31 30 29 28
29 31 28 28 32 32 35 34 36 35 35 33 32 32 32 32 30 29 29 28 28 28 28 28 28 26 26 26 26 27 28 28 27 27 27 27 27 26 26 26 27 27 28 27
30 28 25 25 29 30 30 31 33 33 32 32 31 30 28 28 28 27 26 26 26 26 25 25 25 24 24 24 24 25 26 27 26 25 25 25 25 26 26 25 25 27 27 26

GFSCGP_sfc_30mbdewp_120.txt.gz
Dewpoint
14 8 6 5 7 5 3 0 2 3 10 12 11 11 11 12 11 6 7 12 14 18 19 22 34 40 44 45 45 48 49 53 58 61 62 61 60 59 60 61 61 61 62 63
15 8 -1 -1 4 7 6 1 -1 -0 9 13 9 6 5 4 7 8 10 13 17 19 22 33 37 41 44 48 51 52 53 56 58 60 61 60 60 60 60 60 60 60 60 62
7 6 13 14 14 10 8 6 3 2 3 5 4 1 2 6 9 12 17 18 20 27 34 37 41 42 44 47 52 53 53 57 58 58 60 60 60 60 59 59 60 60 60 60
7 10 9 11 15 15 11 10 7 5 6 2 4 2 6 10 11 14 14 20 30 36 38 39 39 41 43 50 55 54 55 57 59 59 59 59 59 58 58 59 61 61 61 61
10 11 10 10 9 11 11 11 14 14 9 6 5 8 2 8 11 11 18 31 37 40 40 37 37 40 42 49 55 56 56 58 58 60 60 59 58 57 58 59 60 60 60 60
18 18 12 11 8 9 10 13 18 18 12 10 9 8 1 6 8 12 29 36 37 36 36 36 37 40 42 46 53 57 57 58 59 60 60 59 58 57 58 60 59 59 59 58
13 16 16 17 11 19 13 15 11 11 11 8 0 2 2 6 20 28 33 34 35 36 37 37 39 41 44 47 48 53 56 56 58 59 59 59 58 57 57 59 58 58 58 57
7 13 19 14 16 15 17 16 8 7 5 4 7 2 10 30 32 32 32 34 36 36 36 37 40 44 46 49 51 50 53 55 57 58 58 59 58 57 58 58 58 58 59 59
7 7 20 21 24 16 17 20 17 11 10 5 5 20 29 28 23 23 25 28 33 35 37 36 37 43 45 47 51 53 52 55 56 57 58 58 58 58 57 58 59 59 59 59
12 10 13 21 28 28 20 19 12 13 8 1 -1 8 10 22 15 8 4 6 18 28 32 35 37 40 40 44 47 51 55 54 55 56 58 59 58 57 57 58 59 59 59 60
8 13 10 14 23 27 30 24 23 20 11 6 3 4 18 21 18 12 9 7 9 19 29 35 38 38 39 43 45 48 53 55 55 56 57 58 57 57 57 57 57 58 58 58
10 12 11 10 16 23 26 31 32 25 17 15 11 11 21 25 22 10 11 8 11 12 30 35 37 39 40 43 45 47 48 55 56 56 57 58 57 56 56 56 56 56 55 57
19 10 5 3 16 25 22 17 21 26 27 19 14 11 25 26 19 9 8 6 11 11 27 32 36 39 42 44 45 46 47 48 56 56 57 57 57 55 55 54 55 57 57 57
22 12 9 5 17 18 14 18 15 13 14 16 14 10 13 10 4 4 6 7 12 13 23 31 38 41 42 43 45 45 46 47 55 56 56 57 56 53 53 55 56 56 56 56
17 9 5 4 6 8 13 14 12 10 8 6 9 5 3 3 4 4 7 9 13 17 22 35 40 43 44 44 44 44 45 46 50 55 56 55 54 55 55 56 56 56 56 56
16 12 9 6 6 8 9 8 8 7 9 7 5 6 6 4 3 7 10 11 17 24 35 41 42 42 42 42 42 43 44 45 46 55 55 54 54 55 55 55 55 56 56 56
21 15 10 7 4 3 3 4 5 5 5 6 6 4 3 4 7 11 14 15 27 35 41 41 41 41 41 42 41 42 43 45 46 51 55 54 54 54 55 55 55 55 54 52
23 18 15 11 8 5 1 3 7 6 6 3 4 5 7 12 17 24 25 24 36 41 40 39 39 39 39 40 41 40 42 44 46 48 55 54 53 53 54 54 54 51 48 46
20 20 15 12 6 3 4 6 5 4 3 4 8 18 22 30 34 30 35 40 39 39 38 38 38 38 38 38 37 39 41 42 43 47 54 54 53 53 54 51 48 44 42 39
26 25 18 12 12 7 9 15 17 18 11 29 32 33 34 35 32 35 39 38 38 37 36 36 36 36 35 35 35 38 37 37 37 39 49 54 53 54 50 46 42 40 37 35
23 26 20 17 18 16 17 22 23 14 21 32 35 34 32 34 36 38 37 36 35 35 35 34 34 34 33 32 33 34 34 34 35 37 40 53 53 50 45 41 38 36 34 32
22 21 22 22 19 16 27 23 25 29 34 35 35 37 38 40 38 37 34 33 33 33 33 32 32 31 31 30 30 30 30 32 34 36 36 46 45 42 40 37 35 34 32 30
21 26 23 26 24 31 33 34 34 34 36 37 37 36 37 35 35 33 32 31 31 31 31 30 29 29 28 28 28 28 29 30 33 33 33 33 37 37 37 35 33 32 32 30
26 30 28 27 29 30 31 33 35 36 34 33 34 33 33 32 32 31 29 29 28 28 28 27 27 26 25 26 26 27 29 29 30 31 31 32 32 31 32 32 32 32 30 29
29 31 27 28 28 30 32 31 31 32 33 33 32 30 30 30 29 29 27 26 26 26 25 26 25 25 24 24 25 26 27 28 28 29 29 30 31 28 28 29 29 28 29 28
30 27 25 24 28 28 30 32 33 32 31 33 31 30 28 28 27 27 26 26 25 24 24 24 24 24 23 23 23 25 27 27 27 26 27 27 28 28 27 26 25 28 27 27

GFSCGP_sfc_30mbdewp_123.txt.gz
Dewpoint
17 7 4 5 7 6 5 4 4 5 4 6 8 10 13 13 15 16 15 14 11 8 11 15 21 32 37 40 44 43 44 47 45 49 56 60 63 64 63 64 64 65 65 65
8 12 10 5 4 5 5 6 5 4 1 1 7 9 9 7 10 12 11 8 6 10 16 19 30 36 40 43 45 49 49 49 50 50 55 59 63 61 61 62 63 62 63 64
7 5 9 10 9 0 -1 3 6 5 3 4 5 6 6 2 1 3 7 6 9 16 19 29 34 37 42 45 51 52 50 51 53 54 57 61 61 60 60 60 60 61 61 62
12 10 8 6 8 10 9 9 7 7 8 5 7 1 1 1 1 4 6 10 16 23 31 33 33 35 40 45 53 54 53 53 55 57 59 61 59 59 59 59 60 60 60 60
10 14 11 11 11 10 10 12 11 11 11 9 3 2 2 6 8 8 10 16 24 33 34 32 33 35 38 45 48 54 56 55 57 58 58 59 60 59 60 60 60 60 60 60
6 11 16 16 12 12 15 15 11 13 14 9 10 6 3 7 10 9 13 25 32 33 33 33 35 37 38 45 49 49 54 55 58 59 60 60 60 59 59 58 59 59 61 61
-3 2 11 13 15 15 11 12 15 11 14 16 10 6 4 7 7 9 19 31 32 33 34 34 35 38 40 44 48 50 49 54 57 59 60 61 61 60 58 58 58 60 59 59
1 -3 11 23 16 15 13 14 13 12 13 11 11 9 8 8 25 28 30 31 33 33 34 34 34 37 39 42 45 51 50 50 55 57 58 60 61 60 58 58 58 59 59 59
4 2 6 19 25 24 17 20 17 15 15 13 12 13 23 26 27 28 27 28 32 33 33 31 33 36 38 37 41 49 53 51 55 56 57 58 60 60 58 57 59 58 60 59
8 5 5 6 25 22 31 24 23 24 19 14 9 9 16 22 21 22 19 16 17 20 24 27 32 34 35 38 42 46 50 53 54 55 57 58 59 60 58 58 59 59 59 60
8 3 -1 3 12 21 26 27 19 22 23 13 9 6 14 24 18 12 10 11 11 9 10 21 30 34 36 39 42 45 48 51 55 55 56 57 58 60 59 58 59 59 60 59
9 16 4 2 11 23 25 26 31 27 17 17 13 13 26 22 16 17 15 12 10 11 8 12 28 32 37 40 43 44 46 48 51 56 56 57 57 60 58 57 57 58 58 59
19 12 11 4 -1 22 24 25 26 28 29 24 19 22 28 27 21 15 8 7 8 11 11 8 22 29 35 39 42 44 45 47 49 53 56 56 57 59 58 57 57 58 57 57
20 15 10 6 3 23 14 24 21 17 18 20 26 28 33 34 20 6 4 5 6 7 11 11 17 29 35 41 44 44 45 47 48 49 56 56 57 58 57 56 56 57 56 56
18 13 14 9 4 1 2 6 14 17 18 15 12 16 26 16 7 5 4 6 7 8 13 20 27 36 41 42 42 43 44 45 47 47 50 56 57 58 56 56 56 57 56 56
16 22 15 9 6 4 -1 1 6 10 11 12 11 9 9 8 5 3 4 7 10 11 17 27 36 38 41 41 42 42 43 43 46 46 48 54 57 56 55 56 56 56 56 56
20 17 12 10 7 7 0 -2 -1 2 5 10 5 7 6 2 2 6 13 16 18 16 35 36 38 39 40 40 40 41 42 43 44 46 47 49 56 56 56 56 56 56 56 54
19 17 16 14 11 7 3 1 0 3 4 4 4 1 0 6 19 24 24 22 24 35 37 37 39 39 38 39 39 39 40 42 42 43 44 48 55 56 55 55 55 54 51 47
15 16 14 14 12 13 8 18 12 11 9 6 7 9 16 27 31 26 38 38 39 38 38 37 37 37 37 36 36 37 39 39 39 39 41 42 54 55 54 55 51 47 44 41
28 29 23 15 17 10 18 15 17 17 13 27 30 30 31 33 30 33 37 36 35 35 35 34 35 35 34 33 34 35 35 35 35 35 37 39 42 54 53 49 45 42 40 37
20 23 23 18 19 14 29 24 23 18 24 33 34 35 33 31 34 37 38 36 35 34 33 33 33 32 31 31 31 32 32 32 32 34 36 38 40 52 48 44 40 38 35 34
22 20 18 23 20 18 33 27 28 33 32 35 36 34 32 36 37 35 33 33 32 31 31 30 30 30 29 28 28 28 29 30 31 34 35 35 42 46 43 40 36 35 34 32
22 26 23 26 24 32 33 31 33 34 36 35 34 34 33 32 31 31 30 29 29 28 28 27 27 27 28 26 26 26 27 29 30 33 33 33 34 39 39 37 34 33 33 31
28 32 27 28 28 29 31 32 32 32 31 33 35 32 31 30 30 29 28 28 27 26 25 26 26 25 25 25 24 25 27 29 29 30 32 32 32 32 33 34 34 33 31 30
29 31 26 29 28 27 31 32 32 33 33 34 36 31 29 28 28 28 27 26 26 25 24 25 24 24 24 24 23 24 26 28 28 29 30 31 30 29 27 28 29 29 30 30
26 27 25 24 29 28 30 33 30 32 30 30 29 29 28 27 26 27 26 25 25 24 23 23 23 23 23 23 22 23 25 28 28 27 27 28 28 28 26 25 25 27 26 26